| time (UTC) | temp F | wind direction | speed MPH | gust MPH | rain 1hr in | rain 24hr in | rain mn in | humidity % | barometer mb |
| 20260510191607 | 55 | 260 | 4.0 | 11.0 | 0.00 | 0.00 | 0.00 | 39 | 1019.2 |
| 20260510191527 | 55 | 259 | 4.0 | 11.0 | 0.00 | 0.00 | 0.00 | 39 | 1019.2 |
| 20260510191406 | 55 | 255 | 4.0 | 11.0 | 0.00 | 0.00 | 0.00 | 37 | 1019.2 |
| 20260510191306 | 55 | 251 | 4.0 | 11.0 | 0.00 | 0.00 | 0.00 | 39 | 1019.2 |
| 20260510191207 | 55 | 249 | 4.0 | 11.0 | 0.00 | 0.00 | 0.00 | 39 | 1019.2 |
| 20260510191106 | 55 | 248 | 4.0 | 11.0 | 0.00 | 0.00 | 0.00 | 40 | 1019.2 |
| 20260510191007 | 55 | 249 | 4.0 | 11.0 | 0.00 | 0.00 | 0.00 | 40 | 1019.2 |
| 20260510190906 | 55 | 249 | 4.0 | 11.0 | 0.00 | 0.00 | 0.00 | 40 | 1019.2 |
| 20260510190807 | 55 | 248 | 4.0 | 11.0 | 0.00 | 0.00 | 0.00 | 39 | 1019.3 |
| 20260510190707 | 55 | 247 | 4.0 | 10.0 | 0.00 | 0.00 | 0.00 | 39 | 1019.3 |
| 20260510190606 | 55 | 248 | 4.0 | 10.0 | 0.00 | 0.00 | 0.00 | 38 | 1019.3 |
| 20260510190506 | 54 | 249 | 4.0 | 10.0 | 0.00 | 0.00 | 0.00 | 40 | 1019.3 |
| 20260510190406 | 54 | 250 | 4.0 | 11.0 | 0.00 | 0.00 | 0.00 | 39 | 1019.3 |
| 20260510190306 | 54 | 254 | 4.0 | 11.0 | 0.00 | 0.00 | 0.00 | 41 | 1019.2 |
| 20260510190207 | 54 | 254 | 5.0 | 11.0 | 0.00 | 0.00 | 0.00 | 40 | 1019.2 |
| 20260510190107 | 54 | 257 | 5.0 | 12.0 | 0.00 | 0.00 | 0.00 | 40 | 1019.2 |
| 20260510190007 | 54 | 257 | 5.0 | 12.0 | 0.00 | 0.00 | 0.00 | 41 | 1019.2 |
| 20260510185906 | 54 | 255 | 5.0 | 12.0 | 0.00 | 0.00 | 0.00 | 40 | 1019.3 |
| 20260510185806 | 54 | 256 | 5.0 | 12.0 | 0.00 | 0.00 | 0.00 | 40 | 1019.3 |
| 20260510185706 | 54 | 256 | 5.0 | 12.0 | 0.00 | 0.00 | 0.00 | 40 | 1019.3 |
| 20260510185606 | 54 | 256 | 5.0 | 12.0 | 0.00 | 0.00 | 0.00 | 40 | 1019.4 |
| 20260510185506 | 54 | 255 | 5.0 | 12.0 | 0.00 | 0.00 | 0.00 | 40 | 1019.4 |
| 20260510185407 | 53 | 254 | 5.0 | 12.0 | 0.00 | 0.00 | 0.00 | 40 | 1019.4 |
| 20260510185306 | 53 | 250 | 5.0 | 12.0 | 0.00 | 0.00 | 0.00 | 39 | 1019.4 |
| 20260510185207 | 54 | 249 | 5.0 | 12.0 | 0.00 | 0.00 | 0.00 | 38 | 1019.4 |
| 20260510185107 | 54 | 243 | 5.0 | 11.0 | 0.00 | 0.00 | 0.00 | 38 | 1019.4 |
| 20260510185006 | 54 | 239 | 5.0 | 11.0 | 0.00 | 0.00 | 0.00 | 38 | 1019.4 |
| 20260510184927 | 54 | 240 | 5.0 | 11.0 | 0.00 | 0.00 | 0.00 | 38 | 1019.4 |
| 20260510184806 | 54 | 237 | 5.0 | 11.0 | 0.00 | 0.00 | 0.00 | 39 | 1019.4 |
| 20260510184706 | 54 | 239 | 5.0 | 15.0 | 0.00 | 0.00 | 0.00 | 38 | 1019.4 |
| 20260510184607 | 54 | 236 | 5.0 | 15.0 | 0.00 | 0.00 | 0.00 | 38 | 1019.4 |
| 20260510184506 | 54 | 230 | 5.0 | 15.0 | 0.00 | 0.00 | 0.00 | 37 | 1019.5 |
| 20260510184406 | 55 | 232 | 5.0 | 15.0 | 0.00 | 0.00 | 0.00 | 36 | 1019.5 |
| 20260510184306 | 55 | 234 | 5.0 | 15.0 | 0.00 | 0.00 | 0.00 | 37 | 1019.4 |
| 20260510184206 | 55 | 238 | 5.0 | 15.0 | 0.00 | 0.00 | 0.00 | 38 | 1019.4 |
| 20260510184106 | 55 | 242 | 6.0 | 16.0 | 0.00 | 0.00 | 0.00 | 38 | 1019.3 |
| 20260510184006 | 55 | 243 | 6.0 | 16.0 | 0.00 | 0.00 | 0.00 | 39 | 1019.3 |
| 20260510183906 | 55 | 246 | 7.0 | 16.0 | 0.00 | 0.00 | 0.00 | 37 | 1019.3 |
| 20260510183806 | 55 | 249 | 6.0 | 16.0 | 0.00 | 0.00 | 0.00 | 39 | 1019.4 |
| 20260510183707 | 54 | 248 | 6.0 | 16.0 | 0.00 | 0.00 | 0.00 | 39 | 1019.4 |
| 20260510183606 | 54 | 249 | 6.0 | 16.0 | 0.00 | 0.00 | 0.00 | 39 | 1019.3 |
| 20260510183506 | 54 | 248 | 6.0 | 16.0 | 0.00 | 0.00 | 0.00 | 40 | 1019.3 |
| 20260510183406 | 54 | 249 | 6.0 | 16.0 | 0.00 | 0.00 | 0.00 | 40 | 1019.3 |
| 20260510183306 | 54 | 248 | 6.0 | 16.0 | 0.00 | 0.00 | 0.00 | 39 | 1019.4 |
| 20260510183228 | 53 | 248 | 6.0 | 16.0 | 0.00 | 0.00 | 0.00 | 39 | 1019.4 |
| 20260510183107 | 54 | 247 | 6.0 | 16.0 | 0.00 | 0.00 | 0.00 | 39 | 1019.4 |
| 20260510183006 | 54 | 250 | 5.0 | 13.0 | 0.00 | 0.00 | 0.00 | 39 | 1019.3 |
| 20260510182927 | 55 | 249 | 5.0 | 13.0 | 0.00 | 0.00 | 0.00 | 39 | 1019.3 |
| 20260510182806 | 55 | 246 | 5.0 | 11.0 | 0.00 | 0.00 | 0.00 | 40 | 1019.4 |
| 20260510182706 | 55 | 249 | 5.0 | 11.0 | 0.00 | 0.00 | 0.00 | 39 | 1019.4 |
| 20260510182627 | 55 | 250 | 5.0 | 11.0 | 0.00 | 0.00 | 0.00 | 39 | 1019.4 |
| 20260510182506 | 54 | 258 | 5.0 | 11.0 | 0.00 | 0.00 | 0.00 | 40 | 1019.4 |
| 20260510182428 | 54 | 258 | 5.0 | 11.0 | 0.00 | 0.00 | 0.00 | 41 | 1019.4 |
| 20260510182306 | 54 | 260 | 5.0 | 11.0 | 0.00 | 0.00 | 0.00 | 40 | 1019.4 |
| 20260510182206 | 54 | 261 | 5.0 | 12.0 | 0.00 | 0.00 | 0.00 | 40 | 1019.3 |
| 20260510182106 | 54 | 260 | 5.0 | 12.0 | 0.00 | 0.00 | 0.00 | 40 | 1019.3 |
| 20260510182006 | 54 | 260 | 5.0 | 12.0 | 0.00 | 0.00 | 0.00 | 40 | 1019.3 |
| 20260510181927 | 54 | 260 | 5.0 | 12.0 | 0.00 | 0.00 | 0.00 | 40 | 1019.2 |
| 20260510181806 | 54 | 261 | 5.0 | 12.0 | 0.00 | 0.00 | 0.00 | 40 | 1019.2 |
| 20260510181706 | 54 | 259 | 5.0 | 12.0 | 0.00 | 0.00 | 0.00 | 39 | 1019.2 |
| 20260510181606 | 54 | 254 | 6.0 | 12.0 | 0.00 | 0.00 | 0.00 | 40 | 1019.3 |
| 20260510181507 | 54 | 248 | 5.0 | 12.0 | 0.00 | 0.00 | 0.00 | 41 | 1019.3 |
| 20260510181406 | 54 | 245 | 5.0 | 12.0 | 0.00 | 0.00 | 0.00 | 41 | 1019.2 |
| 20260510181306 | 54 | 244 | 5.0 | 12.0 | 0.00 | 0.00 | 0.00 | 40 | 1019.2 |
| 20260510181207 | 54 | 239 | 5.0 | 12.0 | 0.00 | 0.00 | 0.00 | 42 | 1019.2 |
| 20260510181106 | 54 | 237 | 5.0 | 11.0 | 0.00 | 0.00 | 0.00 | 43 | 1019.2 |
| 20260510181006 | 54 | 238 | 6.0 | 11.0 | 0.00 | 0.00 | 0.00 | 40 | 1019.2 |
| 20260510180906 | 54 | 237 | 6.0 | 11.0 | 0.00 | 0.00 | 0.00 | 41 | 1019.3 |
| 20260510180827 | 54 | 237 | 6.0 | 11.0 | 0.00 | 0.00 | 0.00 | 41 | 1019.3 |
| 20260510180707 | 54 | 239 | 6.0 | 16.0 | 0.00 | 0.00 | 0.00 | 40 | 1019.2 |
| 20260510180606 | 54 | 243 | 6.0 | 16.0 | 0.00 | 0.00 | 0.00 | 41 | 1019.2 |
| 20260510180506 | 54 | 248 | 6.0 | 16.0 | 0.00 | 0.00 | 0.00 | 41 | 1019.2 |
| 20260510180406 | 54 | 249 | 6.0 | 16.0 | 0.00 | 0.00 | 0.00 | 42 | 1019.2 |
| 20260510180306 | 53 | 249 | 6.0 | 16.0 | 0.00 | 0.00 | 0.00 | 41 | 1019.2 |
| 20260510180206 | 53 | 250 | 6.0 | 16.0 | 0.00 | 0.00 | 0.00 | 42 | 1019.2 |
| 20260510180107 | 53 | 251 | 6.0 | 16.0 | 0.00 | 0.00 | 0.00 | 42 | 1019.2 |
| 20260510180028 | 53 | 251 | 6.0 | 16.0 | 0.00 | 0.00 | 0.00 | 42 | 1019.2 |
| 20260510175906 | 53 | 253 | 6.0 | 16.0 | 0.00 | 0.00 | 0.00 | 42 | 1019.2 |
| 20260510175806 | 54 | 252 | 5.0 | 15.0 | 0.00 | 0.00 | 0.00 | 42 | 1019.1 |
| 20260510175706 | 54 | 253 | 5.0 | 14.0 | 0.00 | 0.00 | 0.00 | 41 | 1019.1 |
| 20260510175606 | 54 | 255 | 5.0 | 14.0 | 0.00 | 0.00 | 0.00 | 41 | 1019.2 |
| 20260510175506 | 54 | 254 | 5.0 | 14.0 | 0.00 | 0.00 | 0.00 | 43 | 1019.2 |
| 20260510175427 | 54 | 256 | 5.0 | 11.0 | 0.00 | 0.00 | 0.00 | 43 | 1019.1 |
| 20260510175307 | 54 | 257 | 6.0 | 12.0 | 0.00 | 0.00 | 0.00 | 44 | 1019.1 |
| 20260510175206 | 54 | 259 | 6.0 | 12.0 | 0.00 | 0.00 | 0.00 | 42 | 1019.1 |
| 20260510175106 | 54 | 259 | 6.0 | 12.0 | 0.00 | 0.00 | 0.00 | 43 | 1019.1 |
| 20260510175006 | 53 | 260 | 6.0 | 12.0 | 0.00 | 0.00 | 0.00 | 43 | 1019.2 |
| 20260510174906 | 53 | 259 | 5.0 | 13.0 | 0.00 | 0.00 | 0.00 | 43 | 1019.2 |
| 20260510174806 | 53 | 259 | 5.0 | 13.0 | 0.00 | 0.00 | 0.00 | 42 | 1019.1 |
| 20260510174706 | 54 | 254 | 6.0 | 13.0 | 0.00 | 0.00 | 0.00 | 43 | 1019.1 |
| 20260510174627 | 53 | 253 | 6.0 | 13.0 | 0.00 | 0.00 | 0.00 | 43 | 1019.1 |
| 20260510174506 | 53 | 251 | 6.0 | 13.0 | 0.00 | 0.00 | 0.00 | 41 | 1019.1 |
| 20260510174406 | 54 | 249 | 6.0 | 13.0 | 0.00 | 0.00 | 0.00 | 42 | 1019.1 |
| 20260510174306 | 54 | 248 | 5.0 | 13.0 | 0.00 | 0.00 | 0.00 | 42 | 1019.0 |
| 20260510174206 | 54 | 247 | 5.0 | 13.0 | 0.00 | 0.00 | 0.00 | 43 | 1019.0 |
| 20260510174106 | 54 | 247 | 6.0 | 13.0 | 0.00 | 0.00 | 0.00 | 43 | 1019.0 |
| 20260510174028 | 54 | 248 | 6.0 | 13.0 | 0.00 | 0.00 | 0.00 | 43 | 1019.0 |
| 20260510173906 | 53 | 249 | 5.0 | 12.0 | 0.00 | 0.00 | 0.00 | 42 | 1018.9 |
| 20260510173806 | 53 | 246 | 6.0 | 12.0 | 0.00 | 0.00 | 0.00 | 41 | 1019.0 |
| 20260510173706 | 53 | 250 | 6.0 | 12.0 | 0.00 | 0.00 | 0.00 | 43 | 1019.0 |
| 20260510173627 | 53 | 251 | 6.0 | 12.0 | 0.00 | 0.00 | 0.00 | 42 | 1019.0 |
| 20260510173506 | 53 | 251 | 6.0 | 12.0 | 0.00 | 0.00 | 0.00 | 43 | 1019.0 |
| 20260510173406 | 53 | 252 | 6.0 | 13.0 | 0.00 | 0.00 | 0.00 | 45 | 1019.0 |
| 20260510173306 | 53 | 250 | 6.0 | 13.0 | 0.00 | 0.00 | 0.00 | 43 | 1019.0 |
| 20260510173206 | 53 | 249 | 6.0 | 13.0 | 0.00 | 0.00 | 0.00 | 42 | 1019.0 |
| 20260510173106 | 53 | 250 | 6.0 | 13.0 | 0.00 | 0.00 | 0.00 | 42 | 1019.0 |
| 20260510173006 | 53 | 250 | 7.0 | 13.0 | 0.00 | 0.00 | 0.00 | 43 | 1018.9 |
| 20260510172907 | 52 | 251 | 7.0 | 13.0 | 0.00 | 0.00 | 0.00 | 42 | 1018.9 |
| 20260510172827 | 52 | 252 | 7.0 | 13.0 | 0.00 | 0.00 | 0.00 | 42 | 1019.0 |
| 20260510172706 | 52 | 254 | 7.0 | 13.0 | 0.00 | 0.00 | 0.00 | 42 | 1019.1 |
| 20260510172606 | 52 | 253 | 7.0 | 13.0 | 0.00 | 0.00 | 0.00 | 43 | 1019.1 |
| 20260510172506 | 52 | 254 | 7.0 | 13.0 | 0.00 | 0.00 | 0.00 | 43 | 1019.0 |
| 20260510172406 | 52 | 254 | 7.0 | 13.0 | 0.00 | 0.00 | 0.00 | 43 | 1019.0 |
| 20260510172307 | 52 | 255 | 7.0 | 14.0 | 0.00 | 0.00 | 0.00 | 45 | 1019.1 |
| 20260510172206 | 52 | 255 | 7.0 | 14.0 | 0.00 | 0.00 | 0.00 | 44 | 1019.1 |
| 20260510172106 | 52 | 254 | 7.0 | 14.0 | 0.00 | 0.00 | 0.00 | 44 | 1019.1 |
| 20260510172006 | 52 | 252 | 6.0 | 14.0 | 0.00 | 0.00 | 0.00 | 43 | 1019.1 |
| 20260510171907 | 52 | 247 | 6.0 | 14.0 | 0.00 | 0.00 | 0.00 | 44 | 1019.0 |
| 20260510171806 | 52 | 248 | 6.0 | 14.0 | 0.00 | 0.00 | 0.00 | 43 | 1019.0 |
| 20260510171707 | 52 | 248 | 6.0 | 14.0 | 0.00 | 0.00 | 0.00 | 43 | 1019.0 |
| 20260510171606 | 52 | 250 | 7.0 | 14.0 | 0.00 | 0.00 | 0.00 | 43 | 1019.0 |
| 20260510171506 | 52 | 247 | 6.0 | 14.0 | 0.00 | 0.00 | 0.00 | 43 | 1019.0 |
| 20260510171407 | 52 | 246 | 6.0 | 14.0 | 0.00 | 0.00 | 0.00 | 43 | 1019.0 |
| 20260510171307 | 53 | 246 | 6.0 | 14.0 | 0.00 | 0.00 | 0.00 | 43 | 1019.0 |
| 20260510171206 | 53 | 243 | 5.0 | 14.0 | 0.00 | 0.00 | 0.00 | 43 | 1018.9 |
| 20260510171106 | 53 | 243 | 6.0 | 14.0 | 0.00 | 0.00 | 0.00 | 42 | 1018.9 |
| 20260510171007 | 53 | 244 | 6.0 | 14.0 | 0.00 | 0.00 | 0.00 | 43 | 1019.0 |
| 20260510170906 | 53 | 246 | 6.0 | 14.0 | 0.00 | 0.00 | 0.00 | 43 | 1018.9 |
| 20260510170807 | 52 | 244 | 6.0 | 14.0 | 0.00 | 0.00 | 0.00 | 43 | 1018.9 |
| 20260510170706 | 52 | 244 | 6.0 | 14.0 | 0.00 | 0.00 | 0.00 | 44 | 1018.8 |
| 20260510170606 | 52 | 243 | 6.0 | 14.0 | 0.00 | 0.00 | 0.00 | 44 | 1018.8 |
| 20260510170506 | 52 | 243 | 6.0 | 14.0 | 0.00 | 0.00 | 0.00 | 43 | 1019.0 |
| 20260510170406 | 52 | 242 | 6.0 | 14.0 | 0.00 | 0.00 | 0.00 | 44 | 1018.9 |
| 20260510170306 | 52 | 241 | 6.0 | 14.0 | 0.00 | 0.00 | 0.00 | 44 | 1018.9 |
| 20260510170206 | 52 | 242 | 7.0 | 14.0 | 0.00 | 0.00 | 0.00 | 44 | 1019.0 |
| 20260510170106 | 52 | 243 | 7.0 | 15.0 | 0.00 | 0.00 | 0.00 | 42 | 1018.9 |
| 20260510170006 | 52 | 244 | 7.0 | 15.0 | 0.00 | 0.00 | 0.00 | 44 | 1018.9 |
| 20260510165927 | 52 | 245 | 7.0 | 15.0 | 0.00 | 0.00 | 0.00 | 45 | 1018.9 |
| 20260510165806 | 52 | 244 | 7.0 | 15.0 | 0.00 | 0.00 | 0.00 | 43 | 1018.9 |
| 20260510165706 | 52 | 244 | 6.0 | 15.0 | 0.00 | 0.00 | 0.00 | 44 | 1018.9 |
| 20260510165606 | 53 | 244 | 6.0 | 15.0 | 0.00 | 0.00 | 0.00 | 43 | 1018.9 |
| 20260510165506 | 52 | 244 | 6.0 | 15.0 | 0.00 | 0.00 | 0.00 | 44 | 1018.9 |
| 20260510165407 | 52 | 245 | 6.0 | 15.0 | 0.00 | 0.00 | 0.00 | 45 | 1018.9 |
| 20260510165307 | 52 | 246 | 6.0 | 15.0 | 0.00 | 0.00 | 0.00 | 44 | 1018.9 |
| 20260510165227 | 52 | 247 | 6.0 | 15.0 | 0.00 | 0.00 | 0.00 | 44 | 1018.9 |
| 20260510165106 | 52 | 246 | 6.0 | 15.0 | 0.00 | 0.00 | 0.00 | 47 | 1018.9 |
| 20260510165006 | 52 | 244 | 6.0 | 15.0 | 0.00 | 0.00 | 0.00 | 46 | 1018.9 |
| 20260510164906 | 52 | 245 | 6.0 | 15.0 | 0.00 | 0.00 | 0.00 | 45 | 1019.0 |
| 20260510164806 | 52 | 246 | 6.0 | 15.0 | 0.00 | 0.00 | 0.00 | 46 | 1019.0 |
| 20260510164706 | 52 | 247 | 6.0 | 11.0 | 0.00 | 0.00 | 0.00 | 46 | 1018.9 |
| 20260510164606 | 52 | 248 | 6.0 | 11.0 | 0.00 | 0.00 | 0.00 | 45 | 1018.9 |
| 20260510164507 | 52 | 250 | 6.0 | 11.0 | 0.00 | 0.00 | 0.00 | 45 | 1018.9 |
| 20260510164427 | 52 | 251 | 6.0 | 11.0 | 0.00 | 0.00 | 0.00 | 45 | 1018.8 |
| 20260510164306 | 52 | 253 | 6.0 | 13.0 | 0.00 | 0.00 | 0.00 | 46 | 1018.9 |
| 20260510164206 | 52 | 252 | 6.0 | 15.0 | 0.00 | 0.00 | 0.00 | 45 | 1018.9 |
| 20260510164106 | 52 | 252 | 6.0 | 15.0 | 0.00 | 0.00 | 0.00 | 46 | 1018.9 |
| 20260510164007 | 52 | 254 | 5.0 | 15.0 | 0.00 | 0.00 | 0.00 | 47 | 1018.9 |
| 20260510163927 | 52 | 254 | 5.0 | 15.0 | 0.00 | 0.00 | 0.00 | 48 | 1018.8 |
| 20260510163809 | 52 | 255 | 5.0 | 15.0 | 0.00 | 0.00 | 0.00 | 47 | 1018.8 |
| 20260510163706 | 52 | 255 | 5.0 | 15.0 | 0.00 | 0.00 | 0.00 | 47 | 1018.8 |
| 20260510163606 | 52 | 255 | 5.0 | 15.0 | 0.00 | 0.00 | 0.00 | 44 | 1018.9 |
| 20260510163527 | 52 | 254 | 5.0 | 15.0 | 0.00 | 0.00 | 0.00 | 44 | 1018.9 |
| 20260510163427 | 52 | 252 | 5.0 | 15.0 | 0.00 | 0.00 | 0.00 | 44 | 1018.8 |
| 20260510163306 | 53 | 250 | 4.0 | 15.0 | 0.00 | 0.00 | 0.00 | 44 | 1018.8 |
| 20260510163207 | 53 | 251 | 4.0 | 13.0 | 0.00 | 0.00 | 0.00 | 44 | 1018.8 |
| 20260510163106 | 53 | 250 | 4.0 | 14.0 | 0.00 | 0.00 | 0.00 | 46 | 1018.8 |
| 20260510163006 | 53 | 250 | 5.0 | 14.0 | 0.00 | 0.00 | 0.00 | 44 | 1018.8 |
| 20260510162906 | 53 | 249 | 5.0 | 14.0 | 0.00 | 0.00 | 0.00 | 46 | 1018.7 |
| 20260510162806 | 52 | 251 | 5.0 | 14.0 | 0.00 | 0.00 | 0.00 | 45 | 1018.8 |
| 20260510162707 | 52 | 250 | 5.0 | 14.0 | 0.00 | 0.00 | 0.00 | 45 | 1018.8 |
| 20260510162606 | 52 | 251 | 5.0 | 14.0 | 0.00 | 0.00 | 0.00 | 47 | 1018.7 |
| 20260510162506 | 52 | 253 | 5.0 | 14.0 | 0.00 | 0.00 | 0.00 | 47 | 1018.7 |
| 20260510162406 | 52 | 256 | 6.0 | 14.0 | 0.00 | 0.00 | 0.00 | 46 | 1018.7 |
| 20260510162327 | 52 | 256 | 6.0 | 14.0 | 0.00 | 0.00 | 0.00 | 46 | 1018.8 |
| 20260510162206 | 52 | 256 | 6.0 | 14.0 | 0.00 | 0.00 | 0.00 | 45 | 1018.8 |
| 20260510162106 | 52 | 258 | 6.0 | 14.0 | 0.00 | 0.00 | 0.00 | 45 | 1018.8 |
| 20260510162006 | 52 | 260 | 6.0 | 12.0 | 0.00 | 0.00 | 0.00 | 46 | 1018.7 |
| 20260510161927 | 52 | 260 | 6.0 | 12.0 | 0.00 | 0.00 | 0.00 | 46 | 1018.7 |
| 20260510161827 | 52 | 258 | 6.0 | 14.0 | 0.00 | 0.00 | 0.00 | 46 | 1018.8 |
| 20260510161706 | 52 | 254 | 6.0 | 14.0 | 0.00 | 0.00 | 0.00 | 46 | 1018.8 |
| 20260510161606 | 52 | 253 | 6.0 | 14.0 | 0.00 | 0.00 | 0.00 | 46 | 1018.7 |
| 20260510161506 | 52 | 252 | 6.0 | 14.0 | 0.00 | 0.00 | 0.00 | 46 | 1018.8 |
| 20260510161406 | 52 | 251 | 6.0 | 14.0 | 0.00 | 0.00 | 0.00 | 46 | 1018.8 |
| 20260510161306 | 52 | 251 | 6.0 | 14.0 | 0.00 | 0.00 | 0.00 | 47 | 1018.7 |
| 20260510161206 | 52 | 251 | 6.0 | 14.0 | 0.00 | 0.00 | 0.00 | 47 | 1018.7 |
| 20260510161106 | 52 | 249 | 5.0 | 14.0 | 0.00 | 0.00 | 0.00 | 47 | 1018.7 |
| 20260510161006 | 52 | 247 | 5.0 | 14.0 | 0.00 | 0.00 | 0.00 | 46 | 1018.7 |
| 20260510160907 | 52 | 247 | 5.0 | 14.0 | 0.00 | 0.00 | 0.00 | 45 | 1018.7 |
| 20260510160807 | 52 | 248 | 5.0 | 12.0 | 0.00 | 0.00 | 0.00 | 46 | 1018.7 |
| 20260510160706 | 52 | 249 | 5.0 | 12.0 | 0.00 | 0.00 | 0.00 | 45 | 1018.7 |
| 20260510160606 | 52 | 251 | 5.0 | 12.0 | 0.00 | 0.00 | 0.00 | 45 | 1018.7 |
| 20260510160506 | 52 | 250 | 5.0 | 12.0 | 0.00 | 0.00 | 0.00 | 45 | 1018.7 |
| 20260510160406 | 52 | 253 | 4.0 | 12.0 | 0.00 | 0.00 | 0.00 | 46 | 1018.7 |
| 20260510160306 | 52 | 253 | 4.0 | 12.0 | 0.00 | 0.00 | 0.00 | 48 | 1018.6 |
| 20260510160206 | 52 | 255 | 4.0 | 12.0 | 0.00 | 0.00 | 0.00 | 47 | 1018.6 |
| 20260510160106 | 52 | 257 | 4.0 | 12.0 | 0.00 | 0.00 | 0.00 | 46 | 1018.6 |
| 20260510160027 | 52 | 256 | 4.0 | 12.0 | 0.00 | 0.00 | 0.00 | 46 | 1018.6 |
| 20260510155906 | 53 | 259 | 4.0 | 12.0 | 0.00 | 0.00 | 0.00 | 46 | 1018.6 |
| 20260510155806 | 53 | 262 | 4.0 | 10.0 | 0.00 | 0.00 | 0.00 | 48 | 1018.6 |
| 20260510155706 | 53 | 266 | 4.0 | 10.0 | 0.00 | 0.00 | 0.00 | 48 | 1018.6 |
| 20260510155606 | 52 | 266 | 4.0 | 10.0 | 0.00 | 0.00 | 0.00 | 48 | 1018.6 |
| 20260510155506 | 52 | 267 | 4.0 | 10.0 | 0.00 | 0.00 | 0.00 | 45 | 1018.5 |
| 20260510155406 | 52 | 264 | 4.0 | 9.0 | 0.00 | 0.00 | 0.00 | 45 | 1018.5 |
| 20260510155307 | 52 | 263 | 4.0 | 9.0 | 0.00 | 0.00 | 0.00 | 45 | 1018.5 |
| 20260510155206 | 52 | 262 | 4.0 | 9.0 | 0.00 | 0.00 | 0.00 | 45 | 1018.5 |
| 20260510155106 | 52 | 259 | 4.0 | 9.0 | 0.00 | 0.00 | 0.00 | 44 | 1018.5 |
| 20260510155007 | 52 | 257 | 4.0 | 9.0 | 0.00 | 0.00 | 0.00 | 45 | 1018.5 |
| 20260510154907 | 52 | 260 | 4.0 | 10.0 | 0.00 | 0.00 | 0.00 | 45 | 1018.6 |
| 20260510154806 | 52 | 258 | 4.0 | 10.0 | 0.00 | 0.00 | 0.00 | 47 | 1018.6 |
| 20260510154727 | 52 | 257 | 4.0 | 10.0 | 0.00 | 0.00 | 0.00 | 47 | 1018.5 |
| 20260510154606 | 52 | 256 | 4.0 | 10.0 | 0.00 | 0.00 | 0.00 | 47 | 1018.5 |
| 20260510154506 | 52 | 254 | 4.0 | 10.0 | 0.00 | 0.00 | 0.00 | 48 | 1018.6 |
| 20260510154406 | 52 | 255 | 4.0 | 10.0 | 0.00 | 0.00 | 0.00 | 48 | 1018.6 |
| 20260510154306 | 52 | 256 | 5.0 | 10.0 | 0.00 | 0.00 | 0.00 | 47 | 1018.6 |
| 20260510154206 | 52 | 257 | 5.0 | 10.0 | 0.00 | 0.00 | 0.00 | 47 | 1018.6 |
| 20260510154106 | 52 | 261 | 5.0 | 10.0 | 0.00 | 0.00 | 0.00 | 46 | 1018.6 |
| 20260510154006 | 52 | 266 | 5.0 | 10.0 | 0.00 | 0.00 | 0.00 | 45 | 1018.6 |
| 20260510153927 | 52 | 264 | 5.0 | 10.0 | 0.00 | 0.00 | 0.00 | 45 | 1018.6 |
| 20260510153806 | 52 | 261 | 5.0 | 12.0 | 0.00 | 0.00 | 0.00 | 48 | 1018.6 |
| 20260510153706 | 52 | 260 | 5.0 | 12.0 | 0.00 | 0.00 | 0.00 | 49 | 1018.5 |
| 20260510153627 | 51 | 261 | 5.0 | 12.0 | 0.00 | 0.00 | 0.00 | 49 | 1018.5 |
| 20260510153506 | 51 | 264 | 5.0 | 12.0 | 0.00 | 0.00 | 0.00 | 48 | 1018.6 |
| 20260510153406 | 52 | 266 | 5.0 | 12.0 | 0.00 | 0.00 | 0.00 | 46 | 1018.6 |
| 20260510153306 | 52 | 266 | 5.0 | 12.0 | 0.00 | 0.00 | 0.00 | 45 | 1018.6 |
| 20260510153206 | 52 | 264 | 4.0 | 12.0 | 0.00 | 0.00 | 0.00 | 47 | 1018.6 |
| 20260510153106 | 52 | 262 | 4.0 | 12.0 | 0.00 | 0.00 | 0.00 | 46 | 1018.5 |
| 20260510153006 | 52 | 259 | 4.0 | 12.0 | 0.00 | 0.00 | 0.00 | 47 | 1018.5 |
| 20260510152906 | 52 | 259 | 4.0 | 12.0 | 0.00 | 0.00 | 0.00 | 46 | 1018.5 |
| 20260510152806 | 52 | 261 | 4.0 | 9.0 | 0.00 | 0.00 | 0.00 | 47 | 1018.5 |
| 20260510152706 | 52 | 262 | 4.0 | 9.0 | 0.00 | 0.00 | 0.00 | 47 | 1018.5 |
| 20260510152627 | 52 | 261 | 4.0 | 9.0 | 0.00 | 0.00 | 0.00 | 46 | 1018.5 |
| 20260510152506 | 52 | 257 | 4.0 | 9.0 | 0.00 | 0.00 | 0.00 | 48 | 1018.5 |
| 20260510152406 | 52 | 257 | 4.0 | 9.0 | 0.00 | 0.00 | 0.00 | 49 | 1018.5 |
| 20260510152307 | 52 | 258 | 5.0 | 10.0 | 0.00 | 0.00 | 0.00 | 49 | 1018.5 |
| 20260510152206 | 52 | 259 | 5.0 | 10.0 | 0.00 | 0.00 | 0.00 | 50 | 1018.5 |
| 20260510152106 | 52 | 259 | 4.0 | 10.0 | 0.00 | 0.00 | 0.00 | 48 | 1018.5 |
| 20260510152006 | 52 | 259 | 5.0 | 10.0 | 0.00 | 0.00 | 0.00 | 48 | 1018.5 |
| 20260510151906 | 52 | 258 | 4.0 | 11.0 | 0.00 | 0.00 | 0.00 | 47 | 1018.5 |
| 20260510151806 | 52 | 256 | 4.0 | 11.0 | 0.00 | 0.00 | 0.00 | 47 | 1018.4 |
| 20260510151705 | 52 | 254 | 4.0 | 11.0 | 0.00 | 0.00 | 0.00 | 50 | 1018.4 |
| 20260510151606 | 52 | 254 | 4.0 | 11.0 | 0.00 | 0.00 | 0.00 | 49 | 1018.4 |
| 20260510151527 | 52 | 253 | 4.0 | 11.0 | 0.00 | 0.00 | 0.00 | 49 | 1018.4 |
| 20260510151406 | 52 | 249 | 5.0 | 11.0 | 0.00 | 0.00 | 0.00 | 49 | 1018.4 |
| 20260510151327 | 52 | 248 | 5.0 | 11.0 | 0.00 | 0.00 | 0.00 | 49 | 1018.4 |
| 20260510151206 | 52 | 249 | 4.0 | 11.0 | 0.00 | 0.00 | 0.00 | 48 | 1018.4 |
| 20260510151106 | 52 | 250 | 4.0 | 11.0 | 0.00 | 0.00 | 0.00 | 48 | 1018.4 |
| 20260510151006 | 52 | 254 | 4.0 | 11.0 | 0.00 | 0.00 | 0.00 | 48 | 1018.4 |
| 20260510150906 | 52 | 258 | 5.0 | 11.0 | 0.00 | 0.00 | 0.00 | 50 | 1018.3 |
| 20260510150806 | 52 | 260 | 5.0 | 11.0 | 0.00 | 0.00 | 0.00 | 50 | 1018.3 |
| 20260510150706 | 51 | 262 | 5.0 | 11.0 | 0.00 | 0.00 | 0.00 | 50 | 1018.3 |
| 20260510150606 | 51 | 262 | 5.0 | 11.0 | 0.00 | 0.00 | 0.00 | 49 | 1018.3 |
| 20260510150506 | 51 | 265 | 4.0 | 11.0 | 0.00 | 0.00 | 0.00 | 48 | 1018.3 |
| 20260510150406 | 51 | 267 | 4.0 | 8.0 | 0.00 | 0.00 | 0.00 | 48 | 1018.3 |
| 20260510150306 | 51 | 266 | 4.0 | 8.0 | 0.00 | 0.00 | 0.00 | 48 | 1018.2 |
| 20260510150206 | 51 | 264 | 4.0 | 8.0 | 0.00 | 0.00 | 0.00 | 48 | 1018.2 |
| 20260510150106 | 51 | 261 | 4.0 | 9.0 | 0.00 | 0.00 | 0.00 | 48 | 1018.2 |
| 20260510150027 | 51 | 259 | 4.0 | 9.0 | 0.00 | 0.00 | 0.00 | 49 | 1018.2 |
| 20260510145906 | 51 | 259 | 4.0 | 9.0 | 0.00 | 0.00 | 0.00 | 48 | 1018.2 |
| 20260510145827 | 51 | 263 | 4.0 | 9.0 | 0.00 | 0.00 | 0.00 | 48 | 1018.2 |
| 20260510145706 | 51 | 259 | 4.0 | 9.0 | 0.00 | 0.00 | 0.00 | 49 | 1018.2 |
| 20260510145606 | 51 | 258 | 4.0 | 9.0 | 0.00 | 0.00 | 0.00 | 50 | 1018.2 |
| 20260510145506 | 51 | 257 | 4.0 | 9.0 | 0.00 | 0.00 | 0.00 | 50 | 1018.2 |
| 20260510145406 | 51 | 260 | 4.0 | 9.0 | 0.00 | 0.00 | 0.00 | 50 | 1018.2 |
| 20260510145306 | 51 | 260 | 5.0 | 9.0 | 0.00 | 0.00 | 0.00 | 48 | 1018.2 |
| 20260510145205 | 51 | 257 | 5.0 | 10.0 | 0.00 | 0.00 | 0.00 | 48 | 1018.2 |
| 20260510145106 | 51 | 257 | 5.0 | 11.0 | 0.00 | 0.00 | 0.00 | 48 | 1018.2 |
| 20260510145006 | 51 | 253 | 5.0 | 11.0 | 0.00 | 0.00 | 0.00 | 48 | 1018.2 |
| 20260510144906 | 50 | 252 | 4.0 | 11.0 | 0.00 | 0.00 | 0.00 | 49 | 1018.2 |
| 20260510144806 | 50 | 249 | 4.0 | 11.0 | 0.00 | 0.00 | 0.00 | 49 | 1018.2 |
| 20260510144706 | 50 | 250 | 4.0 | 11.0 | 0.00 | 0.00 | 0.00 | 48 | 1018.2 |
| 20260510144626 | 50 | 250 | 4.0 | 11.0 | 0.00 | 0.00 | 0.00 | 48 | 1018.2 |
| 20260510144506 | 50 | 253 | 4.0 | 11.0 | 0.00 | 0.00 | 0.00 | 49 | 1018.1 |
| 20260510144406 | 50 | 252 | 4.0 | 11.0 | 0.00 | 0.00 | 0.00 | 48 | 1018.1 |
| 20260510144306 | 50 | 254 | 4.0 | 11.0 | 0.00 | 0.00 | 0.00 | 47 | 1018.1 |
| 20260510144206 | 51 | 254 | 4.0 | 11.0 | 0.00 | 0.00 | 0.00 | 49 | 1018.1 |
| 20260510144106 | 51 | 254 | 4.0 | 11.0 | 0.00 | 0.00 | 0.00 | 51 | 1018.1 |
| 20260510144006 | 51 | 256 | 4.0 | 11.0 | 0.00 | 0.00 | 0.00 | 50 | 1018.1 |
| 20260510143906 | 51 | 254 | 4.0 | 11.0 | 0.00 | 0.00 | 0.00 | 49 | 1018.1 |
| 20260510143806 | 51 | 253 | 4.0 | 11.0 | 0.00 | 0.00 | 0.00 | 49 | 1018.1 |
| 20260510143706 | 51 | 251 | 5.0 | 11.0 | 0.00 | 0.00 | 0.00 | 49 | 1018.1 |
| 20260510143606 | 51 | 252 | 5.0 | 11.0 | 0.00 | 0.00 | 0.00 | 49 | 1018.1 |
| 20260510143506 | 51 | 250 | 4.0 | 11.0 | 0.00 | 0.00 | 0.00 | 49 | 1018.0 |
| 20260510143406 | 51 | 248 | 4.0 | 11.0 | 0.00 | 0.00 | 0.00 | 50 | 1018.0 |
| 20260510143306 | 51 | 248 | 4.0 | 11.0 | 0.00 | 0.00 | 0.00 | 49 | 1017.9 |
| 20260510143205 | 51 | 252 | 3.0 | 11.0 | 0.00 | 0.00 | 0.00 | 50 | 1017.9 |
| 20260510143106 | 51 | 252 | 3.0 | 10.0 | 0.00 | 0.00 | 0.00 | 50 | 1017.9 |
| 20260510143006 | 51 | 251 | 3.0 | 10.0 | 0.00 | 0.00 | 0.00 | 49 | 1017.8 |
| 20260510142906 | 51 | 251 | 3.0 | 10.0 | 0.00 | 0.00 | 0.00 | 49 | 1017.8 |
| 20260510142806 | 51 | 249 | 3.0 | 10.0 | 0.00 | 0.00 | 0.00 | 49 | 1017.8 |
| 20260510142706 | 51 | 245 | 3.0 | 9.0 | 0.00 | 0.00 | 0.00 | 49 | 1017.8 |
| 20260510142606 | 51 | 243 | 3.0 | 9.0 | 0.00 | 0.00 | 0.00 | 50 | 1017.8 |
| 20260510142527 | 51 | 243 | 3.0 | 9.0 | 0.00 | 0.00 | 0.00 | 50 | 1017.7 |
| 20260510142406 | 51 | 246 | 3.0 | 9.0 | 0.00 | 0.00 | 0.00 | 50 | 1017.8 |
| 20260510142306 | 51 | 245 | 3.0 | 9.0 | 0.00 | 0.00 | 0.00 | 50 | 1017.8 |
| 20260510142206 | 51 | 245 | 3.0 | 9.0 | 0.00 | 0.00 | 0.00 | 49 | 1017.8 |
| 20260510142127 | 51 | 246 | 3.0 | 9.0 | 0.00 | 0.00 | 0.00 | 50 | 1017.8 |
| 20260510142006 | 51 | 246 | 4.0 | 9.0 | 0.00 | 0.00 | 0.00 | 50 | 1017.8 |
| 20260510141906 | 51 | 248 | 4.0 | 9.0 | 0.00 | 0.00 | 0.00 | 49 | 1017.8 |
| 20260510141827 | 51 | 249 | 4.0 | 9.0 | 0.00 | 0.00 | 0.00 | 50 | 1017.8 |
| 20260510141706 | 51 | 252 | 3.0 | 9.0 | 0.00 | 0.00 | 0.00 | 51 | 1017.7 |
| 20260510141605 | 50 | 255 | 3.0 | 7.0 | 0.00 | 0.00 | 0.00 | 50 | 1017.7 |
| 20260510141506 | 50 | 256 | 3.0 | 7.0 | 0.00 | 0.00 | 0.00 | 50 | 1017.7 |
| 20260510141406 | 50 | 256 | 3.0 | 7.0 | 0.00 | 0.00 | 0.00 | 50 | 1017.8 |
| 20260510141306 | 50 | 257 | 3.0 | 8.0 | 0.00 | 0.00 | 0.00 | 50 | 1017.8 |
| 20260510141206 | 50 | 255 | 3.0 | 8.0 | 0.00 | 0.00 | 0.00 | 51 | 1017.7 |
| 20260510141105 | 50 | 254 | 3.0 | 8.0 | 0.00 | 0.00 | 0.00 | 51 | 1017.7 |
| 20260510141005 | 50 | 252 | 3.0 | 8.0 | 0.00 | 0.00 | 0.00 | 50 | 1017.7 |
| 20260510140905 | 50 | 249 | 3.0 | 9.0 | 0.00 | 0.00 | 0.00 | 50 | 1017.7 |
| 20260510140806 | 50 | 251 | 3.0 | 9.0 | 0.00 | 0.00 | 0.00 | 50 | 1017.7 |
| 20260510140706 | 50 | 253 | 3.0 | 9.0 | 0.00 | 0.00 | 0.00 | 50 | 1017.7 |
| 20260510140606 | 50 | 250 | 3.0 | 9.0 | 0.00 | 0.00 | 0.00 | 49 | 1017.7 |
| 20260510140527 | 50 | 249 | 3.0 | 9.0 | 0.00 | 0.00 | 0.00 | 49 | 1017.7 |
| 20260510140405 | 51 | 250 | 3.0 | 9.0 | 0.00 | 0.00 | 0.00 | 50 | 1017.7 |
| 20260510140306 | 51 | 249 | 3.0 | 9.0 | 0.00 | 0.00 | 0.00 | 50 | 1017.7 |
| 20260510140207 | 51 | 250 | 3.0 | 9.0 | 0.00 | 0.00 | 0.00 | 51 | 1017.8 |
| 20260510140106 | 50 | 250 | 3.0 | 9.0 | 0.00 | 0.00 | 0.00 | 51 | 1017.7 |
| 20260510140005 | 50 | 252 | 2.0 | 9.0 | 0.00 | 0.00 | 0.00 | 50 | 1017.7 |
| 20260510135926 | 50 | 256 | 2.0 | 6.0 | 0.00 | 0.00 | 0.00 | 50 | 1017.7 |
| 20260510135806 | 50 | 258 | 2.0 | 6.0 | 0.00 | 0.00 | 0.00 | 50 | 1017.7 |
| 20260510135706 | 50 | 256 | 2.0 | 6.0 | 0.00 | 0.00 | 0.00 | 52 | 1017.7 |
| 20260510135606 | 50 | 258 | 2.0 | 6.0 | 0.00 | 0.00 | 0.00 | 51 | 1017.7 |
| 20260510135506 | 50 | 258 | 2.0 | 7.0 | 0.00 | 0.00 | 0.00 | 51 | 1017.7 |
| 20260510135406 | 50 | 257 | 2.0 | 7.0 | 0.00 | 0.00 | 0.00 | 53 | 1017.7 |
| 20260510135306 | 50 | 258 | 2.0 | 7.0 | 0.00 | 0.00 | 0.00 | 52 | 1017.7 |
| 20260510135205 | 50 | 258 | 2.0 | 7.0 | 0.00 | 0.00 | 0.00 | 51 | 1017.7 |
| 20260510135106 | 50 | 260 | 2.0 | 7.0 | 0.00 | 0.00 | 0.00 | 52 | 1017.7 |
| 20260510135006 | 50 | 258 | 2.0 | 7.0 | 0.00 | 0.00 | 0.00 | 52 | 1017.7 |
| 20260510134927 | 50 | 257 | 2.0 | 7.0 | 0.00 | 0.00 | 0.00 | 53 | 1017.7 |
| 20260510134827 | 50 | 253 | 2.0 | 7.0 | 0.00 | 0.00 | 0.00 | 54 | 1017.7 |
| 20260510134706 | 50 | 257 | 3.0 | 7.0 | 0.00 | 0.00 | 0.00 | 53 | 1017.6 |
| 20260510134605 | 50 | 256 | 3.0 | 10.0 | 0.00 | 0.00 | 0.00 | 54 | 1017.6 |
| 20260510134506 | 50 | 254 | 3.0 | 10.0 | 0.00 | 0.00 | 0.00 | 54 | 1017.6 |
| 20260510134406 | 50 | 254 | 3.0 | 10.0 | 0.00 | 0.00 | 0.00 | 54 | 1017.6 |
| 20260510134327 | 50 | 254 | 3.0 | 10.0 | 0.00 | 0.00 | 0.00 | 55 | 1017.6 |
| 20260510134205 | 50 | 253 | 3.0 | 10.0 | 0.00 | 0.00 | 0.00 | 55 | 1017.5 |
| 20260510134106 | 50 | 251 | 3.0 | 10.0 | 0.00 | 0.00 | 0.00 | 56 | 1017.5 |
| 20260510134028 | 50 | 251 | 3.0 | 10.0 | 0.00 | 0.00 | 0.00 | 56 | 1017.5 |
| 20260510133905 | 50 | 252 | 4.0 | 10.0 | 0.00 | 0.00 | 0.00 | 54 | 1017.6 |
| 20260510133805 | 50 | 250 | 3.0 | 10.0 | 0.00 | 0.00 | 0.00 | 54 | 1017.6 |
| 20260510133706 | 50 | 243 | 3.0 | 10.0 | 0.00 | 0.00 | 0.00 | 54 | 1017.6 |
| 20260510133606 | 50 | 242 | 3.0 | 8.0 | 0.00 | 0.00 | 0.00 | 56 | 1017.6 |
| 20260510133506 | 50 | 244 | 3.0 | 8.0 | 0.00 | 0.00 | 0.00 | 54 | 1017.6 |
| 20260510133406 | 50 | 244 | 3.0 | 8.0 | 0.00 | 0.00 | 0.00 | 54 | 1017.6 |
| 20260510133306 | 50 | 246 | 3.0 | 8.0 | 0.00 | 0.00 | 0.00 | 54 | 1017.6 |
| 20260510133206 | 50 | 247 | 3.0 | 8.0 | 0.00 | 0.00 | 0.00 | 54 | 1017.6 |
| 20260510133106 | 50 | 246 | 3.0 | 8.0 | 0.00 | 0.00 | 0.00 | 55 | 1017.6 |
| 20260510133027 | 50 | 244 | 3.0 | 8.0 | 0.00 | 0.00 | 0.00 | 55 | 1017.6 |
| 20260510132926 | 50 | 243 | 2.0 | 7.0 | 0.00 | 0.00 | 0.00 | 56 | 1017.5 |
| 20260510132806 | 50 | 244 | 2.0 | 7.0 | 0.00 | 0.00 | 0.00 | 58 | 1017.5 |
| 20260510132706 | 50 | 248 | 2.0 | 7.0 | 0.00 | 0.00 | 0.00 | 59 | 1017.5 |
| 20260510132606 | 50 | 248 | 2.0 | 7.0 | 0.00 | 0.00 | 0.00 | 59 | 1017.4 |
| 20260510132505 | 50 | 247 | 2.0 | 7.0 | 0.00 | 0.00 | 0.00 | 59 | 1017.4 |
| 20260510132406 | 50 | 246 | 2.0 | 7.0 | 0.00 | 0.00 | 0.00 | 58 | 1017.4 |
| 20260510132306 | 50 | 243 | 2.0 | 7.0 | 0.00 | 0.00 | 0.00 | 60 | 1017.4 |
| 20260510132205 | 50 | 242 | 2.0 | 4.0 | 0.00 | 0.00 | 0.00 | 60 | 1017.4 |
| 20260510132126 | 50 | 242 | 2.0 | 5.0 | 0.00 | 0.00 | 0.00 | 60 | 1017.4 |
| 20260510132006 | 50 | 244 | 2.0 | 7.0 | 0.00 | 0.00 | 0.00 | 60 | 1017.4 |
| 20260510131906 | 50 | 244 | 2.0 | 7.0 | 0.00 | 0.00 | 0.00 | 59 | 1017.4 |
| 20260510131806 | 50 | 242 | 2.0 | 7.0 | 0.00 | 0.00 | 0.00 | 59 | 1017.4 |
| 20260510131705 | 50 | 239 | 2.0 | 7.0 | 0.00 | 0.00 | 0.00 | 60 | 1017.4 |
| 20260510131606 | 50 | 237 | 2.0 | 7.0 | 0.00 | 0.00 | 0.00 | 61 | 1017.4 |
| 20260510131528 | 50 | 238 | 2.0 | 7.0 | 0.00 | 0.00 | 0.00 | 61 | 1017.4 |
| 20260510131427 | 49 | 238 | 2.0 | 7.0 | 0.00 | 0.00 | 0.00 | 60 | 1017.4 |
| 20260510131305 | 50 | 238 | 3.0 | 7.0 | 0.00 | 0.00 | 0.00 | 61 | 1017.4 |
| 20260510131205 | 50 | 238 | 3.0 | 7.0 | 0.00 | 0.00 | 0.00 | 61 | 1017.4 |
| 20260510131127 | 50 | 239 | 3.0 | 7.0 | 0.00 | 0.00 | 0.00 | 60 | 1017.4 |
| 20260510131006 | 50 | 235 | 2.0 | 6.0 | 0.00 | 0.00 | 0.00 | 61 | 1017.4 |
| 20260510130906 | 49 | 236 | 2.0 | 6.0 | 0.00 | 0.00 | 0.00 | 61 | 1017.4 |
| 20260510130805 | 49 | 233 | 2.0 | 5.0 | 0.00 | 0.00 | 0.00 | 62 | 1017.4 |
| 20260510130706 | 49 | 239 | 2.0 | 5.0 | 0.00 | 0.00 | 0.00 | 62 | 1017.4 |
| 20260510130627 | 49 | 241 | 2.0 | 5.0 | 0.00 | 0.00 | 0.00 | 62 | 1017.4 |
| 20260510130506 | 49 | 239 | 2.0 | 5.0 | 0.00 | 0.00 | 0.00 | 63 | 1017.4 |
| 20260510130406 | 49 | 240 | 2.0 | 5.0 | 0.00 | 0.00 | 0.00 | 63 | 1017.4 |
| 20260510130306 | 49 | 237 | 1.0 | 5.0 | 0.00 | 0.00 | 0.00 | 63 | 1017.4 |
| 20260510130205 | 49 | 236 | 2.0 | 4.0 | 0.00 | 0.00 | 0.00 | 62 | 1017.4 |
| 20260510130106 | 49 | 238 | 1.0 | 4.0 | 0.00 | 0.00 | 0.00 | 61 | 1017.4 |
| 20260510130006 | 49 | 238 | 2.0 | 4.0 | 0.00 | 0.00 | 0.00 | 61 | 1017.4 |
| 20260510125905 | 49 | 243 | 2.0 | 4.0 | 0.00 | 0.00 | 0.00 | 61 | 1017.4 |
| 20260510125806 | 48 | 246 | 2.0 | 5.0 | 0.00 | 0.00 | 0.00 | 61 | 1017.4 |
| 20260510125727 | 48 | 246 | 2.0 | 5.0 | 0.00 | 0.00 | 0.00 | 61 | 1017.3 |
| 20260510125627 | 48 | 246 | 1.0 | 5.0 | 0.00 | 0.00 | 0.00 | 61 | 1017.3 |
| 20260510125526 | 48 | 248 | 1.0 | 5.0 | 0.00 | 0.00 | 0.00 | 60 | 1017.3 |
| 20260510125405 | 48 | 249 | 1.0 | 5.0 | 0.00 | 0.00 | 0.00 | 61 | 1017.3 |
| 20260510125307 | 48 | 252 | 1.0 | 5.0 | 0.00 | 0.00 | 0.00 | 61 | 1017.3 |
| 20260510125206 | 48 | 254 | 1.0 | 5.0 | 0.00 | 0.00 | 0.00 | 63 | 1017.2 |
| 20260510125126 | 48 | 257 | 1.0 | 5.0 | 0.00 | 0.00 | 0.00 | 63 | 1017.2 |
| 20260510125006 | 48 | 257 | 1.0 | 5.0 | 0.00 | 0.00 | 0.00 | 64 | 1017.3 |
| 20260510124906 | 48 | 0 | 0.0 | 5.0 | 0.00 | 0.00 | 0.00 | 65 | 1017.2 |
| 20260510124827 | 48 | 0 | 0.0 | 5.0 | 0.00 | 0.00 | 0.00 | 66 | 1017.2 |
| 20260510124706 | 48 | 248 | 1.0 | 3.0 | 0.00 | 0.00 | 0.00 | 65 | 1017.1 |
| 20260510124606 | 48 | 252 | 1.0 | 3.0 | 0.00 | 0.00 | 0.00 | 66 | 1017.2 |
| 20260510124506 | 48 | 256 | 1.0 | 4.0 | 0.00 | 0.00 | 0.00 | 66 | 1017.2 |
| 20260510124406 | 48 | 257 | 1.0 | 4.0 | 0.00 | 0.00 | 0.00 | 67 | 1017.2 |
| 20260510124306 | 48 | 257 | 1.0 | 4.0 | 0.00 | 0.00 | 0.00 | 67 | 1017.2 |
| 20260510124226 | 47 | 257 | 1.0 | 4.0 | 0.00 | 0.00 | 0.00 | 67 | 1017.1 |
| 20260510124105 | 47 | 257 | 1.0 | 4.0 | 0.00 | 0.00 | 0.00 | 67 | 1017.1 |
| 20260510124006 | 47 | 257 | 1.0 | 4.0 | 0.00 | 0.00 | 0.00 | 67 | 1017.1 |
| 20260510123926 | 47 | 257 | 1.0 | 4.0 | 0.00 | 0.00 | 0.00 | 67 | 1017.1 |
| 20260510123805 | 47 | 0 | 0.0 | 4.0 | 0.00 | 0.00 | 0.00 | 67 | 1017.1 |
| 20260510123726 | 46 | 0 | 0.0 | 4.0 | 0.00 | 0.00 | 0.00 | 67 | 1017.1 |
| 20260510123606 | 46 | 0 | 0.0 | 4.0 | 0.00 | 0.00 | 0.00 | 67 | 1017.1 |
| 20260510123506 | 46 | 0 | 0.0 | 1.0 | 0.00 | 0.00 | 0.00 | 67 | 1017.1 |
| 20260510123405 | 46 | 0 | 0.0 | 1.0 | 0.00 | 0.00 | 0.00 | 67 | 1017.0 |
| 20260510123305 | 46 | 0 | 0.0 | 1.0 | 0.00 | 0.00 | 0.00 | 67 | 1017.0 |
| 20260510123205 | 46 | 0 | 0.0 | 1.0 | 0.00 | 0.00 | 0.00 | 68 | 1017.0 |
| 20260510123106 | 46 | 0 | 0.0 | 1.0 | 0.00 | 0.00 | 0.00 | 69 | 1017.0 |
| 20260510123006 | 45 | 0 | 0.0 | 1.0 | 0.00 | 0.00 | 0.00 | 69 | 1017.0 |
| 20260510122905 | 45 | 0 | 0.0 | 1.0 | 0.00 | 0.00 | 0.00 | 69 | 1017.0 |
| 20260510122805 | 45 | 0 | 0.0 | 1.0 | 0.00 | 0.00 | 0.00 | 69 | 1016.9 |
| 20260510122706 | 45 | 0 | 0.0 | 1.0 | 0.00 | 0.00 | 0.00 | 69 | 1016.9 |
| 20260510122605 | 44 | 0 | 0.0 | 1.0 | 0.00 | 0.00 | 0.00 | 69 | 1017.0 |
| 20260510122505 | 44 | 0 | 0.0 | 1.0 | 0.00 | 0.00 | 0.00 | 70 | 1017.0 |
| 20260510122405 | 44 | 0 | 0.0 | 1.0 | 0.00 | 0.00 | 0.00 | 71 | 1016.9 |
| 20260510122306 | 43 | 0 | 0.0 | 1.0 | 0.00 | 0.00 | 0.00 | 72 | 1016.9 |
| 20260510122227 | 43 | 0 | 0.0 | 1.0 | 0.00 | 0.00 | 0.00 | 72 | 1016.9 |
| 20260510122106 | 43 | 0 | 0.0 | 1.0 | 0.00 | 0.00 | 0.00 | 73 | 1016.9 |
| 20260510122005 | 42 | 0 | 0.0 | 1.0 | 0.00 | 0.00 | 0.00 | 73 | 1016.9 |
| 20260510121905 | 42 | 0 | 0.0 | 1.0 | 0.00 | 0.00 | 0.00 | 75 | 1016.9 |
| 20260510121805 | 42 | 0 | 0.0 | 1.0 | 0.00 | 0.00 | 0.00 | 76 | 1016.9 |
| 20260510121706 | 41 | 0 | 0.0 | 1.0 | 0.00 | 0.00 | 0.00 | 76 | 1016.9 |
| 20260510121606 | 41 | 0 | 0.0 | 1.0 | 0.00 | 0.00 | 0.00 | 76 | 1016.9 |
| 20260510121506 | 41 | 0 | 0.0 | 1.0 | 0.00 | 0.00 | 0.00 | 77 | 1016.9 |
| 20260510121405 | 41 | 0 | 0.0 | 1.0 | 0.00 | 0.00 | 0.00 | 77 | 1016.9 |
| 20260510121305 | 41 | 0 | 0.0 | 1.0 | 0.00 | 0.00 | 0.00 | 78 | 1016.8 |
| 20260510121206 | 40 | 0 | 0.0 | 1.0 | 0.00 | 0.00 | 0.00 | 79 | 1016.8 |
| 20260510121105 | 40 | 0 | 0.0 | 1.0 | 0.00 | 0.00 | 0.00 | 79 | 1016.8 |
| 20260510121005 | 40 | 0 | 0.0 | 1.0 | 0.00 | 0.00 | 0.00 | 80 | 1016.8 |
| 20260510120926 | 40 | 0 | 0.0 | 1.0 | 0.00 | 0.00 | 0.00 | 80 | 1016.8 |
| 20260510120805 | 40 | 0 | 0.0 | 1.0 | 0.00 | 0.00 | 0.00 | 81 | 1016.7 |
| 20260510120706 | 39 | 0 | 0.0 | 1.0 | 0.00 | 0.00 | 0.00 | 82 | 1016.7 |
| 20260510120606 | 39 | 0 | 0.0 | 1.0 | 0.00 | 0.00 | 0.00 | 82 | 1016.7 |
| 20260510120505 | 39 | 0 | 0.0 | 1.0 | 0.00 | 0.00 | 0.00 | 83 | 1016.7 |
| 20260510120405 | 38 | 0 | 0.0 | 1.0 | 0.00 | 0.00 | 0.00 | 84 | 1016.7 |
| 20260510120305 | 38 | 0 | 0.0 | 1.0 | 0.00 | 0.00 | 0.00 | 85 | 1016.7 |
| 20260510120205 | 38 | 0 | 0.0 | 1.0 | 0.00 | 0.00 | 0.00 | 85 | 1016.7 |
| 20260510120106 | 37 | 0 | 0.0 | 1.0 | 0.00 | 0.00 | 0.00 | 86 | 1016.6 |
| 20260510120006 | 37 | 0 | 0.0 | 0.0 | 0.00 | 0.00 | 0.00 | 87 | 1016.6 |
| 20260510115905 | 37 | 0 | 0.0 | 0.0 | 0.00 | 0.00 | 0.00 | 87 | 1016.6 |
| 20260510115805 | 37 | 0 | 0.0 | 0.0 | 0.00 | 0.00 | 0.00 | 87 | 1016.6 |
| 20260510115705 | 37 | 0 | 0.0 | 0.0 | 0.00 | 0.00 | 0.00 | 88 | 1016.6 |
| 20260510115606 | 36 | 0 | 0.0 | 0.0 | 0.00 | 0.00 | 0.00 | 88 | 1016.6 |
| 20260510115505 | 36 | 0 | 0.0 | 0.0 | 0.00 | 0.00 | 0.00 | 89 | 1016.5 |
| 20260510115405 | 36 | 0 | 0.0 | 0.0 | 0.00 | 0.00 | 0.00 | 89 | 1016.5 |
| 20260510115306 | 36 | 0 | 0.0 | 0.0 | 0.00 | 0.00 | 0.00 | 89 | 1016.4 |
| 20260510115206 | 36 | 0 | 0.0 | 0.0 | 0.00 | 0.00 | 0.00 | 90 | 1016.4 |
| 20260510115106 | 35 | 0 | 0.0 | 0.0 | 0.00 | 0.00 | 0.00 | 90 | 1016.4 |
| 20260510115005 | 35 | 0 | 0.0 | 0.0 | 0.00 | 0.00 | 0.00 | 90 | 1016.4 |
| 20260510114905 | 35 | 0 | 0.0 | 0.0 | 0.00 | 0.00 | 0.00 | 90 | 1016.4 |
| 20260510114805 | 34 | 0 | 0.0 | 0.0 | 0.00 | 0.00 | 0.00 | 91 | 1016.4 |
| 20260510114705 | 34 | 0 | 0.0 | 0.0 | 0.00 | 0.00 | 0.00 | 91 | 1016.4 |
| 20260510114605 | 34 | 0 | 0.0 | 0.0 | 0.00 | 0.00 | 0.00 | 91 | 1016.4 |
| 20260510114505 | 34 | 0 | 0.0 | 1.0 | 0.00 | 0.00 | 0.00 | 91 | 1016.5 |
| 20260510114406 | 34 | 0 | 0.0 | 1.0 | 0.00 | 0.00 | 0.00 | 91 | 1016.5 |
| 20260510114305 | 34 | 0 | 0.0 | 1.0 | 0.00 | 0.00 | 0.00 | 91 | 1016.5 |
| 20260510114205 | 34 | 0 | 0.0 | 1.0 | 0.00 | 0.00 | 0.00 | 91 | 1016.4 |
| 20260510114105 | 34 | 0 | 0.0 | 1.0 | 0.00 | 0.00 | 0.00 | 91 | 1016.4 |
| 20260510114005 | 34 | 0 | 0.0 | 1.0 | 0.00 | 0.00 | 0.00 | 91 | 1016.4 |
| 20260510113905 | 34 | 0 | 0.0 | 1.0 | 0.00 | 0.00 | 0.00 | 91 | 1016.4 |
| 20260510113805 | 33 | 0 | 0.0 | 1.0 | 0.00 | 0.00 | 0.00 | 91 | 1016.4 |
| 20260510113705 | 33 | 0 | 0.0 | 1.0 | 0.00 | 0.00 | 0.00 | 91 | 1016.3 |
| 20260510113606 | 33 | 0 | 0.0 | 1.0 | 0.00 | 0.00 | 0.00 | 91 | 1016.3 |
| 20260510113505 | 33 | 0 | 0.0 | 0.0 | 0.00 | 0.00 | 0.00 | 91 | 1016.3 |
| 20260510113426 | 33 | 0 | 0.0 | 0.0 | 0.00 | 0.00 | 0.00 | 91 | 1016.3 |
| 20260510113305 | 33 | 0 | 0.0 | 0.0 | 0.00 | 0.00 | 0.00 | 91 | 1016.3 |
| 20260510113205 | 33 | 0 | 0.0 | 0.0 | 0.00 | 0.00 | 0.00 | 91 | 1016.3 |
| 20260510113106 | 33 | 0 | 0.0 | 0.0 | 0.00 | 0.00 | 0.00 | 91 | 1016.3 |
| 20260510113006 | 33 | 0 | 0.0 | 0.0 | 0.00 | 0.00 | 0.00 | 90 | 1016.3 |
| 20260510112905 | 33 | 0 | 0.0 | 0.0 | 0.00 | 0.00 | 0.00 | 90 | 1016.3 |
| 20260510112805 | 33 | 0 | 0.0 | 0.0 | 0.00 | 0.00 | 0.00 | 91 | 1016.3 |
| 20260510112705 | 33 | 0 | 0.0 | 0.0 | 0.00 | 0.00 | 0.00 | 91 | 1016.3 |
| 20260510112605 | 33 | 0 | 0.0 | 0.0 | 0.00 | 0.00 | 0.00 | 91 | 1016.3 |
| 20260510112505 | 33 | 0 | 0.0 | 0.0 | 0.00 | 0.00 | 0.00 | 91 | 1016.3 |
| 20260510112405 | 33 | 0 | 0.0 | 0.0 | 0.00 | 0.00 | 0.00 | 91 | 1016.2 |
| 20260510112306 | 32 | 0 | 0.0 | 0.0 | 0.00 | 0.00 | 0.00 | 90 | 1016.2 |
| 20260510112205 | 32 | 0 | 0.0 | 0.0 | 0.00 | 0.00 | 0.00 | 90 | 1016.1 |
| 20260510112105 | 32 | 0 | 0.0 | 0.0 | 0.00 | 0.00 | 0.00 | 90 | 1016.1 |
| 20260510112005 | 32 | 0 | 0.0 | 0.0 | 0.00 | 0.00 | 0.00 | 90 | 1016.1 |
| 20260510111905 | 32 | 0 | 0.0 | 0.0 | 0.00 | 0.00 | 0.00 | 90 | 1016.1 |
| 20260510111805 | 32 | 0 | 0.0 | 0.0 | 0.00 | 0.00 | 0.00 | 90 | 1016.1 |
| 20260510111726 | 32 | 0 | 0.0 | 0.0 | 0.00 | 0.00 | 0.00 | 90 | 1016.1 |
| 20260510111606 | 32 | 0 | 0.0 | 0.0 | 0.00 | 0.00 | 0.00 | 89 | 1016.0 |
| 20260510111526 | 32 | 0 | 0.0 | 0.0 | 0.00 | 0.00 | 0.00 | 90 | 1016.0 |
| 20260510111405 | 32 | 0 | 0.0 | 0.0 | 0.00 | 0.00 | 0.00 | 90 | 1016.0 |
| 20260510111306 | 32 | 0 | 0.0 | 0.0 | 0.00 | 0.00 | 0.00 | 90 | 1016.0 |
| 20260510111205 | 32 | 0 | 0.0 | 0.0 | 0.00 | 0.00 | 0.00 | 90 | 1016.0 |
| 20260510111105 | 32 | 0 | 0.0 | 0.0 | 0.00 | 0.00 | 0.00 | 89 | 1015.9 |
| 20260510111005 | 32 | 0 | 0.0 | 0.0 | 0.00 | 0.00 | 0.00 | 89 | 1015.9 |
| 20260510110905 | 32 | 0 | 0.0 | 0.0 | 0.00 | 0.00 | 0.00 | 89 | 1015.9 |
| 20260510110805 | 32 | 0 | 0.0 | 0.0 | 0.00 | 0.00 | 0.00 | 89 | 1015.9 |
| 20260510110705 | 32 | 0 | 0.0 | 0.0 | 0.00 | 0.00 | 0.00 | 89 | 1015.9 |
| 20260510110605 | 32 | 0 | 0.0 | 0.0 | 0.00 | 0.00 | 0.00 | 89 | 1015.9 |
| 20260510110505 | 32 | 0 | 0.0 | 0.0 | 0.00 | 0.00 | 0.00 | 89 | 1015.9 |
| 20260510110405 | 32 | 0 | 0.0 | 0.0 | 0.00 | 0.00 | 0.00 | 89 | 1015.9 |
| 20260510110326 | 32 | 0 | 0.0 | 0.0 | 0.00 | 0.00 | 0.00 | 89 | 1015.9 |
| 20260510110205 | 32 | 0 | 0.0 | 0.0 | 0.00 | 0.00 | 0.00 | 89 | 1016.0 |
| 20260510110105 | 32 | 0 | 0.0 | 0.0 | 0.00 | 0.00 | 0.00 | 89 | 1015.9 |
| 20260510110005 | 32 | 0 | 0.0 | 0.0 | 0.00 | 0.00 | 0.00 | 89 | 1015.9 |
| 20260510105905 | 32 | 0 | 0.0 | 0.0 | 0.00 | 0.00 | 0.00 | 89 | 1015.9 |
| 20260510105805 | 32 | 0 | 0.0 | 0.0 | 0.00 | 0.00 | 0.00 | 89 | 1015.9 |
| 20260510105705 | 32 | 0 | 0.0 | 0.0 | 0.00 | 0.00 | 0.00 | 89 | 1015.9 |
| 20260510105605 | 32 | 0 | 0.0 | 0.0 | 0.00 | 0.00 | 0.00 | 89 | 1015.9 |
| 20260510105505 | 32 | 0 | 0.0 | 0.0 | 0.00 | 0.00 | 0.00 | 89 | 1015.9 |
| 20260510105405 | 32 | 0 | 0.0 | 0.0 | 0.00 | 0.00 | 0.00 | 89 | 1015.9 |
| 20260510105326 | 32 | 0 | 0.0 | 0.0 | 0.00 | 0.00 | 0.00 | 89 | 1015.9 |
| 20260510105205 | 32 | 0 | 0.0 | 0.0 | 0.00 | 0.00 | 0.00 | 89 | 1015.9 |
| 20260510105105 | 32 | 0 | 0.0 | 0.0 | 0.00 | 0.00 | 0.00 | 89 | 1015.8 |
| 20260510105005 | 32 | 0 | 0.0 | 0.0 | 0.00 | 0.00 | 0.00 | 89 | 1015.8 |
| 20260510104905 | 32 | 0 | 0.0 | 0.0 | 0.00 | 0.00 | 0.00 | 89 | 1015.8 |
| 20260510104805 | 32 | 0 | 0.0 | 0.0 | 0.00 | 0.00 | 0.00 | 89 | 1015.8 |
| 20260510104706 | 32 | 0 | 0.0 | 0.0 | 0.00 | 0.00 | 0.00 | 89 | 1015.8 |
| 20260510104605 | 32 | 0 | 0.0 | 0.0 | 0.00 | 0.00 | 0.00 | 89 | 1015.7 |
| 20260510104505 | 32 | 0 | 0.0 | 0.0 | 0.00 | 0.00 | 0.00 | 89 | 1015.7 |
| 20260510104405 | 32 | 0 | 0.0 | 0.0 | 0.00 | 0.00 | 0.00 | 89 | 1015.7 |
| 20260510104305 | 32 | 0 | 0.0 | 0.0 | 0.00 | 0.00 | 0.00 | 89 | 1015.6 |
| 20260510104205 | 32 | 0 | 0.0 | 0.0 | 0.00 | 0.00 | 0.00 | 89 | 1015.6 |
| 20260510104105 | 32 | 0 | 0.0 | 0.0 | 0.00 | 0.00 | 0.00 | 89 | 1015.6 |
| 20260510104005 | 32 | 0 | 0.0 | 0.0 | 0.00 | 0.00 | 0.00 | 89 | 1015.5 |
| 20260510103905 | 32 | 0 | 0.0 | 0.0 | 0.00 | 0.00 | 0.00 | 89 | 1015.5 |
| 20260510103826 | 32 | 0 | 0.0 | 0.0 | 0.00 | 0.00 | 0.00 | 89 | 1015.5 |
| 20260510103727 | 32 | 0 | 0.0 | 0.0 | 0.00 | 0.00 | 0.00 | 88 | 1015.5 |
| 20260510103605 | 32 | 0 | 0.0 | 0.0 | 0.00 | 0.00 | 0.00 | 88 | 1015.5 |
| 20260510103505 | 32 | 0 | 0.0 | 0.0 | 0.00 | 0.00 | 0.00 | 88 | 1015.5 |
| 20260510103405 | 32 | 0 | 0.0 | 0.0 | 0.00 | 0.00 | 0.00 | 88 | 1015.5 |
| 20260510103305 | 32 | 0 | 0.0 | 0.0 | 0.00 | 0.00 | 0.00 | 88 | 1015.4 |
| 20260510103205 | 32 | 0 | 0.0 | 0.0 | 0.00 | 0.00 | 0.00 | 88 | 1015.5 |
| 20260510103105 | 32 | 0 | 0.0 | 0.0 | 0.00 | 0.00 | 0.00 | 88 | 1015.5 |
| 20260510103005 | 32 | 0 | 0.0 | 0.0 | 0.00 | 0.00 | 0.00 | 88 | 1015.4 |
| 20260510102905 | 32 | 0 | 0.0 | 0.0 | 0.00 | 0.00 | 0.00 | 88 | 1015.4 |
| 20260510102805 | 32 | 0 | 0.0 | 0.0 | 0.00 | 0.00 | 0.00 | 88 | 1015.4 |
| 20260510102705 | 32 | 0 | 0.0 | 0.0 | 0.00 | 0.00 | 0.00 | 88 | 1015.4 |
| 20260510102605 | 32 | 0 | 0.0 | 0.0 | 0.00 | 0.00 | 0.00 | 88 | 1015.4 |
| 20260510102505 | 33 | 0 | 0.0 | 0.0 | 0.00 | 0.00 | 0.00 | 88 | 1015.3 |
| 20260510102405 | 33 | 0 | 0.0 | 0.0 | 0.00 | 0.00 | 0.00 | 88 | 1015.3 |
| 20260510102306 | 33 | 0 | 0.0 | 0.0 | 0.00 | 0.00 | 0.00 | 88 | 1015.3 |
| 20260510102226 | 33 | 0 | 0.0 | 0.0 | 0.00 | 0.00 | 0.00 | 88 | 1015.3 |
| 20260510102105 | 33 | 0 | 0.0 | 0.0 | 0.00 | 0.00 | 0.00 | 88 | 1015.3 |
| 20260510102005 | 33 | 0 | 0.0 | 0.0 | 0.00 | 0.00 | 0.00 | 88 | 1015.2 |
| 20260510101906 | 33 | 0 | 0.0 | 0.0 | 0.00 | 0.00 | 0.00 | 88 | 1015.2 |
| 20260510101827 | 33 | 0 | 0.0 | 0.0 | 0.00 | 0.00 | 0.00 | 88 | 1015.2 |
| 20260510101705 | 32 | 0 | 0.0 | 0.0 | 0.00 | 0.00 | 0.00 | 88 | 1015.2 |
| 20260510101605 | 32 | 0 | 0.0 | 0.0 | 0.00 | 0.00 | 0.00 | 88 | 1015.2 |
| 20260510101526 | 32 | 0 | 0.0 | 0.0 | 0.00 | 0.00 | 0.00 | 88 | 1015.2 |
| 20260510101405 | 32 | 0 | 0.0 | 0.0 | 0.00 | 0.00 | 0.00 | 88 | 1015.1 |
| 20260510101326 | 32 | 0 | 0.0 | 0.0 | 0.00 | 0.00 | 0.00 | 88 | 1015.1 |
| 20260510101205 | 32 | 0 | 0.0 | 0.0 | 0.00 | 0.00 | 0.00 | 88 | 1015.1 |
| 20260510101105 | 32 | 0 | 0.0 | 0.0 | 0.00 | 0.00 | 0.00 | 88 | 1015.1 |
| 20260510101029 | 32 | 0 | 0.0 | 0.0 | 0.00 | 0.00 | 0.00 | 88 | 1015.1 |
| 20260510100905 | 32 | 0 | 0.0 | 0.0 | 0.00 | 0.00 | 0.00 | 87 | 1015.1 |
| 20260510100805 | 32 | 0 | 0.0 | 0.0 | 0.00 | 0.00 | 0.00 | 87 | 1015.1 |
| 20260510100726 | 32 | 0 | 0.0 | 0.0 | 0.00 | 0.00 | 0.00 | 87 | 1015.0 |
| 20260510100605 | 32 | 0 | 0.0 | 0.0 | 0.00 | 0.00 | 0.00 | 87 | 1015.0 |
| 20260510100505 | 32 | 0 | 0.0 | 0.0 | 0.00 | 0.00 | 0.00 | 87 | 1015.0 |
| 20260510100405 | 32 | 0 | 0.0 | 0.0 | 0.00 | 0.00 | 0.00 | 87 | 1015.0 |
| 20260510100326 | 32 | 0 | 0.0 | 0.0 | 0.00 | 0.00 | 0.00 | 87 | 1015.0 |
| 20260510100226 | 32 | 0 | 0.0 | 0.0 | 0.00 | 0.00 | 0.00 | 87 | 1014.9 |
| 20260510100105 | 32 | 0 | 0.0 | 0.0 | 0.00 | 0.00 | 0.00 | 87 | 1014.9 |
| 20260510100006 | 32 | 0 | 0.0 | 0.0 | 0.00 | 0.00 | 0.00 | 87 | 1014.9 |
| 20260510095905 | 32 | 0 | 0.0 | 0.0 | 0.00 | 0.00 | 0.00 | 87 | 1014.8 |
| 20260510095805 | 32 | 0 | 0.0 | 0.0 | 0.00 | 0.00 | 0.00 | 86 | 1014.8 |
| 20260510095726 | 33 | 0 | 0.0 | 0.0 | 0.00 | 0.00 | 0.00 | 86 | 1014.8 |
| 20260510095606 | 33 | 0 | 0.0 | 0.0 | 0.00 | 0.00 | 0.00 | 86 | 1014.8 |
| 20260510095505 | 33 | 0 | 0.0 | 0.0 | 0.00 | 0.00 | 0.00 | 86 | 1014.8 |
| 20260510095405 | 33 | 0 | 0.0 | 0.0 | 0.00 | 0.00 | 0.00 | 86 | 1014.8 |
| 20260510095306 | 33 | 0 | 0.0 | 0.0 | 0.00 | 0.00 | 0.00 | 86 | 1014.8 |
| 20260510095226 | 33 | 0 | 0.0 | 0.0 | 0.00 | 0.00 | 0.00 | 86 | 1014.8 |
| 20260510095105 | 33 | 0 | 0.0 | 0.0 | 0.00 | 0.00 | 0.00 | 86 | 1014.8 |
| 20260510095005 | 33 | 0 | 0.0 | 0.0 | 0.00 | 0.00 | 0.00 | 86 | 1014.8 |
| 20260510094905 | 33 | 0 | 0.0 | 0.0 | 0.00 | 0.00 | 0.00 | 86 | 1014.7 |
| 20260510094805 | 33 | 0 | 0.0 | 0.0 | 0.00 | 0.00 | 0.00 | 86 | 1014.7 |
| 20260510094705 | 33 | 0 | 0.0 | 0.0 | 0.00 | 0.00 | 0.00 | 85 | 1014.8 |
| 20260510094605 | 33 | 0 | 0.0 | 0.0 | 0.00 | 0.00 | 0.00 | 85 | 1014.7 |
| 20260510094505 | 33 | 0 | 0.0 | 0.0 | 0.00 | 0.00 | 0.00 | 85 | 1014.7 |
| 20260510094405 | 34 | 0 | 0.0 | 0.0 | 0.00 | 0.00 | 0.00 | 85 | 1014.7 |
| 20260510094326 | 34 | 0 | 0.0 | 0.0 | 0.00 | 0.00 | 0.00 | 85 | 1014.7 |
| 20260510094226 | 34 | 0 | 0.0 | 0.0 | 0.00 | 0.00 | 0.00 | 85 | 1014.7 |
| 20260510094105 | 34 | 0 | 0.0 | 0.0 | 0.00 | 0.00 | 0.00 | 85 | 1014.7 |
| 20260510094005 | 34 | 0 | 0.0 | 0.0 | 0.00 | 0.00 | 0.00 | 85 | 1014.7 |
| 20260510093905 | 34 | 0 | 0.0 | 0.0 | 0.00 | 0.00 | 0.00 | 85 | 1014.6 |
| 20260510093805 | 34 | 0 | 0.0 | 0.0 | 0.00 | 0.00 | 0.00 | 85 | 1014.6 |
| 20260510093705 | 34 | 0 | 0.0 | 0.0 | 0.00 | 0.00 | 0.00 | 85 | 1014.6 |
| 20260510093626 | 34 | 0 | 0.0 | 0.0 | 0.00 | 0.00 | 0.00 | 85 | 1014.6 |
| 20260510093505 | 34 | 0 | 0.0 | 0.0 | 0.00 | 0.00 | 0.00 | 85 | 1014.6 |
| 20260510093405 | 34 | 0 | 0.0 | 0.0 | 0.00 | 0.00 | 0.00 | 85 | 1014.5 |
| 20260510093305 | 34 | 0 | 0.0 | 0.0 | 0.00 | 0.00 | 0.00 | 85 | 1014.5 |
| 20260510093226 | 34 | 0 | 0.0 | 0.0 | 0.00 | 0.00 | 0.00 | 85 | 1014.5 |
| 20260510093105 | 34 | 0 | 0.0 | 0.0 | 0.00 | 0.00 | 0.00 | 85 | 1014.5 |
| 20260510093005 | 34 | 0 | 0.0 | 0.0 | 0.00 | 0.00 | 0.00 | 85 | 1014.5 |
| 20260510092905 | 34 | 0 | 0.0 | 0.0 | 0.00 | 0.00 | 0.00 | 85 | 1014.5 |
| 20260510092805 | 34 | 0 | 0.0 | 0.0 | 0.00 | 0.00 | 0.00 | 85 | 1014.5 |
| 20260510092705 | 34 | 0 | 0.0 | 0.0 | 0.00 | 0.00 | 0.00 | 85 | 1014.5 |
| 20260510092605 | 34 | 0 | 0.0 | 0.0 | 0.00 | 0.00 | 0.00 | 85 | 1014.5 |
| 20260510092505 | 34 | 0 | 0.0 | 0.0 | 0.00 | 0.00 | 0.00 | 85 | 1014.5 |
| 20260510092405 | 34 | 0 | 0.0 | 0.0 | 0.00 | 0.00 | 0.00 | 85 | 1014.5 |
| 20260510092326 | 34 | 0 | 0.0 | 0.0 | 0.00 | 0.00 | 0.00 | 85 | 1014.5 |
| 20260510092226 | 34 | 0 | 0.0 | 0.0 | 0.00 | 0.00 | 0.00 | 85 | 1014.5 |
| 20260510092105 | 34 | 0 | 0.0 | 0.0 | 0.00 | 0.00 | 0.00 | 85 | 1014.5 |
| 20260510092005 | 34 | 0 | 0.0 | 0.0 | 0.00 | 0.00 | 0.00 | 85 | 1014.5 |
| 20260510091926 | 34 | 0 | 0.0 | 0.0 | 0.00 | 0.00 | 0.00 | 85 | 1014.5 |
| 20260510091805 | 34 | 0 | 0.0 | 0.0 | 0.00 | 0.00 | 0.00 | 85 | 1014.5 |
| 20260510091705 | 34 | 0 | 0.0 | 0.0 | 0.00 | 0.00 | 0.00 | 85 | 1014.5 |
| 20260510091605 | 34 | 0 | 0.0 | 0.0 | 0.00 | 0.00 | 0.00 | 84 | 1014.5 |
| 20260510091505 | 34 | 0 | 0.0 | 0.0 | 0.00 | 0.00 | 0.00 | 84 | 1014.5 |
| 20260510091405 | 34 | 0 | 0.0 | 0.0 | 0.00 | 0.00 | 0.00 | 84 | 1014.5 |
| 20260510091305 | 34 | 0 | 0.0 | 0.0 | 0.00 | 0.00 | 0.00 | 84 | 1014.4 |
| 20260510091205 | 34 | 0 | 0.0 | 0.0 | 0.00 | 0.00 | 0.00 | 84 | 1014.4 |
| 20260510091105 | 34 | 0 | 0.0 | 0.0 | 0.00 | 0.00 | 0.00 | 84 | 1014.4 |
| 20260510091005 | 34 | 0 | 0.0 | 0.0 | 0.00 | 0.00 | 0.00 | 84 | 1014.4 |
| 20260510090905 | 34 | 0 | 0.0 | 0.0 | 0.00 | 0.00 | 0.00 | 84 | 1014.4 |
| 20260510090826 | 34 | 0 | 0.0 | 0.0 | 0.00 | 0.00 | 0.00 | 84 | 1014.4 |
| 20260510090705 | 34 | 0 | 0.0 | 0.0 | 0.00 | 0.00 | 0.00 | 84 | 1014.4 |
| 20260510090605 | 35 | 0 | 0.0 | 0.0 | 0.00 | 0.00 | 0.00 | 84 | 1014.4 |
| 20260510090505 | 35 | 0 | 0.0 | 0.0 | 0.00 | 0.00 | 0.00 | 83 | 1014.4 |
| 20260510090405 | 35 | 0 | 0.0 | 0.0 | 0.00 | 0.00 | 0.00 | 84 | 1014.3 |
| 20260510090305 | 35 | 0 | 0.0 | 0.0 | 0.00 | 0.00 | 0.00 | 84 | 1014.3 |
| 20260510090205 | 35 | 0 | 0.0 | 0.0 | 0.00 | 0.00 | 0.00 | 84 | 1014.4 |
| 20260510090105 | 35 | 0 | 0.0 | 0.0 | 0.00 | 0.00 | 0.00 | 84 | 1014.4 |
| 20260510090005 | 35 | 0 | 0.0 | 0.0 | 0.00 | 0.00 | 0.00 | 84 | 1014.4 |
| 20260510085905 | 35 | 0 | 0.0 | 0.0 | 0.00 | 0.00 | 0.00 | 84 | 1014.3 |
| 20260510085805 | 35 | 0 | 0.0 | 0.0 | 0.00 | 0.00 | 0.00 | 84 | 1014.3 |
| 20260510085705 | 35 | 0 | 0.0 | 0.0 | 0.00 | 0.00 | 0.00 | 84 | 1014.3 |
| 20260510085605 | 35 | 0 | 0.0 | 0.0 | 0.00 | 0.00 | 0.00 | 84 | 1014.3 |
| 20260510085505 | 35 | 0 | 0.0 | 0.0 | 0.00 | 0.00 | 0.00 | 84 | 1014.3 |
| 20260510085405 | 35 | 0 | 0.0 | 0.0 | 0.00 | 0.00 | 0.00 | 84 | 1014.3 |
| 20260510085326 | 35 | 0 | 0.0 | 0.0 | 0.00 | 0.00 | 0.00 | 85 | 1014.3 |
| 20260510085205 | 35 | 0 | 0.0 | 0.0 | 0.00 | 0.00 | 0.00 | 85 | 1014.2 |
| 20260510085126 | 35 | 0 | 0.0 | 0.0 | 0.00 | 0.00 | 0.00 | 85 | 1014.2 |
| 20260510085005 | 35 | 0 | 0.0 | 0.0 | 0.00 | 0.00 | 0.00 | 85 | 1014.2 |
| 20260510084926 | 35 | 0 | 0.0 | 0.0 | 0.00 | 0.00 | 0.00 | 85 | 1014.3 |
| 20260510084805 | 35 | 0 | 0.0 | 0.0 | 0.00 | 0.00 | 0.00 | 85 | 1014.3 |
| 20260510084705 | 34 | 0 | 0.0 | 0.0 | 0.00 | 0.00 | 0.00 | 84 | 1014.2 |
| 20260510084605 | 34 | 0 | 0.0 | 0.0 | 0.00 | 0.00 | 0.00 | 84 | 1014.2 |
| 20260510084526 | 34 | 0 | 0.0 | 0.0 | 0.00 | 0.00 | 0.00 | 84 | 1014.2 |
| 20260510084405 | 34 | 0 | 0.0 | 0.0 | 0.00 | 0.00 | 0.00 | 84 | 1014.2 |
| 20260510084326 | 34 | 0 | 0.0 | 0.0 | 0.00 | 0.00 | 0.00 | 84 | 1014.2 |
| 20260510084205 | 35 | 0 | 0.0 | 0.0 | 0.00 | 0.00 | 0.00 | 83 | 1014.2 |
| 20260510084105 | 35 | 0 | 0.0 | 0.0 | 0.00 | 0.00 | 0.00 | 83 | 1014.1 |
| 20260510084005 | 35 | 0 | 0.0 | 0.0 | 0.00 | 0.00 | 0.00 | 83 | 1014.1 |
| 20260510083926 | 35 | 0 | 0.0 | 0.0 | 0.00 | 0.00 | 0.00 | 83 | 1014.1 |
| 20260510083805 | 35 | 0 | 0.0 | 0.0 | 0.00 | 0.00 | 0.00 | 83 | 1014.0 |
| 20260510083705 | 35 | 0 | 0.0 | 0.0 | 0.00 | 0.00 | 0.00 | 83 | 1014.0 |
| 20260510083626 | 35 | 0 | 0.0 | 0.0 | 0.00 | 0.00 | 0.00 | 83 | 1014.0 |
| 20260510083526 | 35 | 0 | 0.0 | 0.0 | 0.00 | 0.00 | 0.00 | 83 | 1014.0 |
| 20260510083405 | 35 | 0 | 0.0 | 0.0 | 0.00 | 0.00 | 0.00 | 83 | 1013.9 |
| 20260510083305 | 35 | 0 | 0.0 | 0.0 | 0.00 | 0.00 | 0.00 | 83 | 1013.9 |
| 20260510083205 | 35 | 0 | 0.0 | 0.0 | 0.00 | 0.00 | 0.00 | 82 | 1013.9 |
| 20260510083126 | 35 | 0 | 0.0 | 0.0 | 0.00 | 0.00 | 0.00 | 82 | 1013.9 |
| 20260510083026 | 35 | 0 | 0.0 | 0.0 | 0.00 | 0.00 | 0.00 | 82 | 1013.9 |
| 20260510082905 | 35 | 0 | 0.0 | 0.0 | 0.00 | 0.00 | 0.00 | 82 | 1013.9 |
| 20260510082826 | 35 | 0 | 0.0 | 0.0 | 0.00 | 0.00 | 0.00 | 82 | 1013.9 |
| 20260510082705 | 35 | 0 | 0.0 | 0.0 | 0.00 | 0.00 | 0.00 | 81 | 1013.9 |
| 20260510082626 | 35 | 0 | 0.0 | 0.0 | 0.00 | 0.00 | 0.00 | 81 | 1013.9 |
| 20260510082526 | 36 | 0 | 0.0 | 0.0 | 0.00 | 0.00 | 0.00 | 81 | 1013.9 |
| 20260510082405 | 36 | 0 | 0.0 | 0.0 | 0.00 | 0.00 | 0.00 | 80 | 1013.8 |
| 20260510082307 | 36 | 0 | 0.0 | 0.0 | 0.00 | 0.00 | 0.00 | 80 | 1013.8 |
| 20260510082205 | 36 | 0 | 0.0 | 0.0 | 0.00 | 0.00 | 0.00 | 80 | 1013.8 |
| 20260510082105 | 36 | 0 | 0.0 | 0.0 | 0.00 | 0.00 | 0.00 | 80 | 1013.7 |
| 20260510082005 | 36 | 0 | 0.0 | 0.0 | 0.00 | 0.00 | 0.00 | 80 | 1013.7 |
| 20260510081905 | 36 | 0 | 0.0 | 0.0 | 0.00 | 0.00 | 0.00 | 80 | 1013.7 |
| 20260510081805 | 36 | 0 | 0.0 | 0.0 | 0.00 | 0.00 | 0.00 | 80 | 1013.7 |
| 20260510081705 | 36 | 0 | 0.0 | 0.0 | 0.00 | 0.00 | 0.00 | 80 | 1013.7 |
| 20260510081626 | 36 | 0 | 0.0 | 0.0 | 0.00 | 0.00 | 0.00 | 80 | 1013.7 |
| 20260510081505 | 36 | 0 | 0.0 | 0.0 | 0.00 | 0.00 | 0.00 | 80 | 1013.6 |
| 20260510081405 | 36 | 0 | 0.0 | 0.0 | 0.00 | 0.00 | 0.00 | 80 | 1013.6 |
| 20260510081305 | 36 | 0 | 0.0 | 0.0 | 0.00 | 0.00 | 0.00 | 80 | 1013.6 |
| 20260510081205 | 36 | 0 | 0.0 | 0.0 | 0.00 | 0.00 | 0.00 | 80 | 1013.5 |
| 20260510081106 | 37 | 0 | 0.0 | 0.0 | 0.00 | 0.00 | 0.00 | 80 | 1013.5 |
| 20260510081005 | 37 | 0 | 0.0 | 0.0 | 0.00 | 0.00 | 0.00 | 80 | 1013.6 |
| 20260510080926 | 37 | 0 | 0.0 | 0.0 | 0.00 | 0.00 | 0.00 | 80 | 1013.6 |
| 20260510080805 | 37 | 0 | 0.0 | 0.0 | 0.00 | 0.00 | 0.00 | 80 | 1013.6 |
| 20260510080705 | 37 | 0 | 0.0 | 0.0 | 0.00 | 0.00 | 0.00 | 80 | 1013.5 |
| 20260510080605 | 37 | 0 | 0.0 | 0.0 | 0.00 | 0.00 | 0.00 | 79 | 1013.5 |
| 20260510080505 | 37 | 0 | 0.0 | 0.0 | 0.00 | 0.00 | 0.00 | 79 | 1013.4 |
| 20260510080405 | 37 | 0 | 0.0 | 0.0 | 0.00 | 0.00 | 0.00 | 79 | 1013.4 |
| 20260510080305 | 37 | 0 | 0.0 | 0.0 | 0.00 | 0.00 | 0.00 | 79 | 1013.4 |
| 20260510080205 | 37 | 0 | 0.0 | 0.0 | 0.00 | 0.00 | 0.00 | 79 | 1013.4 |
| 20260510080105 | 37 | 0 | 0.0 | 0.0 | 0.00 | 0.00 | 0.00 | 79 | 1013.4 |
| 20260510080005 | 37 | 0 | 0.0 | 0.0 | 0.00 | 0.00 | 0.00 | 79 | 1013.4 |
| 20260510075905 | 37 | 0 | 0.0 | 0.0 | 0.00 | 0.00 | 0.00 | 79 | 1013.4 |
| 20260510075805 | 37 | 0 | 0.0 | 0.0 | 0.00 | 0.00 | 0.00 | 78 | 1013.4 |
| 20260510075705 | 37 | 0 | 0.0 | 0.0 | 0.00 | 0.00 | 0.00 | 78 | 1013.4 |
| 20260510075605 | 37 | 0 | 0.0 | 0.0 | 0.00 | 0.00 | 0.00 | 78 | 1013.4 |
| 20260510075505 | 37 | 0 | 0.0 | 0.0 | 0.00 | 0.00 | 0.00 | 78 | 1013.3 |
| 20260510075405 | 37 | 0 | 0.0 | 0.0 | 0.00 | 0.00 | 0.00 | 78 | 1013.3 |
| 20260510075306 | 37 | 0 | 0.0 | 0.0 | 0.00 | 0.00 | 0.00 | 78 | 1013.3 |
| 20260510075205 | 38 | 0 | 0.0 | 0.0 | 0.00 | 0.00 | 0.00 | 77 | 1013.3 |
| 20260510075105 | 38 | 0 | 0.0 | 0.0 | 0.00 | 0.00 | 0.00 | 77 | 1013.3 |
| 20260510075005 | 38 | 0 | 0.0 | 0.0 | 0.00 | 0.00 | 0.00 | 77 | 1013.2 |
| 20260510074905 | 38 | 0 | 0.0 | 0.0 | 0.00 | 0.00 | 0.00 | 76 | 1013.3 |
| 20260510074805 | 38 | 0 | 0.0 | 0.0 | 0.00 | 0.00 | 0.00 | 76 | 1013.3 |
| 20260510074726 | 38 | 0 | 0.0 | 0.0 | 0.00 | 0.00 | 0.00 | 76 | 1013.3 |
| 20260510074604 | 38 | 0 | 0.0 | 0.0 | 0.00 | 0.00 | 0.00 | 76 | 1013.3 |
| 20260510074526 | 38 | 0 | 0.0 | 0.0 | 0.00 | 0.00 | 0.00 | 76 | 1013.2 |
| 20260510074405 | 38 | 0 | 0.0 | 0.0 | 0.00 | 0.00 | 0.00 | 76 | 1013.2 |
| 20260510074305 | 38 | 0 | 0.0 | 0.0 | 0.00 | 0.00 | 0.00 | 75 | 1013.2 |
| 20260510074205 | 39 | 0 | 0.0 | 0.0 | 0.00 | 0.00 | 0.00 | 75 | 1013.2 |
| 20260510074105 | 39 | 0 | 0.0 | 0.0 | 0.00 | 0.00 | 0.00 | 75 | 1013.2 |
| 20260510074026 | 39 | 0 | 0.0 | 0.0 | 0.00 | 0.00 | 0.00 | 75 | 1013.1 |
| 20260510073905 | 39 | 0 | 0.0 | 0.0 | 0.00 | 0.00 | 0.00 | 74 | 1013.1 |
| 20260510073805 | 39 | 0 | 0.0 | 0.0 | 0.00 | 0.00 | 0.00 | 74 | 1013.1 |
| 20260510073705 | 39 | 0 | 0.0 | 0.0 | 0.00 | 0.00 | 0.00 | 74 | 1013.0 |
| 20260510073605 | 39 | 0 | 0.0 | 0.0 | 0.00 | 0.00 | 0.00 | 74 | 1013.0 |
| 20260510073505 | 39 | 0 | 0.0 | 0.0 | 0.00 | 0.00 | 0.00 | 74 | 1013.0 |
| 20260510073405 | 39 | 0 | 0.0 | 0.0 | 0.00 | 0.00 | 0.00 | 74 | 1013.0 |
| 20260510073326 | 39 | 0 | 0.0 | 0.0 | 0.00 | 0.00 | 0.00 | 74 | 1013.0 |
| 20260510073226 | 39 | 0 | 0.0 | 0.0 | 0.00 | 0.00 | 0.00 | 74 | 1013.0 |
| 20260510073105 | 40 | 0 | 0.0 | 0.0 | 0.00 | 0.00 | 0.00 | 74 | 1013.0 |
| 20260510073005 | 40 | 0 | 0.0 | 0.0 | 0.00 | 0.00 | 0.00 | 74 | 1013.0 |
| 20260510072905 | 40 | 0 | 0.0 | 0.0 | 0.00 | 0.00 | 0.00 | 74 | 1013.0 |
| 20260510072825 | 40 | 0 | 0.0 | 0.0 | 0.00 | 0.00 | 0.00 | 74 | 1013.0 |
| 20260510072705 | 40 | 0 | 0.0 | 0.0 | 0.00 | 0.00 | 0.00 | 73 | 1012.9 |
| 20260510072626 | 40 | 0 | 0.0 | 0.0 | 0.00 | 0.00 | 0.00 | 73 | 1012.9 |
| 20260510072505 | 40 | 0 | 0.0 | 0.0 | 0.00 | 0.00 | 0.00 | 73 | 1013.0 |
| 20260510072405 | 40 | 0 | 0.0 | 0.0 | 0.00 | 0.00 | 0.00 | 73 | 1012.9 |
| 20260510072326 | 40 | 0 | 0.0 | 0.0 | 0.00 | 0.00 | 0.00 | 73 | 1012.9 |
| 20260510072205 | 40 | 0 | 0.0 | 0.0 | 0.00 | 0.00 | 0.00 | 73 | 1012.9 |
| 20260510072105 | 40 | 0 | 0.0 | 0.0 | 0.00 | 0.00 | 0.00 | 73 | 1012.9 |
| 20260510072005 | 40 | 0 | 0.0 | 0.0 | 0.00 | 0.00 | 0.00 | 73 | 1012.9 |
| 20260510071904 | 40 | 0 | 0.0 | 0.0 | 0.00 | 0.00 | 0.00 | 73 | 1012.8 |
| 20260510071805 | 40 | 0 | 0.0 | 0.0 | 0.00 | 0.00 | 0.00 | 72 | 1012.8 |
| 20260510071705 | 40 | 0 | 0.0 | 0.0 | 0.00 | 0.00 | 0.00 | 72 | 1012.8 |
| 20260510071605 | 40 | 0 | 0.0 | 0.0 | 0.00 | 0.00 | 0.00 | 72 | 1012.8 |
| 20260510071526 | 40 | 0 | 0.0 | 0.0 | 0.00 | 0.00 | 0.00 | 72 | 1012.8 |
| 20260510071425 | 40 | 0 | 0.0 | 0.0 | 0.00 | 0.00 | 0.00 | 73 | 1012.8 |
| 20260510071305 | 40 | 0 | 0.0 | 0.0 | 0.00 | 0.00 | 0.00 | 73 | 1012.8 |
| 20260510071205 | 40 | 0 | 0.0 | 0.0 | 0.00 | 0.00 | 0.00 | 73 | 1012.8 |
| 20260510071126 | 40 | 0 | 0.0 | 0.0 | 0.00 | 0.00 | 0.00 | 73 | 1012.7 |
| 20260510071026 | 40 | 0 | 0.0 | 0.0 | 0.00 | 0.00 | 0.00 | 73 | 1012.7 |
| 20260510070905 | 40 | 0 | 0.0 | 0.0 | 0.00 | 0.00 | 0.00 | 73 | 1012.7 |
| 20260510070804 | 40 | 0 | 0.0 | 0.0 | 0.00 | 0.00 | 0.00 | 73 | 1012.7 |
| 20260510070705 | 40 | 0 | 0.0 | 0.0 | 0.00 | 0.00 | 0.00 | 73 | 1012.7 |
| 20260510070605 | 40 | 0 | 0.0 | 0.0 | 0.00 | 0.00 | 0.00 | 73 | 1012.7 |
| 20260510070505 | 40 | 0 | 0.0 | 0.0 | 0.00 | 0.00 | 0.00 | 73 | 1012.7 |
| 20260510070405 | 40 | 0 | 0.0 | 0.0 | 0.00 | 0.00 | 0.00 | 73 | 1012.7 |
| 20260510070305 | 40 | 0 | 0.0 | 0.0 | 0.00 | 0.00 | 0.00 | 72 | 1012.7 |
| 20260510070205 | 40 | 0 | 0.0 | 0.0 | 0.00 | 0.00 | 0.00 | 72 | 1012.7 |
| 20260510070105 | 40 | 0 | 0.0 | 1.0 | 0.00 | 0.00 | 0.00 | 72 | 1012.7 |
| 20260510070005 | 40 | 0 | 0.0 | 1.0 | 0.00 | 0.00 | 0.00 | 72 | 1012.6 |
| 20260510065905 | 40 | 0 | 0.0 | 1.0 | 0.00 | 0.00 | 0.00 | 72 | 1012.6 |
| 20260510065825 | 40 | 0 | 0.0 | 1.0 | 0.00 | 0.00 | 0.00 | 72 | 1012.7 |
| 20260510065705 | 40 | 0 | 0.0 | 1.0 | 0.00 | 0.00 | 0.00 | 72 | 1012.7 |
| 20260510065605 | 41 | 0 | 0.0 | 1.0 | 0.00 | 0.00 | 0.00 | 72 | 1012.7 |
| 20260510065505 | 41 | 0 | 0.0 | 1.0 | 0.00 | 0.00 | 0.00 | 72 | 1012.6 |
| 20260510065405 | 41 | 0 | 0.0 | 1.0 | 0.00 | 0.00 | 0.00 | 72 | 1012.6 |
| 20260510065306 | 41 | 0 | 0.0 | 1.0 | 0.00 | 0.00 | 0.00 | 72 | 1012.6 |
| 20260510065205 | 41 | 0 | 0.0 | 1.0 | 0.00 | 0.00 | 0.00 | 72 | 1012.6 |
| 20260510065105 | 41 | 0 | 0.0 | 0.0 | 0.00 | 0.00 | 0.00 | 72 | 1012.6 |
| 20260510065026 | 41 | 0 | 0.0 | 0.0 | 0.00 | 0.00 | 0.00 | 72 | 1012.6 |
| 20260510064905 | 41 | 0 | 0.0 | 0.0 | 0.00 | 0.00 | 0.00 | 72 | 1012.6 |
| 20260510064805 | 41 | 0 | 0.0 | 0.0 | 0.00 | 0.00 | 0.00 | 72 | 1012.5 |
| 20260510064705 | 41 | 0 | 0.0 | 0.0 | 0.00 | 0.00 | 0.00 | 72 | 1012.6 |
| 20260510064606 | 41 | 0 | 0.0 | 0.0 | 0.00 | 0.00 | 0.00 | 72 | 1012.6 |
| 20260510064505 | 41 | 0 | 0.0 | 0.0 | 0.00 | 0.00 | 0.00 | 72 | 1012.5 |
| 20260510064404 | 41 | 0 | 0.0 | 0.0 | 0.00 | 0.00 | 0.00 | 71 | 1012.5 |
| 20260510064305 | 41 | 0 | 0.0 | 0.0 | 0.00 | 0.00 | 0.00 | 71 | 1012.5 |
| 20260510064205 | 41 | 0 | 0.0 | 0.0 | 0.00 | 0.00 | 0.00 | 71 | 1012.5 |
| 20260510064105 | 41 | 0 | 0.0 | 0.0 | 0.00 | 0.00 | 0.00 | 71 | 1012.5 |
| 20260510064026 | 41 | 0 | 0.0 | 0.0 | 0.00 | 0.00 | 0.00 | 71 | 1012.5 |
| 20260510063905 | 41 | 0 | 0.0 | 0.0 | 0.00 | 0.00 | 0.00 | 70 | 1012.5 |
| 20260510063805 | 42 | 0 | 0.0 | 0.0 | 0.00 | 0.00 | 0.00 | 70 | 1012.4 |
| 20260510063705 | 42 | 0 | 0.0 | 0.0 | 0.00 | 0.00 | 0.00 | 70 | 1012.5 |
| 20260510063605 | 42 | 0 | 0.0 | 0.0 | 0.00 | 0.00 | 0.00 | 70 | 1012.5 |
| 20260510063504 | 42 | 0 | 0.0 | 0.0 | 0.00 | 0.00 | 0.00 | 70 | 1012.4 |
| 20260510063405 | 42 | 0 | 0.0 | 0.0 | 0.00 | 0.00 | 0.00 | 70 | 1012.4 |
| 20260510063305 | 42 | 0 | 0.0 | 0.0 | 0.00 | 0.00 | 0.00 | 70 | 1012.5 |
| 20260510063205 | 42 | 0 | 0.0 | 0.0 | 0.00 | 0.00 | 0.00 | 70 | 1012.5 |
| 20260510063104 | 42 | 0 | 0.0 | 0.0 | 0.00 | 0.00 | 0.00 | 70 | 1012.5 |
| 20260510063004 | 42 | 0 | 0.0 | 0.0 | 0.00 | 0.00 | 0.00 | 70 | 1012.4 |
| 20260510062905 | 42 | 0 | 0.0 | 0.0 | 0.00 | 0.00 | 0.00 | 69 | 1012.5 |
| 20260510062805 | 42 | 0 | 0.0 | 0.0 | 0.00 | 0.00 | 0.00 | 69 | 1012.5 |
| 20260510062705 | 42 | 0 | 0.0 | 0.0 | 0.00 | 0.00 | 0.00 | 68 | 1012.5 |
| 20260510062604 | 42 | 0 | 0.0 | 0.0 | 0.00 | 0.00 | 0.00 | 68 | 1012.5 |
| 20260510062505 | 42 | 0 | 0.0 | 0.0 | 0.00 | 0.00 | 0.00 | 68 | 1012.5 |
| 20260510062405 | 42 | 0 | 0.0 | 0.0 | 0.00 | 0.00 | 0.00 | 68 | 1012.5 |
| 20260510062307 | 42 | 0 | 0.0 | 0.0 | 0.00 | 0.00 | 0.00 | 68 | 1012.5 |
| 20260510062205 | 42 | 0 | 0.0 | 0.0 | 0.00 | 0.00 | 0.00 | 68 | 1012.5 |
| 20260510062104 | 42 | 0 | 0.0 | 0.0 | 0.00 | 0.00 | 0.00 | 68 | 1012.5 |
| 20260510062026 | 43 | 0 | 0.0 | 0.0 | 0.00 | 0.00 | 0.00 | 68 | 1012.4 |
| 20260510061905 | 43 | 0 | 0.0 | 0.0 | 0.00 | 0.00 | 0.00 | 68 | 1012.4 |
| 20260510061805 | 43 | 0 | 0.0 | 0.0 | 0.00 | 0.00 | 0.00 | 68 | 1012.4 |
| 20260510061705 | 43 | 0 | 0.0 | 0.0 | 0.00 | 0.00 | 0.00 | 68 | 1012.3 |
| 20260510061605 | 43 | 0 | 0.0 | 0.0 | 0.00 | 0.00 | 0.00 | 68 | 1012.3 |
| 20260510061505 | 43 | 0 | 0.0 | 0.0 | 0.00 | 0.00 | 0.00 | 68 | 1012.3 |
| 20260510061405 | 43 | 0 | 0.0 | 0.0 | 0.00 | 0.00 | 0.00 | 68 | 1012.4 |
| 20260510061304 | 43 | 0 | 0.0 | 0.0 | 0.00 | 0.00 | 0.00 | 67 | 1012.4 |
| 20260510061204 | 43 | 0 | 0.0 | 0.0 | 0.00 | 0.00 | 0.00 | 67 | 1012.3 |
| 20260510061104 | 43 | 0 | 0.0 | 0.0 | 0.00 | 0.00 | 0.00 | 67 | 1012.3 |
| 20260510061005 | 43 | 0 | 0.0 | 0.0 | 0.00 | 0.00 | 0.00 | 67 | 1012.3 |
| 20260510060905 | 43 | 0 | 0.0 | 0.0 | 0.00 | 0.00 | 0.00 | 67 | 1012.3 |
| 20260510060804 | 43 | 0 | 0.0 | 0.0 | 0.00 | 0.00 | 0.00 | 67 | 1012.3 |
| 20260510060704 | 43 | 0 | 0.0 | 0.0 | 0.00 | 0.00 | 0.00 | 67 | 1012.3 |
| 20260510060605 | 43 | 0 | 0.0 | 0.0 | 0.00 | 0.00 | 0.00 | 66 | 1012.3 |
| 20260510060526 | 43 | 0 | 0.0 | 0.0 | 0.00 | 0.00 | 0.00 | 66 | 1012.3 |
| 20260510060405 | 43 | 0 | 0.0 | 0.0 | 0.00 | 0.00 | 0.00 | 66 | 1012.3 |
| 20260510060325 | 43 | 0 | 0.0 | 0.0 | 0.00 | 0.00 | 0.00 | 66 | 1012.3 |
| 20260510060205 | 44 | 0 | 0.0 | 0.0 | 0.00 | 0.00 | 0.00 | 66 | 1012.2 |
| 20260510060105 | 44 | 0 | 0.0 | 0.0 | 0.00 | 0.00 | 0.00 | 66 | 1012.2 |
| 20260510060026 | 44 | 0 | 0.0 | 0.0 | 0.00 | 0.00 | 0.00 | 66 | 1012.2 |
| 20260510055905 | 44 | 0 | 0.0 | 0.0 | 0.00 | 0.00 | 0.00 | 66 | 1012.2 |
| 20260510055805 | 44 | 0 | 0.0 | 0.0 | 0.00 | 0.00 | 0.00 | 66 | 1012.2 |
| 20260510055725 | 44 | 0 | 0.0 | 0.0 | 0.00 | 0.00 | 0.00 | 66 | 1012.1 |
| 20260510055606 | 44 | 0 | 0.0 | 0.0 | 0.00 | 0.00 | 0.00 | 66 | 1012.2 |
| 20260510055505 | 44 | 0 | 0.0 | 0.0 | 0.00 | 0.00 | 0.00 | 66 | 1012.2 |
| 20260510055405 | 44 | 0 | 0.0 | 0.0 | 0.00 | 0.00 | 0.00 | 65 | 1012.2 |
| 20260510055306 | 44 | 0 | 0.0 | 1.0 | 0.00 | 0.00 | 0.00 | 65 | 1012.3 |
| 20260510055205 | 44 | 0 | 0.0 | 1.0 | 0.00 | 0.00 | 0.00 | 65 | 1012.3 |
| 20260510055105 | 44 | 0 | 0.0 | 1.0 | 0.00 | 0.00 | 0.00 | 65 | 1012.3 |
| 20260510055005 | 45 | 0 | 0.0 | 1.0 | 0.00 | 0.00 | 0.00 | 65 | 1012.3 |
| 20260510054904 | 45 | 0 | 0.0 | 1.0 | 0.00 | 0.00 | 0.00 | 65 | 1012.2 |
| 20260510054804 | 45 | 0 | 0.0 | 1.0 | 0.00 | 0.00 | 0.00 | 65 | 1012.2 |
| 20260510054705 | 45 | 0 | 0.0 | 1.0 | 0.00 | 0.00 | 0.00 | 65 | 1012.2 |
| 20260510054605 | 45 | 0 | 0.0 | 1.0 | 0.00 | 0.00 | 0.00 | 64 | 1012.3 |
| 20260510054504 | 45 | 0 | 0.0 | 1.0 | 0.00 | 0.00 | 0.00 | 64 | 1012.3 |
| 20260510054404 | 45 | 0 | 0.0 | 1.0 | 0.00 | 0.00 | 0.00 | 64 | 1012.2 |
| 20260510054305 | 45 | 0 | 0.0 | 2.0 | 0.00 | 0.00 | 0.00 | 64 | 1012.2 |
| 20260510054205 | 45 | 0 | 0.0 | 2.0 | 0.00 | 0.00 | 0.00 | 64 | 1012.2 |
| 20260510054105 | 45 | 0 | 0.0 | 2.0 | 0.00 | 0.00 | 0.00 | 64 | 1012.2 |
| 20260510054005 | 45 | 0 | 0.0 | 2.0 | 0.00 | 0.00 | 0.00 | 64 | 1012.2 |
| 20260510053905 | 45 | 0 | 0.0 | 2.0 | 0.00 | 0.00 | 0.00 | 64 | 1012.2 |
| 20260510053826 | 45 | 0 | 0.0 | 2.0 | 0.00 | 0.00 | 0.00 | 64 | 1012.2 |
| 20260510053705 | 45 | 0 | 0.0 | 2.0 | 0.00 | 0.00 | 0.00 | 64 | 1012.2 |
| 20260510053604 | 45 | 0 | 0.0 | 2.0 | 0.00 | 0.00 | 0.00 | 64 | 1012.2 |
| 20260510053504 | 46 | 0 | 0.0 | 2.0 | 0.00 | 0.00 | 0.00 | 63 | 1012.1 |
| 20260510053404 | 46 | 0 | 0.0 | 3.0 | 0.00 | 0.00 | 0.00 | 63 | 1012.1 |
| 20260510053326 | 46 | 0 | 0.0 | 3.0 | 0.00 | 0.00 | 0.00 | 63 | 1012.2 |
| 20260510053226 | 46 | 0 | 0.0 | 3.0 | 0.00 | 0.00 | 0.00 | 63 | 1012.2 |
| 20260510053104 | 46 | 0 | 0.0 | 3.0 | 0.00 | 0.00 | 0.00 | 63 | 1012.1 |
| 20260510053004 | 46 | 0 | 0.0 | 3.0 | 0.00 | 0.00 | 0.00 | 63 | 1012.1 |
| 20260510052925 | 46 | 0 | 0.0 | 3.0 | 0.00 | 0.00 | 0.00 | 63 | 1012.1 |
| 20260510052804 | 46 | 0 | 0.0 | 3.0 | 0.00 | 0.00 | 0.00 | 63 | 1012.1 |
| 20260510052726 | 46 | 0 | 0.0 | 3.0 | 0.00 | 0.00 | 0.00 | 63 | 1012.1 |
| 20260510052604 | 46 | 0 | 0.0 | 3.0 | 0.00 | 0.00 | 0.00 | 62 | 1012.1 |
| 20260510052525 | 46 | 0 | 0.0 | 3.0 | 0.00 | 0.00 | 0.00 | 63 | 1012.1 |
| 20260510052425 | 46 | 0 | 0.0 | 1.0 | 0.00 | 0.00 | 0.00 | 63 | 1012.2 |
| 20260510052306 | 46 | 0 | 0.0 | 1.0 | 0.00 | 0.00 | 0.00 | 63 | 1012.1 |
| 20260510052205 | 46 | 0 | 0.0 | 1.0 | 0.00 | 0.00 | 0.00 | 63 | 1012.1 |
| 20260510052105 | 46 | 0 | 0.0 | 1.0 | 0.00 | 0.00 | 0.00 | 63 | 1012.1 |
| 20260510052004 | 46 | 0 | 0.0 | 1.0 | 0.00 | 0.00 | 0.00 | 63 | 1012.1 |
| 20260510051904 | 46 | 0 | 0.0 | 1.0 | 0.00 | 0.00 | 0.00 | 63 | 1012.1 |
| 20260510051804 | 46 | 0 | 0.0 | 1.0 | 0.00 | 0.00 | 0.00 | 63 | 1012.0 |
| 20260510051705 | 46 | 0 | 0.0 | 1.0 | 0.00 | 0.00 | 0.00 | 62 | 1012.1 |
| 20260510051605 | 46 | 0 | 0.0 | 1.0 | 0.00 | 0.00 | 0.00 | 62 | 1012.1 |
| 20260510051505 | 46 | 0 | 0.0 | 1.0 | 0.00 | 0.00 | 0.00 | 62 | 1012.0 |
| 20260510051404 | 46 | 0 | 0.0 | 2.0 | 0.00 | 0.00 | 0.00 | 62 | 1012.0 |
| 20260510051305 | 46 | 0 | 0.0 | 3.0 | 0.00 | 0.00 | 0.00 | 62 | 1012.0 |
| 20260510051205 | 46 | 0 | 0.0 | 3.0 | 0.00 | 0.00 | 0.00 | 62 | 1012.0 |
| 20260510051105 | 47 | 0 | 0.0 | 3.0 | 0.00 | 0.00 | 0.00 | 62 | 1012.0 |
| 20260510051025 | 47 | 0 | 0.0 | 3.0 | 0.00 | 0.00 | 0.00 | 62 | 1011.9 |
| 20260510050905 | 47 | 0 | 0.0 | 3.0 | 0.00 | 0.00 | 0.00 | 62 | 1011.9 |
| 20260510050805 | 47 | 0 | 0.0 | 3.0 | 0.00 | 0.00 | 0.00 | 61 | 1011.9 |
| 20260510050704 | 47 | 0 | 0.0 | 3.0 | 0.00 | 0.00 | 0.00 | 61 | 1011.9 |
| 20260510050604 | 47 | 0 | 0.0 | 3.0 | 0.00 | 0.00 | 0.00 | 61 | 1011.9 |
| 20260510050504 | 47 | 0 | 0.0 | 3.0 | 0.00 | 0.00 | 0.00 | 61 | 1011.9 |
| 20260510050404 | 47 | 0 | 0.0 | 3.0 | 0.00 | 0.00 | 0.00 | 61 | 1011.8 |
| 20260510050305 | 47 | 0 | 0.0 | 3.0 | 0.00 | 0.00 | 0.00 | 61 | 1011.8 |
| 20260510050205 | 47 | 0 | 0.0 | 3.0 | 0.00 | 0.00 | 0.00 | 61 | 1011.8 |
| 20260510050104 | 47 | 0 | 0.0 | 3.0 | 0.00 | 0.00 | 0.00 | 61 | 1011.8 |
| 20260510050005 | 47 | 0 | 0.0 | 3.0 | 0.00 | 0.00 | 0.00 | 61 | 1011.7 |
| 20260510045904 | 47 | 0 | 0.0 | 3.0 | 0.00 | 0.00 | 0.00 | 61 | 1011.7 |
| 20260510045805 | 47 | 0 | 0.0 | 3.0 | 0.00 | 0.00 | 0.00 | 61 | 1011.7 |
| 20260510045726 | 47 | 0 | 0.0 | 3.0 | 0.00 | 0.00 | 0.00 | 61 | 1011.7 |
| 20260510045605 | 47 | 0 | 0.0 | 3.0 | 0.00 | 0.00 | 0.00 | 61 | 1011.7 |
| 20260510045525 | 47 | 0 | 0.0 | 3.0 | 0.00 | 0.00 | 0.00 | 61 | 1011.6 |
| 20260510045404 | 47 | 0 | 0.0 | 4.0 | 0.00 | 0.00 | 0.00 | 60 | 1011.6 |
| 20260510045306 | 47 | 349 | 1.0 | 4.0 | 0.00 | 0.00 | 0.00 | 60 | 1011.6 |
| 20260510045204 | 47 | 338 | 1.0 | 4.0 | 0.00 | 0.00 | 0.00 | 61 | 1011.5 |
| 20260510045104 | 47 | 340 | 1.0 | 4.0 | 0.00 | 0.00 | 0.00 | 60 | 1011.5 |
| 20260510045004 | 48 | 340 | 1.0 | 4.0 | 0.00 | 0.00 | 0.00 | 60 | 1011.5 |
| 20260510044925 | 48 | 341 | 1.0 | 4.0 | 0.00 | 0.00 | 0.00 | 60 | 1011.5 |
| 20260510044805 | 48 | 342 | 1.0 | 4.0 | 0.00 | 0.00 | 0.00 | 61 | 1011.5 |
| 20260510044704 | 48 | 343 | 1.0 | 4.0 | 0.00 | 0.00 | 0.00 | 61 | 1011.4 |
| 20260510044604 | 48 | 344 | 1.0 | 4.0 | 0.00 | 0.00 | 0.00 | 60 | 1011.4 |
| 20260510044525 | 48 | 343 | 1.0 | 4.0 | 0.00 | 0.00 | 0.00 | 60 | 1011.4 |
| 20260510044404 | 48 | 345 | 1.0 | 4.0 | 0.00 | 0.00 | 0.00 | 61 | 1011.3 |
| 20260510044304 | 48 | 0 | 0.0 | 4.0 | 0.00 | 0.00 | 0.00 | 61 | 1011.3 |
| 20260510044204 | 47 | 0 | 0.0 | 4.0 | 0.00 | 0.00 | 0.00 | 61 | 1011.3 |
| 20260510044125 | 47 | 0 | 0.0 | 4.0 | 0.00 | 0.00 | 0.00 | 61 | 1011.3 |
| 20260510044004 | 47 | 0 | 0.0 | 4.0 | 0.00 | 0.00 | 0.00 | 61 | 1011.2 |
| 20260510043905 | 47 | 0 | 0.0 | 4.0 | 0.00 | 0.00 | 0.00 | 61 | 1011.1 |
| 20260510043804 | 47 | 0 | 0.0 | 4.0 | 0.00 | 0.00 | 0.00 | 62 | 1011.1 |
| 20260510043704 | 47 | 0 | 0.0 | 4.0 | 0.00 | 0.00 | 0.00 | 62 | 1011.1 |
| 20260510043625 | 47 | 0 | 0.0 | 4.0 | 0.00 | 0.00 | 0.00 | 62 | 1011.1 |
| 20260510043504 | 47 | 0 | 0.0 | 4.0 | 0.00 | 0.00 | 0.00 | 62 | 1011.1 |
| 20260510043405 | 47 | 0 | 0.0 | 4.0 | 0.00 | 0.00 | 0.00 | 63 | 1010.9 |
| 20260510043304 | 47 | 0 | 0.0 | 2.0 | 0.00 | 0.00 | 0.00 | 63 | 1010.9 |
| 20260510043204 | 47 | 0 | 0.0 | 1.0 | 0.00 | 0.00 | 0.00 | 63 | 1010.9 |
| 20260510043104 | 47 | 0 | 0.0 | 1.0 | 0.00 | 0.00 | 0.00 | 63 | 1010.9 |
| 20260510043005 | 47 | 0 | 0.0 | 1.0 | 0.00 | 0.00 | 0.00 | 63 | 1010.9 |
| 20260510042926 | 47 | 0 | 0.0 | 1.0 | 0.00 | 0.00 | 0.00 | 63 | 1010.8 |
| 20260510042804 | 47 | 0 | 0.0 | 3.0 | 0.00 | 0.00 | 0.00 | 63 | 1010.8 |
| 20260510042725 | 47 | 0 | 0.0 | 3.0 | 0.00 | 0.00 | 0.00 | 63 | 1010.8 |
| 20260510042604 | 47 | 0 | 0.0 | 3.0 | 0.00 | 0.00 | 0.00 | 63 | 1010.7 |
| 20260510042526 | 47 | 0 | 0.0 | 3.0 | 0.00 | 0.00 | 0.00 | 63 | 1010.7 |
| 20260510042405 | 47 | 0 | 0.0 | 3.0 | 0.00 | 0.00 | 0.00 | 63 | 1010.7 |
| 20260510042326 | 47 | 0 | 0.0 | 3.0 | 0.00 | 0.00 | 0.00 | 63 | 1010.7 |
| 20260510042204 | 47 | 0 | 0.0 | 3.0 | 0.00 | 0.00 | 0.00 | 64 | 1010.6 |
| 20260510042104 | 47 | 0 | 0.0 | 3.0 | 0.00 | 0.00 | 0.00 | 64 | 1010.6 |
| 20260510042005 | 47 | 0 | 0.0 | 3.0 | 0.00 | 0.00 | 0.00 | 64 | 1010.6 |
| 20260510041905 | 47 | 0 | 0.0 | 3.0 | 0.00 | 0.00 | 0.00 | 64 | 1010.6 |
| 20260510041805 | 47 | 0 | 0.0 | 3.0 | 0.00 | 0.00 | 0.00 | 65 | 1010.6 |
| 20260510041704 | 47 | 0 | 0.0 | 1.0 | 0.00 | 0.00 | 0.00 | 65 | 1010.6 |
| 20260510041625 | 47 | 0 | 0.0 | 1.0 | 0.00 | 0.00 | 0.00 | 65 | 1010.4 |
| 20260510041504 | 47 | 0 | 0.0 | 1.0 | 0.00 | 0.00 | 0.00 | 65 | 1010.4 |
| 20260510041405 | 47 | 0 | 0.0 | 1.0 | 0.00 | 0.00 | 0.00 | 65 | 1010.4 |
| 20260510041326 | 47 | 0 | 0.0 | 1.0 | 0.00 | 0.00 | 0.00 | 66 | 1010.4 |
| 20260510041204 | 47 | 0 | 0.0 | 1.0 | 0.00 | 0.00 | 0.00 | 66 | 1010.4 |
| 20260510041104 | 47 | 0 | 0.0 | 1.0 | 0.00 | 0.00 | 0.00 | 66 | 1010.3 |
| 20260510041025 | 47 | 0 | 0.0 | 1.0 | 0.00 | 0.00 | 0.00 | 66 | 1010.3 |
| 20260510040925 | 47 | 0 | 0.0 | 1.0 | 0.00 | 0.00 | 0.00 | 66 | 1010.3 |
| 20260510040805 | 47 | 0 | 0.0 | 1.0 | 0.00 | 0.00 | 0.00 | 67 | 1010.2 |
| 20260510040704 | 47 | 0 | 0.0 | 1.0 | 0.00 | 0.00 | 0.00 | 67 | 1010.2 |
| 20260510040604 | 47 | 0 | 0.0 | 1.0 | 0.00 | 0.00 | 0.00 | 67 | 1010.2 |
| 20260510040525 | 47 | 0 | 0.0 | 1.0 | 0.00 | 0.00 | 0.00 | 67 | 1010.2 |
| 20260510040405 | 47 | 0 | 0.0 | 1.0 | 0.00 | 0.00 | 0.00 | 67 | 1010.1 |
| 20260510040305 | 47 | 0 | 0.0 | 1.0 | 0.00 | 0.00 | 0.00 | 67 | 1010.1 |
| 20260510040205 | 47 | 0 | 0.0 | 1.0 | 0.00 | 0.00 | 0.00 | 67 | 1010.1 |
| 20260510040104 | 47 | 0 | 0.0 | 1.0 | 0.00 | 0.00 | 0.00 | 67 | 1010.0 |
| 20260510040006 | 47 | 0 | 0.0 | 1.0 | 0.00 | 0.00 | 0.00 | 66 | 1010.0 |
| 20260510035904 | 47 | 0 | 0.0 | 1.0 | 0.00 | 0.00 | 0.00 | 66 | 1010.0 |
| 20260510035805 | 47 | 0 | 0.0 | 0.0 | 0.00 | 0.00 | 0.00 | 66 | 1010.0 |
| 20260510035704 | 47 | 0 | 0.0 | 1.0 | 0.00 | 0.00 | 0.00 | 66 | 1009.9 |
| 20260510035604 | 47 | 0 | 0.0 | 2.0 | 0.00 | 0.00 | 0.00 | 66 | 1009.9 |
| 20260510035525 | 47 | 0 | 0.0 | 2.0 | 0.00 | 0.00 | 0.00 | 66 | 1009.9 |
| 20260510035405 | 47 | 0 | 0.0 | 2.0 | 0.00 | 0.00 | 0.00 | 66 | 1009.9 |
| 20260510035306 | 47 | 0 | 0.0 | 2.0 | 0.00 | 0.00 | 0.00 | 66 | 1009.9 |
| 20260510035225 | 47 | 0 | 0.0 | 2.0 | 0.00 | 0.00 | 0.00 | 66 | 1009.8 |
| 20260510035104 | 48 | 0 | 0.0 | 2.0 | 0.00 | 0.00 | 0.00 | 66 | 1009.8 |
| 20260510035004 | 48 | 0 | 0.0 | 2.0 | 0.00 | 0.00 | 0.00 | 66 | 1009.7 |
| 20260510034904 | 48 | 0 | 0.0 | 2.0 | 0.00 | 0.00 | 0.00 | 66 | 1009.7 |
| 20260510034805 | 48 | 0 | 0.0 | 2.0 | 0.00 | 0.00 | 0.00 | 66 | 1009.7 |
| 20260510034704 | 48 | 0 | 0.0 | 2.0 | 0.00 | 0.00 | 0.00 | 66 | 1009.7 |
| 20260510034604 | 48 | 0 | 0.0 | 2.0 | 0.00 | 0.00 | 0.00 | 67 | 1009.7 |
| 20260510034525 | 48 | 0 | 0.0 | 0.0 | 0.00 | 0.00 | 0.00 | 66 | 1009.6 |
| 20260510034404 | 48 | 0 | 0.0 | 0.0 | 0.00 | 0.00 | 0.00 | 67 | 1009.6 |
| 20260510034305 | 48 | 0 | 0.0 | 0.0 | 0.00 | 0.00 | 0.00 | 66 | 1009.6 |
| 20260510034204 | 48 | 0 | 0.0 | 0.0 | 0.00 | 0.00 | 0.00 | 66 | 1009.6 |
| 20260510034104 | 48 | 0 | 0.0 | 0.0 | 0.00 | 0.00 | 0.00 | 66 | 1009.6 |
| 20260510034025 | 48 | 0 | 0.0 | 0.0 | 0.00 | 0.00 | 0.00 | 66 | 1009.6 |
| 20260510033925 | 48 | 0 | 0.0 | 0.0 | 0.00 | 0.00 | 0.00 | 66 | 1009.6 |
| 20260510033804 | 48 | 0 | 0.0 | 0.0 | 0.00 | 0.00 | 0.00 | 66 | 1009.6 |
| 20260510033726 | 48 | 0 | 0.0 | 0.0 | 0.00 | 0.00 | 0.00 | 66 | 1009.5 |
| 20260510033605 | 48 | 0 | 0.0 | 1.0 | 0.00 | 0.00 | 0.00 | 66 | 1009.6 |
| 20260510033504 | 48 | 0 | 0.0 | 1.0 | 0.00 | 0.00 | 0.00 | 66 | 1009.6 |
| 20260510033404 | 48 | 0 | 0.0 | 1.0 | 0.00 | 0.00 | 0.00 | 65 | 1009.5 |
| 20260510033305 | 48 | 0 | 0.0 | 1.0 | 0.00 | 0.00 | 0.00 | 66 | 1009.5 |
| 20260510033204 | 48 | 0 | 0.0 | 1.0 | 0.00 | 0.00 | 0.00 | 66 | 1009.5 |
| 20260510033104 | 48 | 0 | 0.0 | 1.0 | 0.00 | 0.00 | 0.00 | 66 | 1009.5 |
| 20260510033025 | 48 | 0 | 0.0 | 1.0 | 0.00 | 0.00 | 0.00 | 66 | 1009.5 |
| 20260510032904 | 48 | 0 | 0.0 | 1.0 | 0.00 | 0.00 | 0.00 | 66 | 1009.5 |
| 20260510032804 | 48 | 0 | 0.0 | 1.0 | 0.00 | 0.00 | 0.00 | 66 | 1009.5 |
| 20260510032726 | 48 | 0 | 0.0 | 1.0 | 0.00 | 0.00 | 0.00 | 66 | 1009.5 |
| 20260510032604 | 48 | 0 | 0.0 | 1.0 | 0.00 | 0.00 | 0.00 | 66 | 1009.4 |
| 20260510032505 | 49 | 0 | 0.0 | 1.0 | 0.00 | 0.00 | 0.00 | 66 | 1009.4 |
| 20260510032425 | 49 | 0 | 0.0 | 1.0 | 0.00 | 0.00 | 0.00 | 66 | 1009.4 |
| 20260510032306 | 49 | 0 | 0.0 | 1.0 | 0.00 | 0.00 | 0.00 | 66 | 1009.4 |
| 20260510032204 | 49 | 0 | 0.0 | 1.0 | 0.00 | 0.00 | 0.00 | 66 | 1009.4 |
| 20260510032104 | 49 | 0 | 0.0 | 1.0 | 0.00 | 0.00 | 0.00 | 66 | 1009.4 |
| 20260510032005 | 49 | 0 | 0.0 | 1.0 | 0.00 | 0.00 | 0.00 | 66 | 1009.4 |
| 20260510031904 | 49 | 0 | 0.0 | 1.0 | 0.00 | 0.00 | 0.00 | 65 | 1009.4 |
| 20260510031804 | 49 | 0 | 0.0 | 1.0 | 0.00 | 0.00 | 0.00 | 65 | 1009.4 |
| 20260510031725 | 49 | 0 | 0.0 | 1.0 | 0.00 | 0.00 | 0.00 | 65 | 1009.4 |
| 20260510031604 | 49 | 0 | 0.0 | 1.0 | 0.00 | 0.00 | 0.00 | 65 | 1009.3 |
| 20260510031504 | 49 | 0 | 0.0 | 1.0 | 0.00 | 0.00 | 0.00 | 65 | 1009.3 |
| 20260510031425 | 49 | 0 | 0.0 | 1.0 | 0.00 | 0.00 | 0.00 | 65 | 1009.3 |
| 20260510031304 | 50 | 0 | 0.0 | 1.0 | 0.00 | 0.00 | 0.00 | 65 | 1009.3 |
| 20260510031204 | 50 | 0 | 0.0 | 1.0 | 0.00 | 0.00 | 0.00 | 65 | 1009.3 |
| 20260510031105 | 50 | 0 | 0.0 | 1.0 | 0.00 | 0.00 | 0.00 | 65 | 1009.2 |
| 20260510031004 | 50 | 0 | 0.0 | 1.0 | 0.00 | 0.00 | 0.00 | 65 | 1009.2 |
| 20260510030904 | 50 | 0 | 0.0 | 1.0 | 0.00 | 0.00 | 0.00 | 65 | 1009.3 |
| 20260510030804 | 50 | 0 | 0.0 | 1.0 | 0.00 | 0.00 | 0.00 | 65 | 1009.2 |
| 20260510030704 | 50 | 0 | 0.0 | 1.0 | 0.00 | 0.00 | 0.00 | 65 | 1009.2 |
| 20260510030604 | 50 | 0 | 0.0 | 1.0 | 0.00 | 0.00 | 0.00 | 65 | 1009.2 |
| 20260510030504 | 50 | 0 | 0.0 | 1.0 | 0.00 | 0.00 | 0.00 | 65 | 1009.2 |
| 20260510030425 | 50 | 0 | 0.0 | 1.0 | 0.00 | 0.00 | 0.00 | 65 | 1009.2 |
| 20260510030325 | 50 | 0 | 0.0 | 1.0 | 0.00 | 0.00 | 0.00 | 65 | 1009.2 |
| 20260510030204 | 50 | 0 | 0.0 | 1.0 | 0.00 | 0.00 | 0.00 | 65 | 1009.2 |
| 20260510030104 | 50 | 0 | 0.0 | 2.0 | 0.00 | 0.00 | 0.00 | 65 | 1009.2 |
| 20260510030004 | 50 | 0 | 0.0 | 3.0 | 0.00 | 0.00 | 0.00 | 65 | 1009.1 |
| 20260510025904 | 50 | 336 | 1.0 | 3.0 | 0.00 | 0.00 | 0.00 | 65 | 1009.1 |
| 20260510025825 | 50 | 336 | 1.0 | 3.0 | 0.00 | 0.00 | 0.00 | 65 | 1009.2 |
| 20260510025725 | 50 | 334 | 1.0 | 3.0 | 0.00 | 0.00 | 0.00 | 65 | 1009.2 |
| 20260510025604 | 50 | 334 | 1.0 | 3.0 | 0.00 | 0.00 | 0.00 | 65 | 1009.2 |
| 20260510025505 | 50 | 335 | 1.0 | 3.0 | 0.00 | 0.00 | 0.00 | 65 | 1009.1 |
| 20260510025404 | 50 | 335 | 1.0 | 3.0 | 0.00 | 0.00 | 0.00 | 65 | 1009.1 |
| 20260510025306 | 50 | 336 | 1.0 | 3.0 | 0.00 | 0.00 | 0.00 | 65 | 1009.1 |
| 20260510025225 | 50 | 336 | 1.0 | 3.0 | 0.00 | 0.00 | 0.00 | 65 | 1009.1 |
| 20260510025104 | 50 | 332 | 1.0 | 4.0 | 0.00 | 0.00 | 0.00 | 66 | 1009.1 |
| 20260510025004 | 50 | 0 | 0.0 | 4.0 | 0.00 | 0.00 | 0.00 | 66 | 1009.1 |
| 20260510024904 | 50 | 0 | 0.0 | 4.0 | 0.00 | 0.00 | 0.00 | 67 | 1009.1 |
| 20260510024804 | 50 | 0 | 0.0 | 4.0 | 0.00 | 0.00 | 0.00 | 67 | 1009.1 |
| 20260510024725 | 50 | 0 | 0.0 | 4.0 | 0.00 | 0.00 | 0.00 | 67 | 1009.1 |
| 20260510024604 | 50 | 0 | 0.0 | 4.0 | 0.00 | 0.00 | 0.00 | 68 | 1009.1 |
| 20260510024504 | 50 | 0 | 0.0 | 4.0 | 0.00 | 0.00 | 0.00 | 68 | 1009.0 |
| 20260510024404 | 50 | 0 | 0.0 | 4.0 | 0.00 | 0.00 | 0.00 | 68 | 1009.0 |
| 20260510024304 | 49 | 0 | 0.0 | 4.0 | 0.00 | 0.00 | 0.00 | 69 | 1009.0 |
| 20260510024204 | 49 | 0 | 0.0 | 4.0 | 0.00 | 0.00 | 0.00 | 70 | 1008.9 |
| 20260510024125 | 49 | 0 | 0.0 | 0.0 | 0.00 | 0.00 | 0.00 | 70 | 1008.9 |
| 20260510024025 | 49 | 0 | 0.0 | 0.0 | 0.00 | 0.00 | 0.00 | 70 | 1008.9 |
| 20260510023904 | 50 | 0 | 0.0 | 1.0 | 0.00 | 0.00 | 0.00 | 69 | 1008.9 |
| 20260510023804 | 50 | 0 | 0.0 | 1.0 | 0.00 | 0.00 | 0.00 | 69 | 1008.8 |
| 20260510023704 | 50 | 0 | 0.0 | 2.0 | 0.00 | 0.00 | 0.00 | 69 | 1008.8 |
| 20260510023604 | 50 | 0 | 0.0 | 2.0 | 0.00 | 0.00 | 0.00 | 69 | 1008.8 |
| 20260510023504 | 50 | 0 | 0.0 | 2.0 | 0.00 | 0.00 | 0.00 | 69 | 1008.7 |
| 20260510023425 | 50 | 0 | 0.0 | 2.0 | 0.00 | 0.00 | 0.00 | 69 | 1008.7 |
| 20260510023304 | 50 | 0 | 0.0 | 2.0 | 0.00 | 0.00 | 0.00 | 69 | 1008.7 |
| 20260510023204 | 50 | 0 | 0.0 | 2.0 | 0.00 | 0.00 | 0.00 | 69 | 1008.7 |
| 20260510023104 | 50 | 0 | 0.0 | 2.0 | 0.00 | 0.00 | 0.00 | 69 | 1008.7 |
| 20260510023004 | 50 | 0 | 0.0 | 2.0 | 0.00 | 0.00 | 0.00 | 69 | 1008.6 |
| 20260510022904 | 50 | 0 | 0.0 | 2.0 | 0.00 | 0.00 | 0.00 | 69 | 1008.6 |
| 20260510022804 | 50 | 0 | 0.0 | 2.0 | 0.00 | 0.00 | 0.00 | 69 | 1008.6 |
| 20260510022704 | 50 | 0 | 0.0 | 1.0 | 0.00 | 0.00 | 0.00 | 69 | 1008.5 |
| 20260510022626 | 50 | 0 | 0.0 | 1.0 | 0.00 | 0.00 | 0.00 | 69 | 1008.5 |
| 20260510022505 | 50 | 0 | 0.0 | 1.0 | 0.00 | 0.00 | 0.00 | 69 | 1008.5 |
| 20260510022404 | 50 | 0 | 0.0 | 1.0 | 0.00 | 0.00 | 0.00 | 69 | 1008.5 |
| 20260510022306 | 50 | 0 | 0.0 | 1.0 | 0.00 | 0.00 | 0.00 | 69 | 1008.5 |
| 20260510022225 | 50 | 0 | 0.0 | 1.0 | 0.00 | 0.00 | 0.00 | 69 | 1008.5 |
| 20260510022104 | 50 | 0 | 0.0 | 1.0 | 0.00 | 0.00 | 0.00 | 68 | 1008.5 |
| 20260510022005 | 50 | 0 | 0.0 | 1.0 | 0.00 | 0.00 | 0.00 | 68 | 1008.5 |
| 20260510021925 | 50 | 0 | 0.0 | 1.0 | 0.00 | 0.00 | 0.00 | 68 | 1008.5 |
| 20260510021825 | 50 | 0 | 0.0 | 1.0 | 0.00 | 0.00 | 0.00 | 68 | 1008.5 |
| 20260510021704 | 50 | 0 | 0.0 | 1.0 | 0.00 | 0.00 | 0.00 | 68 | 1008.5 |
| 20260510021604 | 50 | 0 | 0.0 | 1.0 | 0.00 | 0.00 | 0.00 | 68 | 1008.5 |
| 20260510021505 | 50 | 0 | 0.0 | 1.0 | 0.00 | 0.00 | 0.00 | 68 | 1008.5 |
| 20260510021404 | 50 | 0 | 0.0 | 1.0 | 0.00 | 0.00 | 0.00 | 68 | 1008.4 |
| 20260510021304 | 50 | 0 | 0.0 | 0.0 | 0.00 | 0.00 | 0.00 | 68 | 1008.4 |
| 20260510021204 | 50 | 0 | 0.0 | 0.0 | 0.00 | 0.00 | 0.00 | 68 | 1008.3 |
| 20260510021104 | 50 | 0 | 0.0 | 0.0 | 0.00 | 0.00 | 0.00 | 68 | 1008.3 |
| 20260510021004 | 50 | 0 | 0.0 | 0.0 | 0.00 | 0.00 | 0.00 | 67 | 1008.3 |
| 20260510020904 | 50 | 0 | 0.0 | 0.0 | 0.00 | 0.00 | 0.00 | 67 | 1008.3 |
| 20260510020804 | 50 | 0 | 0.0 | 0.0 | 0.00 | 0.00 | 0.00 | 67 | 1008.3 |
| 20260510020725 | 50 | 0 | 0.0 | 0.0 | 0.00 | 0.00 | 0.00 | 67 | 1008.2 |
| 20260510020604 | 50 | 0 | 0.0 | 0.0 | 0.00 | 0.00 | 0.00 | 66 | 1008.1 |
| 20260510020504 | 50 | 0 | 0.0 | 0.0 | 0.00 | 0.00 | 0.00 | 66 | 1008.1 |
| 20260510020425 | 50 | 0 | 0.0 | 0.0 | 0.00 | 0.00 | 0.00 | 66 | 1008.0 |
| 20260510020304 | 51 | 0 | 0.0 | 0.0 | 0.00 | 0.00 | 0.00 | 66 | 1008.0 |
| 20260510020204 | 51 | 0 | 0.0 | 0.0 | 0.00 | 0.00 | 0.00 | 66 | 1008.0 |
| 20260510020104 | 51 | 0 | 0.0 | 1.0 | 0.00 | 0.00 | 0.00 | 65 | 1007.9 |
| 20260510020005 | 51 | 0 | 0.0 | 1.0 | 0.00 | 0.00 | 0.00 | 65 | 1007.9 |
| 20260510015904 | 51 | 0 | 0.0 | 1.0 | 0.00 | 0.00 | 0.00 | 65 | 1007.9 |
| 20260510015804 | 51 | 0 | 0.0 | 1.0 | 0.00 | 0.00 | 0.00 | 65 | 1007.9 |
| 20260510015704 | 51 | 0 | 0.0 | 1.0 | 0.00 | 0.00 | 0.00 | 65 | 1007.9 |
| 20260510015605 | 51 | 0 | 0.0 | 1.0 | 0.00 | 0.00 | 0.00 | 65 | 1007.8 |
| 20260510015504 | 51 | 0 | 0.0 | 1.0 | 0.00 | 0.00 | 0.00 | 65 | 1007.8 |
| 20260510015404 | 51 | 0 | 0.0 | 1.0 | 0.00 | 0.00 | 0.00 | 65 | 1007.8 |
| 20260510015326 | 51 | 0 | 0.0 | 1.0 | 0.00 | 0.00 | 0.00 | 64 | 1007.8 |
| 20260510015225 | 52 | 0 | 0.0 | 1.0 | 0.00 | 0.00 | 0.00 | 64 | 1007.8 |
| 20260510015104 | 52 | 0 | 0.0 | 1.0 | 0.00 | 0.00 | 0.00 | 64 | 1007.7 |
| 20260510015004 | 52 | 0 | 0.0 | 1.0 | 0.00 | 0.00 | 0.00 | 64 | 1007.7 |
| 20260510014904 | 52 | 0 | 0.0 | 1.0 | 0.00 | 0.00 | 0.00 | 65 | 1007.7 |
| 20260510014804 | 52 | 0 | 0.0 | 1.0 | 0.00 | 0.00 | 0.00 | 65 | 1007.7 |
| 20260510014704 | 52 | 0 | 0.0 | 1.0 | 0.00 | 0.00 | 0.00 | 65 | 1007.7 |
| 20260510014625 | 52 | 0 | 0.0 | 1.0 | 0.00 | 0.00 | 0.00 | 65 | 1007.7 |
| 20260510014504 | 52 | 0 | 0.0 | 1.0 | 0.00 | 0.00 | 0.00 | 65 | 1007.7 |
| 20260510014425 | 52 | 0 | 0.0 | 1.0 | 0.00 | 0.00 | 0.00 | 65 | 1007.7 |
| 20260510014304 | 52 | 0 | 0.0 | 1.0 | 0.00 | 0.00 | 0.00 | 64 | 1007.6 |
| 20260510014204 | 52 | 0 | 0.0 | 2.0 | 0.00 | 0.00 | 0.00 | 64 | 1007.6 |
| 20260510014125 | 52 | 0 | 0.0 | 2.0 | 0.00 | 0.00 | 0.00 | 64 | 1007.6 |
| 20260510014004 | 52 | 0 | 0.0 | 2.0 | 0.00 | 0.00 | 0.00 | 64 | 1007.5 |
| 20260510013904 | 52 | 0 | 0.0 | 2.0 | 0.00 | 0.00 | 0.00 | 64 | 1007.5 |
| 20260510013804 | 52 | 0 | 0.0 | 2.0 | 0.00 | 0.00 | 0.00 | 64 | 1007.5 |
| 20260510013704 | 52 | 0 | 0.0 | 2.0 | 0.00 | 0.00 | 0.00 | 64 | 1007.5 |
| 20260510013604 | 52 | 0 | 0.0 | 2.0 | 0.00 | 0.00 | 0.00 | 64 | 1007.5 |
| 20260510013504 | 52 | 0 | 0.0 | 2.0 | 0.00 | 0.00 | 0.00 | 64 | 1007.5 |
| 20260510013404 | 52 | 0 | 0.0 | 2.0 | 0.00 | 0.00 | 0.00 | 64 | 1007.5 |
| 20260510013304 | 52 | 0 | 0.0 | 2.0 | 0.00 | 0.00 | 0.00 | 64 | 1007.4 |
| 20260510013204 | 52 | 0 | 0.0 | 0.0 | 0.00 | 0.00 | 0.00 | 63 | 1007.4 |
| 20260510013104 | 52 | 0 | 0.0 | 1.0 | 0.00 | 0.00 | 0.00 | 63 | 1007.4 |
| 20260510013004 | 53 | 0 | 0.0 | 1.0 | 0.00 | 0.00 | 0.00 | 63 | 1007.4 |
| 20260510012904 | 53 | 0 | 0.0 | 1.0 | 0.00 | 0.00 | 0.00 | 63 | 1007.4 |
| 20260510012804 | 53 | 0 | 0.0 | 1.0 | 0.00 | 0.00 | 0.00 | 63 | 1007.3 |
| 20260510012704 | 53 | 0 | 0.0 | 1.0 | 0.00 | 0.00 | 0.00 | 62 | 1007.3 |
| 20260510012604 | 53 | 0 | 0.0 | 1.0 | 0.00 | 0.00 | 0.00 | 62 | 1007.3 |
| 20260510012504 | 53 | 0 | 0.0 | 1.0 | 0.00 | 0.00 | 0.00 | 62 | 1007.3 |
| 20260510012404 | 53 | 0 | 0.0 | 1.0 | 0.00 | 0.00 | 0.00 | 62 | 1007.3 |
| 20260510012306 | 53 | 0 | 0.0 | 1.0 | 0.00 | 0.00 | 0.00 | 62 | 1007.3 |
| 20260510012204 | 53 | 0 | 0.0 | 1.0 | 0.00 | 0.00 | 0.00 | 62 | 1007.2 |
| 20260510012104 | 53 | 0 | 0.0 | 1.0 | 0.00 | 0.00 | 0.00 | 62 | 1007.2 |
| 20260510012004 | 53 | 0 | 0.0 | 1.0 | 0.00 | 0.00 | 0.00 | 61 | 1007.2 |
| 20260510011904 | 53 | 0 | 0.0 | 1.0 | 0.00 | 0.00 | 0.00 | 61 | 1007.2 |
| 20260510011804 | 54 | 0 | 0.0 | 1.0 | 0.00 | 0.00 | 0.00 | 61 | 1007.2 |
| 20260510011727 | 54 | 0 | 0.0 | 1.0 | 0.00 | 0.00 | 0.00 | 61 | 1007.2 |
| 20260510011604 | 54 | 0 | 0.0 | 1.0 | 0.00 | 0.00 | 0.00 | 61 | 1007.2 |
| 20260510011504 | 54 | 0 | 0.0 | 1.0 | 0.00 | 0.00 | 0.00 | 60 | 1007.1 |
| 20260510011404 | 54 | 0 | 0.0 | 1.0 | 0.00 | 0.00 | 0.00 | 60 | 1007.1 |
| 20260510011304 | 54 | 0 | 0.0 | 1.0 | 0.00 | 0.00 | 0.00 | 60 | 1007.1 |
| 20260510011225 | 54 | 0 | 0.0 | 1.0 | 0.00 | 0.00 | 0.00 | 60 | 1007.1 |
| 20260510011125 | 54 | 0 | 0.0 | 2.0 | 0.00 | 0.00 | 0.00 | 60 | 1007.0 |
| 20260510011004 | 54 | 0 | 0.0 | 2.0 | 0.00 | 0.00 | 0.00 | 59 | 1007.0 |
| 20260510010904 | 54 | 0 | 0.0 | 2.0 | 0.00 | 0.00 | 0.00 | 59 | 1007.0 |
| 20260510010804 | 54 | 0 | 0.0 | 2.0 | 0.00 | 0.00 | 0.00 | 59 | 1007.0 |
| 20260510010705 | 54 | 0 | 0.0 | 2.0 | 0.00 | 0.00 | 0.00 | 59 | 1006.9 |
| 20260510010604 | 55 | 0 | 0.0 | 2.0 | 0.00 | 0.00 | 0.00 | 58 | 1006.9 |
| 20260510010525 | 55 | 0 | 0.0 | 2.0 | 0.00 | 0.00 | 0.00 | 58 | 1006.9 |
| 20260510010425 | 55 | 0 | 0.0 | 2.0 | 0.00 | 0.00 | 0.00 | 58 | 1006.9 |
| 20260510010325 | 55 | 0 | 0.0 | 2.0 | 0.00 | 0.00 | 0.00 | 58 | 1006.9 |
| 20260510010204 | 55 | 0 | 0.0 | 2.0 | 0.00 | 0.00 | 0.00 | 58 | 1006.9 |
| 20260510010104 | 55 | 0 | 0.0 | 2.0 | 0.00 | 0.00 | 0.00 | 58 | 1006.9 |
| 20260510010004 | 55 | 0 | 0.0 | 2.0 | 0.00 | 0.00 | 0.00 | 58 | 1006.8 |
| 20260510005904 | 55 | 0 | 0.0 | 2.0 | 0.00 | 0.00 | 0.00 | 57 | 1006.8 |
| 20260510005825 | 55 | 0 | 0.0 | 2.0 | 0.00 | 0.00 | 0.00 | 57 | 1006.8 |
| 20260510005725 | 55 | 0 | 0.0 | 2.0 | 0.00 | 0.00 | 0.00 | 57 | 1006.8 |
| 20260510005604 | 55 | 0 | 0.0 | 2.0 | 0.00 | 0.00 | 0.00 | 57 | 1006.8 |
| 20260510005504 | 55 | 0 | 0.0 | 2.0 | 0.00 | 0.00 | 0.00 | 56 | 1006.8 |
| 20260510005404 | 56 | 0 | 0.0 | 2.0 | 0.00 | 0.00 | 0.00 | 57 | 1006.8 |
| 20260510005306 | 56 | 0 | 0.0 | 2.0 | 0.00 | 0.00 | 0.00 | 56 | 1006.8 |
| 20260510005204 | 56 | 0 | 0.0 | 2.0 | 0.00 | 0.00 | 0.00 | 56 | 1006.7 |
| 20260510005105 | 56 | 0 | 0.0 | 1.0 | 0.00 | 0.00 | 0.00 | 56 | 1006.7 |
| 20260510005004 | 56 | 0 | 0.0 | 3.0 | 0.00 | 0.00 | 0.00 | 56 | 1006.7 |
| 20260510004904 | 56 | 0 | 0.0 | 4.0 | 0.00 | 0.00 | 0.00 | 56 | 1006.7 |
| 20260510004804 | 56 | 0 | 0.0 | 4.0 | 0.00 | 0.00 | 0.00 | 56 | 1006.7 |
| 20260510004704 | 56 | 279 | 1.0 | 4.0 | 0.00 | 0.00 | 0.00 | 55 | 1006.6 |
| 20260510004604 | 56 | 280 | 1.0 | 4.0 | 0.00 | 0.00 | 0.00 | 55 | 1006.6 |
| 20260510004504 | 56 | 279 | 1.0 | 4.0 | 0.00 | 0.00 | 0.00 | 55 | 1006.6 |
| 20260510004404 | 56 | 279 | 1.0 | 4.0 | 0.00 | 0.00 | 0.00 | 55 | 1006.6 |
| 20260510004304 | 56 | 279 | 1.0 | 4.0 | 0.00 | 0.00 | 0.00 | 55 | 1006.6 |
| 20260510004204 | 56 | 279 | 1.0 | 4.0 | 0.00 | 0.00 | 0.00 | 54 | 1006.6 |
| 20260510004104 | 56 | 279 | 1.0 | 4.0 | 0.00 | 0.00 | 0.00 | 54 | 1006.6 |
| 20260510004004 | 56 | 275 | 1.0 | 4.0 | 0.00 | 0.00 | 0.00 | 54 | 1006.6 |
| 20260510003904 | 57 | 275 | 1.0 | 3.0 | 0.00 | 0.00 | 0.00 | 54 | 1006.6 |
| 20260510003804 | 57 | 275 | 1.0 | 4.0 | 0.00 | 0.00 | 0.00 | 54 | 1006.6 |
| 20260510003704 | 57 | 275 | 1.0 | 4.0 | 0.00 | 0.00 | 0.00 | 54 | 1006.6 |
| 20260510003604 | 57 | 281 | 1.0 | 6.0 | 0.00 | 0.00 | 0.00 | 54 | 1006.6 |
| 20260510003504 | 57 | 280 | 1.0 | 6.0 | 0.00 | 0.00 | 0.00 | 54 | 1006.6 |
| 20260510003405 | 57 | 279 | 1.0 | 6.0 | 0.00 | 0.00 | 0.00 | 53 | 1006.6 |
| 20260510003304 | 57 | 279 | 1.0 | 6.0 | 0.00 | 0.00 | 0.00 | 53 | 1006.6 |
| 20260510003204 | 57 | 279 | 1.0 | 6.0 | 0.00 | 0.00 | 0.00 | 53 | 1006.6 |
| 20260510003104 | 57 | 280 | 1.0 | 6.0 | 0.00 | 0.00 | 0.00 | 53 | 1006.5 |
| 20260510003004 | 57 | 283 | 1.0 | 6.0 | 0.00 | 0.00 | 0.00 | 52 | 1006.5 |
| 20260510002925 | 57 | 286 | 1.0 | 6.0 | 0.00 | 0.00 | 0.00 | 52 | 1006.5 |
| 20260510002805 | 58 | 279 | 1.0 | 6.0 | 0.00 | 0.00 | 0.00 | 52 | 1006.5 |
| 20260510002704 | 58 | 286 | 1.0 | 6.0 | 0.00 | 0.00 | 0.00 | 52 | 1006.5 |
| 20260510002604 | 58 | 276 | 1.0 | 6.0 | 0.00 | 0.00 | 0.00 | 52 | 1006.4 |
| 20260510002504 | 58 | 272 | 2.0 | 7.0 | 0.00 | 0.00 | 0.00 | 52 | 1006.4 |
| 20260510002404 | 58 | 273 | 2.0 | 7.0 | 0.00 | 0.00 | 0.00 | 52 | 1006.4 |
| 20260510002306 | 58 | 277 | 2.0 | 7.0 | 0.00 | 0.00 | 0.00 | 52 | 1006.4 |
| 20260510002204 | 58 | 282 | 2.0 | 7.0 | 0.00 | 0.00 | 0.00 | 51 | 1006.4 |
| 20260510002104 | 58 | 287 | 2.0 | 7.0 | 0.00 | 0.00 | 0.00 | 51 | 1006.4 |
| 20260510002004 | 58 | 287 | 2.0 | 7.0 | 0.00 | 0.00 | 0.00 | 51 | 1006.4 |
| 20260510001904 | 58 | 287 | 2.0 | 7.0 | 0.00 | 0.00 | 0.00 | 51 | 1006.4 |
| 20260510001804 | 58 | 292 | 2.0 | 7.0 | 0.00 | 0.00 | 0.00 | 51 | 1006.4 |
| 20260510001704 | 58 | 288 | 2.0 | 7.0 | 0.00 | 0.00 | 0.00 | 51 | 1006.4 |
| 20260510001604 | 58 | 291 | 2.0 | 9.0 | 0.00 | 0.00 | 0.00 | 51 | 1006.3 |
| 20260510001504 | 58 | 298 | 2.0 | 9.0 | 0.00 | 0.00 | 0.00 | 51 | 1006.3 |
| 20260510001404 | 58 | 296 | 2.0 | 9.0 | 0.00 | 0.00 | 0.00 | 51 | 1006.3 |
| 20260510001304 | 58 | 293 | 2.0 | 9.0 | 0.00 | 0.00 | 0.00 | 50 | 1006.3 |
| 20260510001225 | 58 | 292 | 2.0 | 9.0 | 0.00 | 0.00 | 0.00 | 50 | 1006.3 |
| 20260510001104 | 58 | 287 | 2.0 | 9.0 | 0.00 | 0.00 | 0.00 | 50 | 1006.3 |
| 20260510001025 | 58 | 287 | 2.0 | 9.0 | 0.00 | 0.00 | 0.00 | 50 | 1006.3 |
| 20260510000904 | 58 | 283 | 2.0 | 9.0 | 0.00 | 0.00 | 0.00 | 51 | 1006.3 |
| 20260510000804 | 59 | 284 | 2.0 | 9.0 | 0.00 | 0.00 | 0.00 | 50 | 1006.3 |
| 20260510000704 | 59 | 285 | 2.0 | 9.0 | 0.00 | 0.00 | 0.00 | 50 | 1006.3 |
| 20260510000604 | 59 | 286 | 2.0 | 8.0 | 0.00 | 0.00 | 0.00 | 50 | 1006.3 |
| 20260510000504 | 59 | 285 | 2.0 | 9.0 | 0.00 | 0.00 | 0.00 | 50 | 1006.2 |
| 20260510000404 | 59 | 288 | 2.0 | 9.0 | 0.00 | 0.00 | 0.00 | 50 | 1006.3 |
| 20260510000326 | 59 | 290 | 2.0 | 9.0 | 0.00 | 0.00 | 0.00 | 50 | 1006.3 |
| 20260510000204 | 59 | 290 | 2.0 | 9.0 | 0.00 | 0.00 | 0.00 | 50 | 1006.1 |
| 20260510000104 | 59 | 286 | 2.0 | 9.0 | 0.00 | 0.00 | 0.00 | 50 | 1006.1 |
| 20260510000004 | 59 | 284 | 2.0 | 9.0 | 0.00 | 0.00 | 0.00 | 49 | 1006.1 |
| 20260509235904 | 59 | 287 | 2.0 | 9.0 | 0.00 | 0.00 | 0.00 | 50 | 1006.1 |
| 20260509235825 | 59 | 286 | 2.0 | 9.0 | 0.00 | 0.00 | 0.00 | 50 | 1006.1 |
| 20260509235704 | 59 | 283 | 2.0 | 9.0 | 0.00 | 0.00 | 0.00 | 50 | 1006.0 |
| 20260509235625 | 59 | 282 | 2.0 | 9.0 | 0.00 | 0.00 | 0.00 | 50 | 1006.0 |
| 20260509235504 | 60 | 286 | 2.0 | 8.0 | 0.00 | 0.00 | 0.00 | 49 | 1006.0 |
| 20260509235404 | 60 | 285 | 2.0 | 5.0 | 0.00 | 0.00 | 0.00 | 49 | 1006.1 |
| 20260509235306 | 60 | 282 | 2.0 | 5.0 | 0.00 | 0.00 | 0.00 | 49 | 1006.1 |
| 20260509235225 | 60 | 281 | 2.0 | 5.0 | 0.00 | 0.00 | 0.00 | 49 | 1006.0 |
| 20260509235104 | 60 | 294 | 2.0 | 5.0 | 0.00 | 0.00 | 0.00 | 50 | 1005.9 |
| 20260509235025 | 60 | 300 | 2.0 | 5.0 | 0.00 | 0.00 | 0.00 | 50 | 1005.9 |
| 20260509234925 | 60 | 307 | 2.0 | 5.0 | 0.00 | 0.00 | 0.00 | 50 | 1006.0 |
| 20260509234804 | 60 | 315 | 2.0 | 5.0 | 0.00 | 0.00 | 0.00 | 49 | 1006.0 |
| 20260509234704 | 60 | 322 | 2.0 | 7.0 | 0.00 | 0.00 | 0.00 | 49 | 1005.9 |
| 20260509234625 | 60 | 322 | 2.0 | 7.0 | 0.00 | 0.00 | 0.00 | 49 | 1005.9 |
| 20260509234504 | 60 | 319 | 3.0 | 7.0 | 0.00 | 0.00 | 0.00 | 49 | 1005.9 |
| 20260509234404 | 60 | 318 | 3.0 | 7.0 | 0.00 | 0.00 | 0.00 | 48 | 1005.8 |
| 20260509234304 | 61 | 323 | 3.0 | 7.0 | 0.00 | 0.00 | 0.00 | 48 | 1005.8 |
| 20260509234204 | 61 | 325 | 3.0 | 7.0 | 0.00 | 0.00 | 0.00 | 48 | 1005.8 |
| 20260509234125 | 61 | 324 | 3.0 | 7.0 | 0.00 | 0.00 | 0.00 | 48 | 1005.8 |
| 20260509234004 | 61 | 320 | 2.0 | 7.0 | 0.00 | 0.00 | 0.00 | 47 | 1005.7 |
| 20260509233925 | 61 | 320 | 2.0 | 7.0 | 0.00 | 0.00 | 0.00 | 47 | 1005.7 |
| 20260509233804 | 61 | 314 | 2.0 | 7.0 | 0.00 | 0.00 | 0.00 | 47 | 1005.7 |
| 20260509233704 | 61 | 308 | 2.0 | 8.0 | 0.00 | 0.00 | 0.00 | 47 | 1005.7 |
| 20260509233604 | 61 | 303 | 2.0 | 8.0 | 0.00 | 0.00 | 0.00 | 47 | 1005.7 |
| 20260509233504 | 62 | 304 | 2.0 | 8.0 | 0.00 | 0.00 | 0.00 | 46 | 1005.7 |
| 20260509233404 | 62 | 300 | 2.0 | 8.0 | 0.00 | 0.00 | 0.00 | 47 | 1005.7 |
| 20260509233304 | 62 | 290 | 2.0 | 8.0 | 0.00 | 0.00 | 0.00 | 49 | 1005.7 |
| 20260509233204 | 61 | 290 | 3.0 | 8.0 | 0.00 | 0.00 | 0.00 | 49 | 1005.7 |
| 20260509233103 | 61 | 282 | 3.0 | 12.0 | 0.00 | 0.00 | 0.00 | 48 | 1005.6 |
| 20260509233004 | 61 | 283 | 3.0 | 12.0 | 0.00 | 0.00 | 0.00 | 48 | 1005.5 |
| 20260509232925 | 61 | 283 | 3.0 | 12.0 | 0.00 | 0.00 | 0.00 | 48 | 1005.5 |
| 20260509232804 | 61 | 287 | 3.0 | 12.0 | 0.00 | 0.00 | 0.00 | 48 | 1005.5 |
| 20260509232704 | 61 | 286 | 3.0 | 12.0 | 0.00 | 0.00 | 0.00 | 49 | 1005.5 |
| 20260509232605 | 61 | 286 | 2.0 | 12.0 | 0.00 | 0.00 | 0.00 | 49 | 1005.5 |
| 20260509232504 | 61 | 289 | 3.0 | 12.0 | 0.00 | 0.00 | 0.00 | 49 | 1005.4 |
| 20260509232404 | 61 | 293 | 3.0 | 12.0 | 0.00 | 0.00 | 0.00 | 49 | 1005.4 |
| 20260509232306 | 61 | 296 | 3.0 | 12.0 | 0.00 | 0.00 | 0.00 | 49 | 1005.5 |
| 20260509232203 | 62 | 301 | 3.0 | 12.0 | 0.00 | 0.00 | 0.00 | 48 | 1005.4 |
| 20260509232104 | 62 | 310 | 3.0 | 6.0 | 0.00 | 0.00 | 0.00 | 48 | 1005.4 |
| 20260509232004 | 62 | 311 | 3.0 | 6.0 | 0.00 | 0.00 | 0.00 | 48 | 1005.4 |
| 20260509231904 | 62 | 310 | 3.0 | 11.0 | 0.00 | 0.00 | 0.00 | 48 | 1005.4 |
| 20260509231825 | 62 | 306 | 3.0 | 11.0 | 0.00 | 0.00 | 0.00 | 48 | 1005.4 |
| 20260509231725 | 62 | 306 | 3.0 | 11.0 | 0.00 | 0.00 | 0.00 | 48 | 1005.4 |
| 20260509231604 | 61 | 303 | 4.0 | 11.0 | 0.00 | 0.00 | 0.00 | 48 | 1005.4 |
| 20260509231504 | 61 | 298 | 4.0 | 11.0 | 0.00 | 0.00 | 0.00 | 48 | 1005.4 |
| 20260509231404 | 61 | 295 | 4.0 | 11.0 | 0.00 | 0.00 | 0.00 | 48 | 1005.4 |
| 20260509231303 | 61 | 293 | 4.0 | 11.0 | 0.00 | 0.00 | 0.00 | 48 | 1005.3 |
| 20260509231225 | 61 | 291 | 4.0 | 11.0 | 0.00 | 0.00 | 0.00 | 48 | 1005.3 |
| 20260509231125 | 61 | 290 | 4.0 | 11.0 | 0.00 | 0.00 | 0.00 | 48 | 1005.3 |
| 20260509231004 | 61 | 289 | 3.0 | 11.0 | 0.00 | 0.00 | 0.00 | 48 | 1005.2 |
| 20260509230904 | 62 | 289 | 3.0 | 10.0 | 0.00 | 0.00 | 0.00 | 48 | 1005.2 |
| 20260509230803 | 62 | 295 | 3.0 | 9.0 | 0.00 | 0.00 | 0.00 | 49 | 1005.2 |
| 20260509230704 | 62 | 298 | 3.0 | 9.0 | 0.00 | 0.00 | 0.00 | 48 | 1005.2 |
| 20260509230604 | 62 | 304 | 3.0 | 9.0 | 0.00 | 0.00 | 0.00 | 48 | 1005.2 |
| 20260509230504 | 62 | 313 | 3.0 | 9.0 | 0.00 | 0.00 | 0.00 | 49 | 1005.2 |
| 20260509230404 | 62 | 319 | 3.0 | 9.0 | 0.00 | 0.00 | 0.00 | 49 | 1005.2 |
| 20260509230303 | 62 | 320 | 3.0 | 9.0 | 0.00 | 0.00 | 0.00 | 49 | 1005.2 |
| 20260509230224 | 62 | 322 | 3.0 | 9.0 | 0.00 | 0.00 | 0.00 | 49 | 1005.1 |
| 20260509230104 | 62 | 321 | 4.0 | 9.0 | 0.00 | 0.00 | 0.00 | 49 | 1005.1 |
| 20260509230025 | 62 | 324 | 4.0 | 9.0 | 0.00 | 0.00 | 0.00 | 49 | 1005.1 |
| 20260509225904 | 62 | 320 | 4.0 | 9.0 | 0.00 | 0.00 | 0.00 | 48 | 1005.1 |
| 20260509225804 | 62 | 317 | 3.0 | 9.0 | 0.00 | 0.00 | 0.00 | 49 | 1005.1 |
| 20260509225704 | 62 | 316 | 3.0 | 9.0 | 0.00 | 0.00 | 0.00 | 48 | 1005.0 |
| 20260509225604 | 62 | 313 | 3.0 | 9.0 | 0.00 | 0.00 | 0.00 | 49 | 1005.0 |
| 20260509225504 | 62 | 315 | 3.0 | 9.0 | 0.00 | 0.00 | 0.00 | 48 | 1005.0 |
| 20260509225404 | 62 | 315 | 3.0 | 8.0 | 0.00 | 0.00 | 0.00 | 48 | 1005.0 |
| 20260509225324 | 62 | 316 | 3.0 | 8.0 | 0.00 | 0.00 | 0.00 | 47 | 1005.0 |
| 20260509225203 | 62 | 309 | 3.0 | 9.0 | 0.00 | 0.00 | 0.00 | 47 | 1005.0 |
| 20260509225104 | 62 | 305 | 3.0 | 9.0 | 0.00 | 0.00 | 0.00 | 48 | 1004.9 |
| 20260509225025 | 62 | 304 | 3.0 | 9.0 | 0.00 | 0.00 | 0.00 | 47 | 1004.9 |
| 20260509224903 | 62 | 308 | 3.0 | 9.0 | 0.00 | 0.00 | 0.00 | 47 | 1004.9 |
| 20260509224803 | 62 | 304 | 4.0 | 15.0 | 0.00 | 0.00 | 0.00 | 48 | 1004.9 |
| 20260509224703 | 62 | 300 | 4.0 | 15.0 | 0.00 | 0.00 | 0.00 | 47 | 1004.8 |
| 20260509224604 | 62 | 298 | 4.0 | 15.0 | 0.00 | 0.00 | 0.00 | 47 | 1004.9 |
| 20260509224504 | 62 | 293 | 4.0 | 15.0 | 0.00 | 0.00 | 0.00 | 47 | 1004.9 |
| 20260509224404 | 62 | 291 | 4.0 | 15.0 | 0.00 | 0.00 | 0.00 | 47 | 1004.8 |
| 20260509224303 | 62 | 289 | 4.0 | 15.0 | 0.00 | 0.00 | 0.00 | 46 | 1004.8 |
| 20260509224204 | 62 | 290 | 4.0 | 15.0 | 0.00 | 0.00 | 0.00 | 47 | 1004.8 |
| 20260509224104 | 62 | 293 | 4.0 | 15.0 | 0.00 | 0.00 | 0.00 | 47 | 1004.8 |
| 20260509224004 | 62 | 298 | 4.0 | 15.0 | 0.00 | 0.00 | 0.00 | 46 | 1004.8 |
| 20260509223903 | 62 | 292 | 4.0 | 15.0 | 0.00 | 0.00 | 0.00 | 46 | 1004.7 |
| 20260509223804 | 63 | 293 | 3.0 | 13.0 | 0.00 | 0.00 | 0.00 | 45 | 1004.7 |
| 20260509223703 | 63 | 295 | 3.0 | 8.0 | 0.00 | 0.00 | 0.00 | 45 | 1004.7 |
| 20260509223625 | 63 | 295 | 3.0 | 8.0 | 0.00 | 0.00 | 0.00 | 45 | 1004.7 |
| 20260509223504 | 63 | 296 | 3.0 | 8.0 | 0.00 | 0.00 | 0.00 | 44 | 1004.6 |
| 20260509223404 | 63 | 295 | 3.0 | 8.0 | 0.00 | 0.00 | 0.00 | 44 | 1004.7 |
| 20260509223303 | 63 | 296 | 3.0 | 8.0 | 0.00 | 0.00 | 0.00 | 44 | 1004.7 |
| 20260509223203 | 63 | 295 | 3.0 | 8.0 | 0.00 | 0.00 | 0.00 | 43 | 1004.7 |
| 20260509223103 | 63 | 297 | 3.0 | 8.0 | 0.00 | 0.00 | 0.00 | 43 | 1004.7 |
| 20260509223004 | 63 | 294 | 3.0 | 9.0 | 0.00 | 0.00 | 0.00 | 43 | 1004.7 |
| 20260509222904 | 63 | 297 | 3.0 | 11.0 | 0.00 | 0.00 | 0.00 | 43 | 1004.6 |
| 20260509222825 | 63 | 299 | 3.0 | 11.0 | 0.00 | 0.00 | 0.00 | 43 | 1004.6 |
| 20260509222703 | 63 | 302 | 4.0 | 11.0 | 0.00 | 0.00 | 0.00 | 44 | 1004.6 |
| 20260509222624 | 63 | 303 | 4.0 | 11.0 | 0.00 | 0.00 | 0.00 | 44 | 1004.6 |
| 20260509222504 | 63 | 308 | 4.0 | 11.0 | 0.00 | 0.00 | 0.00 | 43 | 1004.6 |
| 20260509222425 | 62 | 312 | 4.0 | 11.0 | 0.00 | 0.00 | 0.00 | 43 | 1004.5 |
| 20260509222325 | 62 | 312 | 4.0 | 11.0 | 0.00 | 0.00 | 0.00 | 43 | 1004.5 |
| 20260509222203 | 62 | 311 | 4.0 | 11.0 | 0.00 | 0.00 | 0.00 | 43 | 1004.5 |
| 20260509222103 | 62 | 312 | 4.0 | 11.0 | 0.00 | 0.00 | 0.00 | 42 | 1004.6 |
| 20260509222004 | 62 | 313 | 4.0 | 11.0 | 0.00 | 0.00 | 0.00 | 42 | 1004.6 |
| 20260509221904 | 63 | 313 | 4.0 | 10.0 | 0.00 | 0.00 | 0.00 | 41 | 1004.5 |
| 20260509221824 | 63 | 311 | 4.0 | 10.0 | 0.00 | 0.00 | 0.00 | 41 | 1004.5 |
| 20260509221704 | 63 | 310 | 4.0 | 10.0 | 0.00 | 0.00 | 0.00 | 41 | 1004.5 |
| 20260509221603 | 63 | 307 | 4.0 | 10.0 | 0.00 | 0.00 | 0.00 | 40 | 1004.4 |
| 20260509221504 | 63 | 304 | 4.0 | 10.0 | 0.00 | 0.00 | 0.00 | 40 | 1004.5 |
| 20260509221425 | 63 | 303 | 4.0 | 10.0 | 0.00 | 0.00 | 0.00 | 40 | 1004.5 |
| 20260509221304 | 63 | 304 | 3.0 | 10.0 | 0.00 | 0.00 | 0.00 | 40 | 1004.4 |
| 20260509221203 | 63 | 308 | 3.0 | 11.0 | 0.00 | 0.00 | 0.00 | 41 | 1004.4 |
| 20260509221104 | 63 | 307 | 3.0 | 11.0 | 0.00 | 0.00 | 0.00 | 41 | 1004.4 |
| 20260509221025 | 63 | 307 | 3.0 | 11.0 | 0.00 | 0.00 | 0.00 | 40 | 1004.4 |
| 20260509220904 | 63 | 303 | 4.0 | 11.0 | 0.00 | 0.00 | 0.00 | 40 | 1004.4 |
| 20260509220803 | 63 | 303 | 4.0 | 11.0 | 0.00 | 0.00 | 0.00 | 40 | 1004.4 |
| 20260509220703 | 63 | 297 | 4.0 | 11.0 | 0.00 | 0.00 | 0.00 | 40 | 1004.4 |
| 20260509220603 | 63 | 303 | 3.0 | 11.0 | 0.00 | 0.00 | 0.00 | 40 | 1004.4 |
| 20260509220504 | 63 | 304 | 3.0 | 11.0 | 0.00 | 0.00 | 0.00 | 40 | 1004.4 |
| 20260509220403 | 63 | 301 | 3.0 | 11.0 | 0.00 | 0.00 | 0.00 | 40 | 1004.4 |
| 20260509220303 | 63 | 301 | 3.0 | 11.0 | 0.00 | 0.00 | 0.00 | 40 | 1004.3 |
| 20260509220204 | 63 | 298 | 4.0 | 11.0 | 0.00 | 0.00 | 0.00 | 39 | 1004.3 |
| 20260509220103 | 63 | 294 | 4.0 | 11.0 | 0.00 | 0.00 | 0.00 | 39 | 1004.4 |
| 20260509220025 | 63 | 296 | 3.0 | 11.0 | 0.00 | 0.00 | 0.00 | 39 | 1004.4 |
| 20260509215924 | 63 | 302 | 3.0 | 11.0 | 0.00 | 0.00 | 0.00 | 39 | 1004.4 |
| 20260509215803 | 63 | 307 | 3.0 | 11.0 | 0.00 | 0.00 | 0.00 | 40 | 1004.4 |
| 20260509215704 | 63 | 310 | 3.0 | 11.0 | 0.00 | 0.00 | 0.00 | 39 | 1004.5 |
| 20260509215604 | 63 | 303 | 3.0 | 11.0 | 0.00 | 0.00 | 0.00 | 39 | 1004.4 |
| 20260509215504 | 63 | 299 | 4.0 | 11.0 | 0.00 | 0.00 | 0.00 | 39 | 1004.4 |
| 20260509215404 | 63 | 297 | 4.0 | 11.0 | 0.00 | 0.00 | 0.00 | 38 | 1004.3 |
| 20260509215324 | 63 | 297 | 4.0 | 11.0 | 0.00 | 0.00 | 0.00 | 38 | 1004.3 |
| 20260509215203 | 63 | 294 | 4.0 | 11.0 | 0.00 | 0.00 | 0.00 | 38 | 1004.3 |
| 20260509215104 | 63 | 295 | 4.0 | 11.0 | 0.00 | 0.00 | 0.00 | 38 | 1004.4 |
| 20260509215004 | 63 | 290 | 4.0 | 11.0 | 0.00 | 0.00 | 0.00 | 37 | 1004.4 |
| 20260509214903 | 62 | 287 | 4.0 | 11.0 | 0.00 | 0.00 | 0.00 | 38 | 1004.3 |
| 20260509214803 | 62 | 286 | 5.0 | 11.0 | 0.00 | 0.00 | 0.00 | 38 | 1004.3 |
| 20260509214703 | 62 | 288 | 5.0 | 11.0 | 0.00 | 0.00 | 0.00 | 38 | 1004.3 |
| 20260509214604 | 62 | 291 | 5.0 | 10.0 | 0.00 | 0.00 | 0.00 | 36 | 1004.3 |
| 20260509214504 | 62 | 290 | 4.0 | 10.0 | 0.00 | 0.00 | 0.00 | 36 | 1004.3 |
| 20260509214403 | 62 | 292 | 4.0 | 9.0 | 0.00 | 0.00 | 0.00 | 36 | 1004.3 |
| 20260509214303 | 62 | 291 | 4.0 | 9.0 | 0.00 | 0.00 | 0.00 | 36 | 1004.3 |
| 20260509214203 | 62 | 297 | 4.0 | 9.0 | 0.00 | 0.00 | 0.00 | 36 | 1004.3 |
| 20260509214104 | 62 | 297 | 3.0 | 9.0 | 0.00 | 0.00 | 0.00 | 36 | 1004.2 |
| 20260509214004 | 62 | 299 | 3.0 | 9.0 | 0.00 | 0.00 | 0.00 | 35 | 1004.2 |
| 20260509213903 | 63 | 301 | 3.0 | 8.0 | 0.00 | 0.00 | 0.00 | 37 | 1004.2 |
| 20260509213803 | 63 | 302 | 3.0 | 8.0 | 0.00 | 0.00 | 0.00 | 36 | 1004.3 |
| 20260509213703 | 63 | 303 | 3.0 | 8.0 | 0.00 | 0.00 | 0.00 | 37 | 1004.3 |
| 20260509213604 | 63 | 300 | 3.0 | 8.0 | 0.00 | 0.00 | 0.00 | 37 | 1004.2 |
| 20260509213504 | 62 | 301 | 3.0 | 7.0 | 0.00 | 0.00 | 0.00 | 37 | 1004.1 |
| 20260509213403 | 63 | 299 | 3.0 | 7.0 | 0.00 | 0.00 | 0.00 | 37 | 1004.1 |
| 20260509213304 | 62 | 295 | 3.0 | 7.0 | 0.00 | 0.00 | 0.00 | 38 | 1004.1 |
| 20260509213224 | 62 | 291 | 3.0 | 7.0 | 0.00 | 0.00 | 0.00 | 39 | 1004.1 |
| 20260509213104 | 62 | 288 | 3.0 | 7.0 | 0.00 | 0.00 | 0.00 | 38 | 1004.1 |
| 20260509213025 | 62 | 286 | 3.0 | 7.0 | 0.00 | 0.00 | 0.00 | 37 | 1004.1 |
| 20260509212925 | 62 | 283 | 3.0 | 7.0 | 0.00 | 0.00 | 0.00 | 37 | 1004.2 |
| 20260509212803 | 62 | 276 | 3.0 | 9.0 | 0.00 | 0.00 | 0.00 | 39 | 1004.1 |
| 20260509212704 | 62 | 270 | 3.0 | 9.0 | 0.00 | 0.00 | 0.00 | 38 | 1004.1 |
| 20260509212603 | 61 | 269 | 3.0 | 9.0 | 0.00 | 0.00 | 0.00 | 38 | 1004.0 |
| 20260509212503 | 61 | 267 | 3.0 | 9.0 | 0.00 | 0.00 | 0.00 | 37 | 1004.0 |
| 20260509212403 | 61 | 269 | 3.0 | 9.0 | 0.00 | 0.00 | 0.00 | 37 | 1004.0 |
| 20260509212306 | 61 | 271 | 3.0 | 9.0 | 0.00 | 0.00 | 0.00 | 37 | 1004.0 |
| 20260509212224 | 61 | 271 | 3.0 | 9.0 | 0.00 | 0.00 | 0.00 | 37 | 1004.0 |
| 20260509212124 | 61 | 268 | 3.0 | 9.0 | 0.00 | 0.00 | 0.00 | 39 | 1003.9 |
| 20260509212024 | 61 | 267 | 3.0 | 9.0 | 0.00 | 0.00 | 0.00 | 38 | 1003.9 |
| 20260509211904 | 62 | 271 | 2.0 | 9.0 | 0.00 | 0.00 | 0.00 | 38 | 1003.9 |
| 20260509211804 | 62 | 284 | 2.0 | 9.0 | 0.00 | 0.00 | 0.00 | 39 | 1003.9 |
| 20260509211703 | 62 | 288 | 3.0 | 9.0 | 0.00 | 0.00 | 0.00 | 39 | 1003.9 |
| 20260509211603 | 62 | 289 | 3.0 | 9.0 | 0.00 | 0.00 | 0.00 | 39 | 1003.9 |
| 20260509211503 | 62 | 290 | 3.0 | 9.0 | 0.00 | 0.00 | 0.00 | 39 | 1003.9 |
| 20260509211404 | 62 | 290 | 3.0 | 9.0 | 0.00 | 0.00 | 0.00 | 38 | 1003.9 |
| 20260509211304 | 62 | 294 | 3.0 | 8.0 | 0.00 | 0.00 | 0.00 | 40 | 1003.8 |
| 20260509211224 | 62 | 294 | 3.0 | 8.0 | 0.00 | 0.00 | 0.00 | 42 | 1003.8 |
| 20260509211103 | 61 | 297 | 3.0 | 8.0 | 0.00 | 0.00 | 0.00 | 42 | 1003.8 |
| 20260509211024 | 61 | 295 | 3.0 | 8.0 | 0.00 | 0.00 | 0.00 | 42 | 1003.8 |
| 20260509210903 | 61 | 292 | 3.0 | 8.0 | 0.00 | 0.00 | 0.00 | 42 | 1003.8 |
| 20260509210803 | 61 | 289 | 3.0 | 9.0 | 0.00 | 0.00 | 0.00 | 42 | 1003.8 |
| 20260509210703 | 61 | 291 | 3.0 | 9.0 | 0.00 | 0.00 | 0.00 | 42 | 1003.8 |
| 20260509210603 | 60 | 292 | 3.0 | 9.0 | 0.00 | 0.00 | 0.00 | 42 | 1003.8 |
| 20260509210503 | 60 | 293 | 3.0 | 9.0 | 0.00 | 0.00 | 0.00 | 41 | 1003.8 |
| 20260509210424 | 60 | 293 | 3.0 | 9.0 | 0.00 | 0.00 | 0.00 | 41 | 1003.8 |
| 20260509210303 | 61 | 287 | 3.0 | 9.0 | 0.00 | 0.00 | 0.00 | 41 | 1003.8 |
| 20260509210203 | 61 | 282 | 3.0 | 9.0 | 0.00 | 0.00 | 0.00 | 41 | 1003.8 |
| 20260509210004 | 61 | 285 | 3.0 | 9.0 | 0.00 | 0.00 | 0.00 | 40 | 1003.7 |
| 20260509205904 | 61 | 281 | 3.0 | 9.0 | 0.00 | 0.00 | 0.00 | 40 | 1003.7 |
| 20260509205803 | 61 | 278 | 3.0 | 7.0 | 0.00 | 0.00 | 0.00 | 41 | 1003.7 |
| 20260509205703 | 61 | 277 | 3.0 | 7.0 | 0.00 | 0.00 | 0.00 | 41 | 1003.6 |
| 20260509205624 | 61 | 278 | 3.0 | 7.0 | 0.00 | 0.00 | 0.00 | 40 | 1003.6 |
| 20260509205503 | 61 | 277 | 3.0 | 8.0 | 0.00 | 0.00 | 0.00 | 40 | 1003.6 |
| 20260509205425 | 62 | 277 | 3.0 | 8.0 | 0.00 | 0.00 | 0.00 | 41 | 1003.5 |
| 20260509205306 | 62 | 275 | 3.0 | 8.0 | 0.00 | 0.00 | 0.00 | 41 | 1003.5 |
| 20260509205224 | 62 | 275 | 3.0 | 8.0 | 0.00 | 0.00 | 0.00 | 41 | 1003.5 |
| 20260509205125 | 61 | 271 | 3.0 | 8.0 | 0.00 | 0.00 | 0.00 | 40 | 1003.5 |
| 20260509205005 | 62 | 264 | 3.0 | 8.0 | 0.00 | 0.00 | 0.00 | 40 | 1003.5 |
| 20260509204925 | 62 | 265 | 3.0 | 8.0 | 0.00 | 0.00 | 0.00 | 40 | 1003.4 |
| 20260509204804 | 62 | 266 | 4.0 | 8.0 | 0.00 | 0.00 | 0.00 | 40 | 1003.4 |
| 20260509204703 | 62 | 265 | 3.0 | 8.0 | 0.00 | 0.00 | 0.00 | 39 | 1003.4 |
| 20260509204603 | 62 | 261 | 4.0 | 8.0 | 0.00 | 0.00 | 0.00 | 38 | 1003.4 |
| 20260509204503 | 62 | 255 | 3.0 | 8.0 | 0.00 | 0.00 | 0.00 | 39 | 1003.4 |
| 20260509204425 | 62 | 253 | 3.0 | 8.0 | 0.00 | 0.00 | 0.00 | 38 | 1003.4 |
| 20260509204304 | 62 | 258 | 3.0 | 8.0 | 0.00 | 0.00 | 0.00 | 37 | 1003.4 |
| 20260509204203 | 62 | 261 | 3.0 | 8.0 | 0.00 | 0.00 | 0.00 | 38 | 1003.4 |
| 20260509204103 | 62 | 263 | 3.0 | 8.0 | 0.00 | 0.00 | 0.00 | 38 | 1003.3 |
| 20260509204003 | 62 | 269 | 3.0 | 8.0 | 0.00 | 0.00 | 0.00 | 38 | 1003.3 |
| 20260509203904 | 62 | 270 | 3.0 | 8.0 | 0.00 | 0.00 | 0.00 | 38 | 1003.3 |
| 20260509203803 | 62 | 267 | 3.0 | 8.0 | 0.00 | 0.00 | 0.00 | 39 | 1003.3 |
| 20260509203703 | 62 | 266 | 3.0 | 8.0 | 0.00 | 0.00 | 0.00 | 38 | 1003.3 |
| 20260509203624 | 62 | 267 | 3.0 | 8.0 | 0.00 | 0.00 | 0.00 | 37 | 1003.3 |
| 20260509203503 | 62 | 273 | 3.0 | 9.0 | 0.00 | 0.00 | 0.00 | 38 | 1003.4 |
| 20260509203424 | 62 | 272 | 3.0 | 9.0 | 0.00 | 0.00 | 0.00 | 38 | 1003.4 |
| 20260509203304 | 62 | 266 | 3.0 | 9.0 | 0.00 | 0.00 | 0.00 | 40 | 1003.3 |
| 20260509203204 | 62 | 265 | 3.0 | 9.0 | 0.00 | 0.00 | 0.00 | 40 | 1003.3 |
| 20260509203103 | 62 | 266 | 3.0 | 9.0 | 0.00 | 0.00 | 0.00 | 39 | 1003.3 |
| 20260509203003 | 62 | 264 | 3.0 | 9.0 | 0.00 | 0.00 | 0.00 | 39 | 1003.3 |
| 20260509202903 | 62 | 262 | 3.0 | 9.0 | 0.00 | 0.00 | 0.00 | 39 | 1003.3 |
| 20260509202803 | 62 | 259 | 3.0 | 9.0 | 0.00 | 0.00 | 0.00 | 39 | 1003.2 |
| 20260509202724 | 62 | 258 | 3.0 | 9.0 | 0.00 | 0.00 | 0.00 | 39 | 1003.2 |
| 20260509202603 | 62 | 256 | 3.0 | 9.0 | 0.00 | 0.00 | 0.00 | 39 | 1003.2 |
| 20260509202503 | 62 | 252 | 3.0 | 7.0 | 0.00 | 0.00 | 0.00 | 40 | 1003.2 |
| 20260509202403 | 62 | 254 | 3.0 | 7.0 | 0.00 | 0.00 | 0.00 | 39 | 1003.2 |
| 20260509202306 | 62 | 256 | 3.0 | 9.0 | 0.00 | 0.00 | 0.00 | 39 | 1003.2 |
| 20260509202204 | 62 | 258 | 3.0 | 9.0 | 0.00 | 0.00 | 0.00 | 40 | 1003.2 |
| 20260509202124 | 62 | 257 | 3.0 | 9.0 | 0.00 | 0.00 | 0.00 | 40 | 1003.2 |
| 20260509202003 | 62 | 250 | 3.0 | 9.0 | 0.00 | 0.00 | 0.00 | 40 | 1003.1 |
| 20260509201904 | 62 | 254 | 3.0 | 9.0 | 0.00 | 0.00 | 0.00 | 39 | 1003.1 |
| 20260509201804 | 62 | 260 | 3.0 | 9.0 | 0.00 | 0.00 | 0.00 | 40 | 1003.1 |
| 20260509201725 | 62 | 261 | 3.0 | 9.0 | 0.00 | 0.00 | 0.00 | 40 | 1003.1 |
| 20260509201603 | 61 | 261 | 3.0 | 9.0 | 0.00 | 0.00 | 0.00 | 40 | 1003.1 |
| 20260509201503 | 61 | 261 | 4.0 | 9.0 | 0.00 | 0.00 | 0.00 | 39 | 1003.1 |
| 20260509201424 | 62 | 259 | 4.0 | 9.0 | 0.00 | 0.00 | 0.00 | 39 | 1003.1 |
| 20260509201303 | 62 | 257 | 4.0 | 11.0 | 0.00 | 0.00 | 0.00 | 39 | 1003.1 |
| 20260509201203 | 62 | 253 | 4.0 | 11.0 | 0.00 | 0.00 | 0.00 | 40 | 1003.1 |
| 20260509201104 | 62 | 252 | 4.0 | 11.0 | 0.00 | 0.00 | 0.00 | 39 | 1003.1 |
| 20260509201003 | 62 | 249 | 4.0 | 11.0 | 0.00 | 0.00 | 0.00 | 39 | 1003.2 |
| 20260509200903 | 62 | 242 | 4.0 | 11.0 | 0.00 | 0.00 | 0.00 | 39 | 1003.2 |
| 20260509200804 | 62 | 235 | 3.0 | 11.0 | 0.00 | 0.00 | 0.00 | 39 | 1003.1 |
| 20260509200703 | 62 | 228 | 3.0 | 11.0 | 0.00 | 0.00 | 0.00 | 39 | 1003.2 |
| 20260509200603 | 62 | 225 | 3.0 | 11.0 | 0.00 | 0.00 | 0.00 | 38 | 1003.2 |
| 20260509200503 | 62 | 225 | 3.0 | 11.0 | 0.00 | 0.00 | 0.00 | 38 | 1003.1 |
| 20260509200403 | 63 | 218 | 2.0 | 11.0 | 0.00 | 0.00 | 0.00 | 39 | 1003.1 |
| 20260509200303 | 63 | 206 | 2.0 | 6.0 | 0.00 | 0.00 | 0.00 | 39 | 1003.1 |
| 20260509200204 | 63 | 210 | 2.0 | 6.0 | 0.00 | 0.00 | 0.00 | 39 | 1003.2 |
| 20260509200103 | 63 | 216 | 2.0 | 6.0 | 0.00 | 0.00 | 0.00 | 39 | 1003.2 |
| 20260509200004 | 63 | 224 | 2.0 | 6.0 | 0.00 | 0.00 | 0.00 | 39 | 1003.1 |
| 20260509195903 | 62 | 229 | 2.0 | 6.0 | 0.00 | 0.00 | 0.00 | 39 | 1003.2 |
| 20260509195825 | 62 | 235 | 2.0 | 6.0 | 0.00 | 0.00 | 0.00 | 39 | 1003.2 |
| 20260509195703 | 62 | 247 | 2.0 | 6.0 | 0.00 | 0.00 | 0.00 | 39 | 1003.1 |
| 20260509195603 | 62 | 253 | 2.0 | 6.0 | 0.00 | 0.00 | 0.00 | 39 | 1003.1 |
| 20260509195503 | 63 | 251 | 2.0 | 6.0 | 0.00 | 0.00 | 0.00 | 39 | 1003.2 |
| 20260509195403 | 62 | 258 | 2.0 | 6.0 | 0.00 | 0.00 | 0.00 | 40 | 1003.2 |
| 20260509195306 | 62 | 264 | 3.0 | 6.0 | 0.00 | 0.00 | 0.00 | 40 | 1003.2 |
| 20260509195203 | 62 | 269 | 3.0 | 7.0 | 0.00 | 0.00 | 0.00 | 40 | 1003.2 |
| 20260509195103 | 62 | 270 | 3.0 | 7.0 | 0.00 | 0.00 | 0.00 | 41 | 1003.2 |
| 20260509195003 | 62 | 269 | 3.0 | 8.0 | 0.00 | 0.00 | 0.00 | 42 | 1003.2 |
| 20260509194903 | 62 | 272 | 3.0 | 8.0 | 0.00 | 0.00 | 0.00 | 43 | 1003.2 |
| 20260509194803 | 61 | 273 | 3.0 | 8.0 | 0.00 | 0.00 | 0.00 | 43 | 1003.2 |
| 20260509194703 | 61 | 273 | 3.0 | 8.0 | 0.00 | 0.00 | 0.00 | 42 | 1003.2 |
| 20260509194603 | 61 | 276 | 3.0 | 8.0 | 0.00 | 0.00 | 0.00 | 42 | 1003.3 |
| 20260509194503 | 61 | 275 | 3.0 | 8.0 | 0.00 | 0.00 | 0.00 | 41 | 1003.3 |
| 20260509194406 | 61 | 270 | 3.0 | 8.0 | 0.00 | 0.00 | 0.00 | 41 | 1003.3 |
| 20260509194307 | 61 | 266 | 3.0 | 8.0 | 0.00 | 0.00 | 0.00 | 41 | 1003.3 |
| 20260509194207 | 61 | 262 | 3.0 | 8.0 | 0.00 | 0.00 | 0.00 | 40 | 1003.3 |
| 20260509194106 | 62 | 261 | 3.0 | 8.0 | 0.00 | 0.00 | 0.00 | 41 | 1003.3 |
| 20260509194006 | 62 | 262 | 3.0 | 8.0 | 0.00 | 0.00 | 0.00 | 43 | 1003.3 |
| 20260509193927 | 61 | 261 | 3.0 | 8.0 | 0.00 | 0.00 | 0.00 | 42 | 1003.3 |
| 20260509193828 | 61 | 260 | 3.0 | 8.0 | 0.00 | 0.00 | 0.00 | 42 | 1003.3 |
| 20260509193706 | 61 | 261 | 3.0 | 10.0 | 0.00 | 0.00 | 0.00 | 42 | 1003.3 |
| 20260509193606 | 61 | 256 | 3.0 | 10.0 | 0.00 | 0.00 | 0.00 | 42 | 1003.3 |
| 20260509193507 | 61 | 257 | 4.0 | 10.0 | 0.00 | 0.00 | 0.00 | 41 | 1003.3 |
| 20260509193406 | 61 | 255 | 4.0 | 10.0 | 0.00 | 0.00 | 0.00 | 43 | 1003.3 |
| 20260509193307 | 61 | 254 | 4.0 | 10.0 | 0.00 | 0.00 | 0.00 | 43 | 1003.3 |
| 20260509193227 | 60 | 254 | 4.0 | 10.0 | 0.00 | 0.00 | 0.00 | 43 | 1003.3 |
| 20260509193107 | 60 | 258 | 4.0 | 10.0 | 0.00 | 0.00 | 0.00 | 42 | 1003.3 |
| 20260509193007 | 60 | 259 | 4.0 | 10.0 | 0.00 | 0.00 | 0.00 | 42 | 1003.3 |
| 20260509192906 | 60 | 256 | 4.0 | 10.0 | 0.00 | 0.00 | 0.00 | 42 | 1003.3 |
| 20260509192828 | 60 | 254 | 4.0 | 10.0 | 0.00 | 0.00 | 0.00 | 42 | 1003.3 |
| 20260509192728 | 61 | 253 | 4.0 | 9.0 | 0.00 | 0.00 | 0.00 | 42 | 1003.3 |
| 20260509192606 | 61 | 257 | 3.0 | 9.0 | 0.00 | 0.00 | 0.00 | 42 | 1003.3 |
| 20260509192506 | 61 | 260 | 3.0 | 9.0 | 0.00 | 0.00 | 0.00 | 42 | 1003.3 |
| 20260509192406 | 61 | 268 | 3.0 | 9.0 | 0.00 | 0.00 | 0.00 | 42 | 1003.3 |
| 20260509192306 | 61 | 275 | 3.0 | 8.0 | 0.00 | 0.00 | 0.00 | 43 | 1003.3 |
| 20260509192207 | 61 | 273 | 3.0 | 11.0 | 0.00 | 0.00 | 0.00 | 42 | 1003.3 |
| 20260509192106 | 61 | 271 | 3.0 | 11.0 | 0.00 | 0.00 | 0.00 | 43 | 1003.4 |
| 20260509192006 | 61 | 268 | 3.0 | 11.0 | 0.00 | 0.00 | 0.00 | 42 | 1003.4 |
| 20260509191927 | 61 | 267 | 3.0 | 11.0 | 0.00 | 0.00 | 0.00 | 44 | 1003.3 |
| 20260509191806 | 61 | 267 | 4.0 | 11.0 | 0.00 | 0.00 | 0.00 | 44 | 1003.3 |
| 20260509191706 | 61 | 264 | 4.0 | 11.0 | 0.00 | 0.00 | 0.00 | 44 | 1003.3 |